     2              OBSERVATION DATA    GPS                 RINEX VERSION / TYPE
ASHTORIN MIT 09                                             PGM / RUN BY / DATE
                                                            COMMENT
Original Marker Name: JTRE                                  COMMENT
Campaign Name: STRC/NBC 1997                                COMMENT
4-Character Station Name: JTRE                              COMMENT
6-Character Antenna Code: DMRCHT                            COMMENT
Vertical Measurement Point: BCR                             COMMENT
Vertical Offset to Rinex Ref. Point: 0.0349                 COMMENT
Radial Measurement Point: ECF                               COMMENT
Radial Offset to Rinex Ref. Point: 0.1896                   COMMENT
Antenna Height from Field Measurement: 1.3160 m             COMMENT
Additional Antenna Identification Info.:                    COMMENT
Turborogue and Ashtech Choke Ring                           COMMENT
Original XYZ: 0.0000 0.0000 0.0000                          COMMENT
New XYZ position is based on association with SCEC monument COMMENT
E1D0V7C8+0011. Position of that monument is believed to be  COMMENT
valid to within 1 m horizontally; vertical accuracy         COMMENT
should be no worse than 3-times this value.                 COMMENT
                                                            COMMENT
Revised Rinex header created by UCSD GPS archive for        COMMENT
GSAC on 15-Apr-1999 (1999:105) 18:44:05 GMT                 COMMENT
For assistance contact dagnew@ucsd.edu or hjohnson@ucsd.edu COMMENT
                                                            COMMENT
B1254 1974                                                  MARKER NAME
                                                            MARKER NUMBER
DBM UNAVCO                                                  OBSERVER / AGENCY
385 ASHTECH Z12-XII3 1E951D0                                REC # / TYPE / VERS
653 DORNE-MARGOL. TYPE T                                    ANT # / TYPE
 -2305534.0000 -4776859.0000  3531592.0000                  APPROX POSITION XYZ
        1.2674        0.0000        0.0000                  ANTENNA: DELTA H/E/N
     1     1     0                                          WAVELENGTH FACT L1/2
     7    L1    L2    C1    P1    P2    D1    D2            # / TYPES OF OBSERV
    30                                                      INTERVAL
  1997     3    13    21    20    0.000000                  TIME OF FIRST OBS
  1997     3    13    23    59   30.000000                  TIME OF LAST OBS
     0                                                      # OF SATELLITES
                                                            END OF HEADER
 97  3 13 21 20  0.0000000  0  5 27  2 26  4  7                      0.000000000
    190896.12019    136012.52457  22579389.959    22579390.1445   22579396.7225
        -0.000          -0.000
     -7736.62719     -6446.14652         0.000           0.0005          0.0005
        -0.000          -0.000
     42404.98219     30126.65757  23164948.080    23164948.9205   23164954.8175
        -0.000          -0.000
   -306831.85519   -218212.67656  23053120.759    23053122.2865   23053128.7645
        -0.000          -0.000
    -13106.67719     -8945.96759  20407753.863    20407753.6865   20407759.1855
        -0.000          -0.000
 97  3 13 21 20 30.0000000  0  6 27  2 26  4  7  9                   0.000356701
    267887.264 9    196005.57647  22594041.524    22594041.1604   22594047.7154
        -0.000          -0.000
    -10293.64419      -766.39857         0.000           0.0005   21468506.5695
        -0.000          -0.000
     59928.070 9     43780.99347  23168282.597    23168283.4714   23168289.4174
        -0.000          -0.000
   -429681.718 9   -313939.76846  23029744.287    23029744.4494   23029751.0484
        -0.000          -0.000
    -17294.975 9    -12209.56749  20406957.114    20406956.6684   20406962.1544
        -0.000          -0.000
   -288233.61119   -211803.72852         0.000           0.0005          0.0005
        -0.000          -0.000
 97  3 13 21 21  0.0000000  0  6 27  2 26  4  7  9                   0.000342291
    345147.645 9    256208.43947  22608743.774    22608743.4134   22608749.8844
        -0.000          -0.000
    -12665.98819     -2614.97448  21468049.902    21468049.5995   21468055.1634
        -0.000          -0.000
     77831.041 9     57731.35347  23171689.533    23171690.4524   23171696.3274
        -0.000          -0.000
   -552380.917 9   -409549.46246  23006395.334    23006395.7244   23006402.1244
        -0.000          -0.000
    -21170.754 9    -15229.64149  20406219.615    20406219.1584   20406224.6044
        -0.000          -0.000
   -407467.57719    -19487.87752         0.000           0.0005          0.0005
        -0.000          -0.000
 97  3 13 21 21 30.0000000  0  6 27  2 26  4  7  9                   0.000327505
    422694.834 9    316634.77047  22623500.487    22623500.2274   22623506.6344
        -0.000          -0.000
    -14852.668 9     -4318.88548  21467633.939    21467633.5764   21467639.0784
        -0.000          -0.000
     96106.706 9     71972.09647  23175167.516    23175168.1154   23175174.1614
        -0.000          -0.000
   -674895.480 9   -505015.29147  22983081.882    22983082.1334   22983088.3234
        -0.000          -0.000
    -24705.573 9    -17984.03749  20405547.074    20405546.5444   20405551.9964
        -0.000          -0.000
   -526586.106 9   -112307.00452         0.000           0.0004          0.0005
        -0.000          -0.000
 97  3 13 21 22  0.0000000  0  6 27  2 26  4  7  9                   0.000312709
    500539.805 9    377293.14547  22638313.857    22638313.6014   22638320.0784
        -0.000          -0.000
    -16853.957 9     -5878.31848  21467253.211    21467252.7904   21467258.2754
        -0.000          -0.000
    114773.404 9     86517.55347  23178719.878    23178720.3864   23178726.3404
        -0.000          -0.000
   -797194.012 9   -600312.78547  22959809.418    22959809.5644   22959815.7084
        -0.000          -0.000
    -27864.576 9    -20445.58949  20404945.995    20404945.4704   20404950.9334
        -0.000          -0.000
   -645580.453 9   -205029.99253         0.000           0.0004   23895892.4345
        -0.000          -0.000
 97  3 13 21 22 30.0000000  0  6 27  2 26  4  7  9                   0.000297902
    578682.963 9    438183.88947  22653184.086    22653183.8974   22653190.2274
        -0.000          -0.000
    -18678.693 9     -7300.20048  21466905.951    21466905.5314   21466911.1034
        -0.000          -0.000
    133832.021 9    101368.41447  23182346.752    23182347.1654   23182353.0374
        -0.000          -0.000
   -919286.419 9   -695449.64247  22936575.993    22936576.1484   22936582.3184
        -0.000          -0.000
    -30637.794 9    -22606.52249  20404418.266    20404417.7464   20404423.1774
        -0.000          -0.000
   -764438.79219   -297646.82246  23873268.532    23873267.5515   23873273.8434
        -0.000          -0.000
 97  3 13 21 23  0.0000000  0  6 27  2 26  4  7  9                   0.000283084
    657154.421 9    499330.42147  22668116.750    22668116.5994   22668122.8754
        -0.000          -0.000
    -20333.701 9     -8589.81648  21466590.963    21466590.5784   21466596.1544
        -0.000          -0.000
    153308.427 9    116544.80047  23186053.038    23186053.4194   23186059.3024
        -0.000          -0.000
  -1041163.809 9   -790418.98347  22913383.500    22913383.6254   22913389.8194
        -0.000          -0.000
    -32990.922 9    -24440.12149  20403970.509    20403970.0254   20403975.4214
        -0.000          -0.000
   -883135.998 9   -390138.10146  23850681.147    23850680.5274   23850687.0524
        -0.000          -0.000
 97  3 13 21 23 30.0000000  0  6 27  2 26  4  7  9                   0.000268273
    735967.603 9    560743.25047  22683114.511    22683114.3374   22683120.5314
        -0.000          -0.000
    -21811.538 9     -9741.37748  21466309.816    21466309.4134   21466314.9994
        -0.000          -0.000
    173213.728 9    132055.41147  23189840.970    23189841.3374   23189847.3014
        -0.000          -0.000
  -1162836.156 9   -885228.53547  22890230.083    22890230.1744   22890236.3954
        -0.000          -0.000
    -34913.377 9    -25938.12449  20403604.721    20403604.1994   20403609.5824
        -0.000          -0.000
  -1001639.054 9   -482478.08046  23828130.730    23828130.5294   23828136.7934
        -0.000          -0.000
 97  3 13 21 24  0.0000000  0  6 27  2 26  4  7  9                   0.000253487
    815123.938 9    622423.45147  22698177.444    22698177.2494   22698183.5974
        -0.000          -0.000
    -23092.168 9    -10739.27448  21466066.141    21466065.7224   21466071.2924
        -0.000          -0.000
    193559.361 9    147909.13647  23193712.713    23193713.0364   23193718.9984
        -0.000          -0.000
  -1284310.694 9   -979883.95247  22867114.215    22867114.3764   22867120.5674
        -0.000          -0.000
    -36414.333 9    -27107.68949  20403319.091    20403318.5964   20403323.9664
        -0.000          -0.000
  -1119919.199 9   -574644.36846  23805622.691    23805622.6104   23805628.8634
        -0.000          -0.000
 97  3 13 21 24 30.0000000  0  6 27  2 26  4  7  9                   0.000238744
    894632.689 9    684378.26647  22713307.455    22713307.2944   22713313.6494
        -0.000          -0.000
    -24147.300 9    -11561.45748  21465865.384    21465864.9614   21465870.5104
        -0.000          -0.000
    214355.502 9    164113.89947  23197670.161    23197670.4474   23197676.3904
        -0.000          -0.000
  -1405575.028 9  -1074375.56847  22844038.322    22844038.5714   22844044.7504
        -0.000          -0.000
    -37489.528 9    -27945.49249  20403114.556    20403114.0284   20403119.3884
        -0.000          -0.000
  -1237959.568 9   -666623.84846  23783160.427    23783160.2914   23783166.3834
        -0.000          -0.000
 97  3 13 21 25  0.0000000  0  6 27  2 26  4  7  9                   0.000224046
    974493.925 9    746607.75547  22728504.693    22728504.4844   22728510.7584
        -0.000          -0.000
    -24952.456 9    -12188.85148  21465712.213    21465711.7674   21465717.2844
        -0.000          -0.000
    235597.965 9    180666.44847  23201712.444    23201712.7794   23201718.7144
        -0.000          -0.000
  -1526606.826 9  -1168685.99447  22821006.646    22821006.9064   22821013.0654
        -0.000          -0.000
    -38134.379 9    -28447.96449  20402991.867    20402991.3434   20402996.6844
        -0.000          -0.000
  -1355760.811 9   -758416.98046  23760743.651    23760743.5004   23760749.4634
        -0.000          -0.000
 97  3 13 21 25 30.0000000  0  6 27  2 26  4  7  9                   0.000209405
   1054685.364 9    809094.54247  22743764.776    22743764.4994   22743770.7264
        -0.000          -0.000
    -25476.650 9    -12597.31948  21465612.440    21465612.0364   21465617.5874
        -0.000          -0.000
    257268.809 9    197552.80747  23205836.192    23205836.5344   23205842.5044
        -0.000          -0.000
  -1647390.784 9  -1262803.29647  22798022.233    22798022.5074   22798028.5714
        -0.000          -0.000
    -38368.550 9    -28630.42449  20402947.345    20402946.8344   20402952.1664
        -0.000          -0.000
  -1473318.771 9   -850020.53246  23738373.065    23738372.9174   23738378.8274
        -0.000          -0.000
 97  3 13 21 26  0.0000000  0  6 27  2 26  4  7  9                   0.000194814
   1135192.235 9    871827.12447  22759084.791    22759084.5534   22759090.7274
        -0.000          -0.000
    -25709.519 9    -12778.78048  21465568.155    21465567.7474   21465573.3334
        -0.000          -0.000
    279371.459 9    214775.63547  23210042.241    23210042.5524   23210048.5564
        -0.000          -0.000
  -1767895.962 9  -1356703.36547  22775090.878    22775091.1324   22775097.0754
        -0.000          -0.000
    -38189.664 9    -28491.02349  20402981.443    20402980.9204   20402986.2614
        -0.000          -0.000
  -1590638.511 9   -941438.44146  23716047.877    23716047.6824   23716053.6494
        -0.000          -0.000
 97  3 13 21 26 30.0000000  0  6 27  2 26  4  7  9                   0.000180271
   1216027.238 9    934815.38547  22774467.309    22774467.0544   22774473.2384
        -0.000          -0.000
    -25643.453 9    -12727.30548  21465580.748    21465580.3284   21465585.9604
        -0.000          -0.000
    301909.328 9    232337.59147  23214331.075    23214331.4124   23214337.3774
        -0.000          -0.000
  -1888089.272 9  -1450360.42147  22752218.847    22752219.0574   22752224.9394
        -0.000          -0.000
    -37602.957 9    -28033.84149  20403093.031    20403092.5034   20403097.8964
        -0.000          -0.000
  -1707736.848 9  -1032683.83446  23693764.678    23693764.5784   23693770.5694
        -0.000          -0.000
 97  3 13 21 27  0.0000000  0  6 27  2 26  4  7  9                   0.000165784
   1297196.359 9    998064.01247  22789913.191    22789913.0714   22789919.2544
        -0.000          -0.000
    -25275.151 9    -12440.31548  21465650.853    21465650.4404   21465656.0944
        -0.000          -0.000
    324891.111 9    250245.45847  23218704.502    23218704.8064   23218710.6874
        -0.000          -0.000
  -2007959.707 9  -1543765.89747  22729408.206    22729408.4484   22729414.2304
        -0.000          -0.000
    -36612.299 9    -27261.89249  20403281.537    20403281.0234   20403286.4174
        -0.000          -0.000
  -1824605.246 9  -1123750.07346  23671525.418    23671525.2344   23671531.2594
        -0.000          -0.000
 97  3 13 21 27 30.0000000  0  6 27  2 26  4  7  9                   0.000151362
   1378705.643 9   1061577.67646  22805424.072    22805423.8434   22805430.0894
        -0.000          -0.000
    -24605.138 9    -11918.22548  21465778.398    21465777.9414   21465783.6374
        -0.000          -0.000
    348319.611 9    268501.41247  23223162.829    23223163.1284   23223169.0084
        -0.000          -0.000
  -2127510.709 9  -1636922.45847  22706658.290    22706658.6274   22706664.3944
        -0.000          -0.000
    -35221.292 9    -26177.98249  20403546.217    20403545.7094   20403551.1124
        -0.000          -0.000
  -1941231.944 9  -1214627.96846  23649332.110    23649331.8694   23649337.9354
        -0.000          -0.000
 97  3 13 21 28  0.0000000  0  6 27  2 26  4  7  9                   0.000136990
   1460568.783 9   1125367.07846  22821002.198    22821001.9794   22821008.2104
        -0.000          -0.000
    -23645.757 9    -11170.66448  21465960.997    21465960.5354   21465966.2104
        -0.000          -0.000
    372214.540 9    287120.83447  23227709.995    23227710.2614   23227716.2674
        -0.000          -0.000
  -2246738.072 9  -1729826.82247  22683970.073    22683970.3844   22683976.2184
        -0.000          -0.000
    -33418.816 9    -24773.44949  20403889.267    20403888.7524   20403894.1564
        -0.000          -0.000
  -2057624.152 9  -1305323.15746  23627183.399    23627183.1814   23627189.1634
        -0.000          -0.000
 97  3 13 21 28 30.0000000  0  6 27  2 26  4  7  9                   0.000122676
   1542803.825 9   1189446.28546  22836651.068    22836650.8364   22836657.0614
        -0.000          -0.000
    -22389.815 9    -10192.00748  21466200.069    21466199.5894   21466205.2004
        -0.000          -0.000
    396584.816 9    306110.64347  23232347.489    23232347.7904   23232353.8834
        -0.000          -0.000
  -2365638.427 9  -1822476.38147  22661344.077    22661344.3384   22661350.1404
        -0.000          -0.000
    -31180.225 9    -23029.08549  20404315.261    20404314.7474   20404320.1414
        -0.000          -0.000
  -2173759.493 9  -1395818.18546  23605083.509    23605083.3714   23605089.3954
        -0.000          -0.000
 97  3 13 21 29  0.0000000  0  6 27  2 26  4  7  9                   0.000108418
   1625399.381 9   1253806.40746  22852368.481    22852368.2844   22852374.6374
        -0.000          -0.000
    -20841.743 9     -8985.71948  21466494.678    21466494.1854   21466499.7754
        -0.000          -0.000
    421426.613 9    325467.87447  23237074.677    23237074.9884   23237081.2164
        -0.000          -0.000
  -2484228.947 9  -1914884.52647  22638777.029    22638777.2814   22638783.1114
        -0.000          -0.000
    -28491.283 9    -20933.80249  20404826.952    20404826.4634   20404831.8914
        -0.000          -0.000
  -2289615.411 9  -1486095.46946  23583036.657    23583036.6634   23583042.6874
        -0.000          -0.000
 97  3 13 21 29 30.0000000  0  6 27  2 26  4  7  9                   0.000094218
   1708362.992 9   1318453.31546  22868155.950    22868155.7754   22868162.1814
        -0.000          -0.000
    -19001.002 9     -7551.37648  21466844.954    21466844.4734   21466850.0484
        -0.000          -0.000
    446735.795 9    345189.29247  23241890.858    23241891.1934   23241897.3324
        -0.000          -0.000
  -2602503.278 9  -2007046.27747  22616270.228    22616270.4424   22616276.2654
        -0.000          -0.000
    -25338.796 9    -18477.31149  20405426.892    20405426.3874   20405431.7854
        -0.000          -0.000
  -2405183.862 9  -1576148.75846  23561044.770    23561044.7884   23561050.7664
        -0.000          -0.000
 97  3 13 21 30  0.0000000  0  6 27  2 26  4  7  9                   0.000080076
   1791701.513 9   1383392.36946  22884014.897    22884014.6864   22884021.0624
        -0.000          -0.000
    -16869.317 9     -5890.33148  21467250.677    21467250.2024   21467255.7144
        -0.000          -0.000
    472522.667 9    365282.94347  23246798.034    23246798.3174   23246804.3704
        -0.000          -0.000
  -2720434.598 9  -2098940.75747  22593828.576    22593828.8484   22593834.6064
        -0.000          -0.000
    -21703.469 9    -15644.58549  20406118.737    20406118.2184   20406123.5924
        -0.000          -0.000
  -2520449.373 9  -1665965.98846  23539110.414    23539110.4544   23539116.3754
        -0.000          -0.000
 97  3 13 21 30 30.0000000  0  6 27  2 26  4  7  9                   0.000066002
   1875407.425 9   1448617.69846  22899943.577    22899943.3594   22899949.7094
        -0.000          -0.000
    -14446.356 9     -4002.31248  21467711.798    21467711.3134   21467716.7934
        -0.000          -0.000
    498762.898 9    385729.84447  23251791.487    23251791.7994   23251797.7864
        -0.000          -0.000
  -2838037.072 9  -2190578.99247  22571449.634    22571449.8504   22571455.6084
        -0.000          -0.000
    -17600.265 9    -12447.27949  20406899.614    20406899.0984   20406904.4604
        -0.000          -0.000
  -2635402.947 9  -1755540.15446  23517235.318    23517235.4774   23517241.4224
        -0.000          -0.000
 97  3 13 21 31  0.0000000  0  6 27  2 26  4  7  9                   0.000051999
   1959469.657 9   1514120.69446  22915940.007    22915939.9354   22915946.2694
        -0.000          -0.000
    -11735.104 9     -1889.64948  21468227.821    21468227.3054   21468232.7674
        -0.000          -0.000
    525444.139 9    406520.41947  23256868.837    23256869.1354   23256875.0924
        -0.000          -0.000
  -2955324.933 9  -2281972.06847  22549130.471    22549130.7224   22549136.5084
        -0.000          -0.000
    -13049.392 9     -8901.13849  20407765.629    20407765.0984   20407770.4834
        -0.000          -0.000
  -2750051.701 9  -1844876.80346  23495418.360    23495418.5214   23495424.4234
        -0.000          -0.000
 97  3 13 21 31 30.0000000  0  6 27  2 26  4  7  9                   0.000038070
   2043900.554 9   1579910.93846  22932006.776    22932006.6824   22932013.0664
        -0.000          -0.000
     -8723.942 9       456.70748  21468800.783    21468800.2594   21468805.7604
        -0.000          -0.000
    552592.992 9    427675.36147  23262035.239    23262035.5274   23262041.3554
        -0.000          -0.000
  -3072277.344 9  -2373103.76647  22526875.182    22526875.4194   22526881.1524
        -0.000          -0.000
     -8036.127 9     -4994.69349  20408719.566    20408719.0584   20408724.4284
        -0.000          -0.000
  -2864381.901 9  -1933965.23146  23473661.976    23473662.1624   23473668.0474
        -0.000          -0.000
 97  3 13 21 32  0.0000000  0  6 27  2 26  4  7  9                   0.000024214
   2128697.012 9   1645986.05646  22948143.136    22948143.0114   22948149.2364
        -0.000          -0.000
     -5389.848 9      3054.69448  21469435.201    21469434.7304   21469440.2434
        -0.000          -0.000
    580239.046 9    449217.72447  23267296.165    23267296.4174   23267302.1994
        -0.000          -0.000
  -3188876.979 9  -2463960.58547  22504687.011    22504687.2194   22504692.8984
        -0.000          -0.000
     -2549.306 9      -719.24649  20409763.683    20409763.1554   20409768.5344
        -0.000          -0.000
  -2978380.294 9  -2022795.11446  23451968.820    23451969.0004   23451974.8854
        -0.000          -0.000
 97  3 13 21 32 30.0000000  0  6 27  2 26  4  7  9                   0.000010421
   2213834.413 9   1712326.81946  22964344.203    22964344.1254   22964350.3424
        -0.000          -0.000
     -1736.723 9      5901.27648  21470130.388    21470129.9284   21470135.4654
        -0.000          -0.000
    608367.707 9    471136.14747  23272648.858    23272649.1404   23272654.9424
        -0.000          -0.000
  -3305150.047 9  -2554562.92747  22482561.050    22482561.2174   22482566.7314
        -0.000          -0.000
      3393.445 9      3911.47249  20410894.477    20410893.9824   20410899.3714
        -0.000          -0.000
  -3092058.484 9  -2111375.48746  23430336.731    23430336.7264   23430342.6264
        -0.000          -0.000
 97  3 13 21 33  0.0000000  0  6 27  2 26  4  7  9                  -0.000003326
   2299288.112 9   1778914.08046  22980605.550    22980605.4684   22980611.6174
        -0.000          -0.000
      2217.587 9      8982.55348  21470882.889    21470882.4074   21470888.0014
        -0.000          -0.000
    636966.538 9    493420.92147  23278091.173    23278091.4224   23278097.2724
        -0.000          -0.000
  -3421107.567 9  -2644919.39647  22460495.026    22460495.1934   22460500.6814
        -0.000          -0.000
      9780.462 9      8888.37949  20412109.936    20412109.4214   20412114.8024
        -0.000          -0.000
  -3205429.147 9  -2199716.23046  23408762.940    23408763.0314   23408768.9074
        -0.000          -0.000
 97  3 13 21 33 29.9990000  0  6 27  2 26  4  7  9                  -0.000017020
   2385067.055 9   1845754.75046  22996928.815    22996928.6474   22996934.9674
        -0.000          -0.000
      6485.019 9     12307.81748  21471695.001    21471694.4954   21471700.0194
        -0.000          -0.000
    666040.951 9    516076.29047  23283623.851    23283624.1324   23283629.9404
        -0.000          -0.000
  -3536720.859 9  -2735007.63047  22438494.464    22438494.6234   22438500.1644
        -0.000          -0.000
     16617.411 9     14215.87849  20413410.975    20413410.4704   20413415.8394
        -0.000          -0.000
  -3318481.971 9  -2287809.31746  23387249.709    23387249.8344   23387255.6004
        -0.000          -0.000
 97  3 13 21 33 59.9990000  0  6 27  2 26  4  7  9                  -0.000030665
   2471167.988 9   1912846.31646  23013313.365    23013313.1344   23013319.5034
        -0.000          -0.000
     11061.469 9     15873.87648  21472565.890    21472565.3524   21472570.9044
        -0.000          -0.000
    695552.889 9    539072.57147  23289239.729    23289240.0054   23289245.9844
        -0.000          -0.000
  -3652005.999 9  -2824840.15247  22416556.305    22416556.4814   22416562.1124
        -0.000          -0.000
     23891.427 9     19883.94649  20414795.228    20414794.7324   20414800.0864
        -0.000          -0.000
  -3431240.686 9  -2375673.20646  23365792.662    23365792.6184   23365798.3424
        -0.000          -0.000
 97  3 13 21 34 29.9990000  0  6 27  2 26  4  7  9                  -0.000044236
   2557616.705 9   1980208.90346  23029764.046    23029763.8464   23029770.2634
        -0.000          -0.000
     15957.243 9     19688.75648  21473497.514    21473496.9974   21473502.5864
        -0.000          -0.000
    725484.526 9    562395.90747  23294935.501    23294935.8014   23294941.8334
        -0.000          -0.000
  -3766941.855 9  -2914400.51847  22394684.589    22394684.8234   22394690.4774
        -0.000          -0.000
     31614.413 9     25901.86649  20416264.879    20416264.3644   20416269.7274
        -0.000          -0.000
  -3543678.175 9  -2463286.79946  23344396.726    23344396.5304   23344402.2274
        -0.000          -0.000
 97  3 13 21 34 59.9990000  0  6 27  2 26  4  7  9                  -0.000057738
   2644402.002 9   2047833.75946  23046278.781    23046278.5734   23046285.0194
        -0.000          -0.000
     21147.093 9     23732.79148  21474485.128    21474484.6144   21474490.2214
        -0.000          -0.000
    755815.041 9    586030.04647  23300707.283    23300707.5264   23300713.4854
        -0.000          -0.000
  -3881528.610 9  -3003688.85147  22372879.436    22372879.6674   22372885.3644
        -0.000          -0.000
     39755.221 9     32245.35849  20417814.011    20417813.5024   20417818.8874
        -0.000          -0.000
  -3655813.779 9  -2550665.16046  23323057.991    23323057.7834   23323063.4454
        -0.000          -0.000
 97  3 13 21 35 29.9990000  0  6 27  2 26  4  7  9                  -0.000071174
   2731527.114 9   2115723.39946  23062858.228    23062858.0254   23062864.4714
        -0.000          -0.000
     26629.620 9     28004.88648  21475528.415    21475527.9314   21475533.5054
        -0.000          -0.000
    786538.037 9    609970.02447  23306553.776    23306554.0184   23306559.8944
        -0.000          -0.000
  -3995745.147 9  -3092688.69747  22351144.729    22351144.9144   22351150.6724
        -0.000          -0.000
     48311.779 9     38912.81449  20419442.284    20419441.7954   20419447.1444
        -0.000          -0.000
  -3767653.755 9  -2637813.16446  23301775.309    23301775.2074   23301780.8604
        -0.000          -0.000
 97  3 13 21 35 59.9990000  0  6 27  2 26  4  7  9                  -0.000084526
   2818993.072 9   2183878.63846  23079502.614    23079502.3824   23079508.7394
        -0.000          -0.000
     32410.013 9     32509.06848  21476628.502    21476627.9904   21476633.4934
        -0.000          -0.000
    817668.927 9    634227.81446  23312477.806    23312478.0574   23312483.9234
        -0.000          -0.000
  -4109580.662 9  -3181391.65047  22329482.479    22329482.7414   22329488.4694
        -0.000          -0.000
     57277.484 9     45899.08049  20421148.397    20421147.9044   20421153.3134
        -0.000          -0.000
  -3879173.204 9  -2724711.40846  23280553.930    23280553.7994   23280559.3524
        -0.000          -0.000
 97  3 13 21 36 29.9990000  0  6 27  2 26  4  7  9                  -0.000097786
   2906803.554 9   2252302.32546  23096212.502    23096212.2064   23096218.5804
        -0.000          -0.000
     38490.690 9     37247.24648  21477785.664    21477785.1294   21477790.6204
        -0.000          -0.000
    849226.049 9    658817.77246  23318483.044    23318483.2804   23318489.1244
        -0.000          -0.000
  -4223027.758 9  -3269791.92047  22307894.229    22307894.5064   22307900.2134
        -0.000          -0.000
     66642.545 9     53196.53149  20422930.508    20422930.0604   20422935.4014
        -0.000          -0.000
  -3990363.458 9  -2811353.12446  23259394.991    23259394.8954   23259400.5254
        -0.000          -0.000
 97  3 13 21 36 59.9990000  0  6 27  2 26  4  7  9                  -0.000110972
   2994939.158 9   2320979.35046  23112984.186    23112983.9444   23112990.4734
        -0.000          -0.000
     44869.977 9     42218.11548  21478999.547    21478999.0684   21479004.5664
        -0.000          -0.000
    881214.554 9    683743.86046  23324570.291    23324570.5854   23324576.3204
        -0.000          -0.000
  -4336095.027 9  -3357896.22947  22286378.245    22286378.5014   22286384.2004
        -0.000          -0.000
     76391.405 9     60793.05549  20424785.717    20424785.2454   20424790.5604
        -0.000          -0.000
  -4101245.818 9  -2897754.93846  23238294.834    23238294.7434   23238300.2974
        -0.000          -0.000
 97  3 13 21 37 29.9990000  0  6 27  2 26  4  7  9                  -0.000124096
   3083388.138 9   2389900.57146  23129815.428    23129815.2724   23129821.8234
        -0.000          -0.000
     51559.387 9     47430.63748  21480272.488    21480272.0274   21480277.5534
        -0.000          -0.000
    913632.161 9    709004.31346  23330739.275    23330739.4264   23330745.1984
        -0.000          -0.000
  -4448784.400 9  -3445706.08747  22264934.193    22264934.4174   22264940.0344
        -0.000          -0.000
     86532.144 9     68694.93549  20426715.492    20426714.9994   20426720.3054
        -0.000          -0.000
  -4211820.844 9  -2983917.25446  23217253.179    23217253.0404   23217258.5664
        -0.000          -0.000
 97  3 13 21 37 59.9990000  0  6 27  2 26  4  7  9                  -0.000137151
   3172158.857 9   2459072.48946  23146707.882    23146707.8284   23146714.4114
        -0.000          -0.000
     58565.089 9     52889.62048  21481605.615    21481605.1944   21481610.7764
        -0.000          -0.000
    946484.355 9    734603.39046  23336990.597    23336990.8984   23336996.7764
        -0.000          -0.000
  -4561096.013 9  -3533221.57747  22243562.000    22243562.2824   22243567.8434
        -0.000          -0.000
     97075.865 9     76910.82849  20428721.862    20428721.3704   20428726.6684
        -0.000          -0.000
  -4322076.351 9  -3069830.62146  23196272.204    23196272.0254   23196277.5224
        -0.000          -0.000
 97  3 13 21 38 29.9990000  0  6 27  2 26  4  7  9                  -0.000150155
   3261259.436 9   2528501.45446  23163663.242    23163663.1204   23163669.7404
        -0.000          -0.000
     65900.756 9     58605.71348  21483001.611    21483001.1584   21483006.6974
        -0.000          -0.000
    979760.620 9    760532.92746  23343322.802    23343323.1434   23343329.0784
        -0.000          -0.000
  -4673012.087 9  -3620428.84847  22222265.091    22222265.3364   22222270.8884
        -0.000          -0.000
    108060.018 9     85469.91649  20430812.107    20430811.6234   20430816.8954
        -0.000          -0.000
  -4432015.061 9  -3155497.11046  23175351.610    23175351.3684   23175356.8304
        -0.000          -0.000
 97  3 13 21 38 59.9990000  0  6 27  2 26  4  7  9                  -0.000163117
   3350674.746 9   2598175.65546  23180678.570    23180678.3604   23180685.0474
        -0.000          -0.000
     73568.377 9     64580.47448  21484460.697    21484460.2784   21484465.8334
        -0.000          -0.000
   1013446.588 9    786781.70146  23349733.089    23349733.4154   23349739.4704
        -0.000          -0.000
  -4784522.130 9  -3707319.72647  22201045.378    22201045.6364   22201051.1804
        -0.000          -0.000
    119489.956 9     94376.36249  20432987.208    20432986.6884   20432992.0014
        -0.000          -0.000
  -4541632.802 9  -3240913.49046  23154492.012    23154491.8094   23154497.2994
        -0.000          -0.000
 97  3 13 21 39 29.9990000  0  6 27  2 26  4  7  9                  -0.000176037
   3440403.763 9   2668094.29746  23197753.461    23197753.3294   23197759.9534
        -0.000          -0.000
     81552.046 9     70801.50848  21485980.017    21485979.5464   21485985.1114
        -0.000          -0.000
   1047534.708 9    813343.85646  23356220.012    23356220.2554   23356226.2654
        -0.000          -0.000
  -4895627.592 9  -3793895.35747  22179902.650    22179902.8934   22179908.4354
        -0.000          -0.000
    131363.759 9    103628.67649  20435246.682    20435246.1734   20435251.5174
        -0.000          -0.000
  -4650922.059 9  -3326073.89946  23133694.645    23133694.6564   23133700.2694
        -0.000          -0.000
 97  3 13 21 39 59.9990000  0  6 27  2 26  4  7  9                  -0.000188915
   3530433.811 9   2738247.51046  23214885.749    23214885.5594   23214892.2474
        -0.000          -0.000
     89846.865 9     77265.00248  21487558.485    21487557.9634   21487563.5444
        -0.000          -0.000
   1082006.470 9    840204.93046  23362779.847    23362780.0644   23362786.1584
        -0.000          -0.000
  -5006342.956 9  -3880167.00847  22158834.165    22158834.4484   22158840.0264
        -0.000          -0.000
    143677.505 9    113223.80549  20437589.911    20437589.3814   20437594.7424
        -0.000          -0.000
  -4759880.641 9  -3410976.65146  23112960.414    23112960.5804   23112966.2094
        -0.000          -0.000
 97  3 13 21 40 29.9990000  0  6 27  2 26  4  7  9                  -0.000201749
   3620751.875 9   2808625.14646  23232072.898    23232072.6514   23232079.2584
        -0.000          -0.000
     98463.872 9     83979.54748  21489198.306    21489197.7784   21489203.3804
        -0.000          -0.000
   1116866.215 9    867368.35646  23369413.305    23369413.5524   23369419.8324
        -0.000          -0.000
  -5116668.760 9  -3966135.11347  22137839.789    22137840.1324   22137845.6444
        -0.000          -0.000
    156422.696 9    123155.12449  20440015.223    20440014.7124   20440020.0914
        -0.000          -0.000
  -4868503.420 9  -3495617.73246  23092290.273    23092290.3104   23092295.9264
        -0.000          -0.000
 97  3 13 21 40 59.9990000  0  6 27  2 26  4  7  9                  -0.000214539
   3711345.150 9   2879217.23846  23249312.165    23249311.9074   23249318.6184
        -0.000          -0.000
    107372.818 9     90921.57048  21490893.678    21490893.1344   21490898.7124
        -0.000          -0.000
   1152116.418 9    894836.02246  23376121.171    23376121.4984   23376127.8274
        -0.000          -0.000
  -5226624.077 9  -4051814.52147  22116915.974    22116916.3074   22116921.7874
        -0.000          -0.000
    169561.943 9    133393.49549  20442515.519    20442515.0114   20442520.4134
        -0.000          -0.000
  -4976797.230 9  -3580002.48647  23071682.722    23071682.7174   23071688.2804
        -0.000          -0.000
 97  3 13 21 41 29.9990000  0  6 27  2 26  4  7  9                  -0.000227284
   3802215.484 9   2950025.24546  23266604.377    23266604.0354   23266610.7484
        -0.000          -0.000
    116566.791 9     98085.70048  21492643.174    21492642.6934   21492648.2594
        -0.000          -0.000
   1187765.669 9    922614.63246  23382905.126    23382905.3914   23382911.5304
        -0.000          -0.000
  -5336217.395 9  -4137211.84847  22096061.108    22096061.4254   22096066.8764
        -0.000          -0.000
    183099.994 9    143942.62849  20445091.774    20445091.2484   20445096.6474
        -0.000          -0.000
  -5084760.406 9  -3664129.60746  23051137.960    23051137.9794   23051143.5644
        -0.000          -0.000
 97  3 13 21 41 59.9990000  0  6 27  2 26  4  7  9                  -0.000239971
   3893368.683 9   3021053.62546  23283950.387    23283950.0374   23283956.7744
        -0.000          -0.000
    126052.274 9    105476.97548  21494448.201    21494447.7244   21494453.3064
        -0.000          -0.000
   1223808.498 9    950699.91746  23389763.752    23389764.0534   23389770.2414
        -0.000          -0.000
  -5445436.224 9  -4222317.35847  22075277.476    22075277.7834   22075283.1074
        -0.000          -0.000
    197031.019 9    154797.96649  20447742.803    20447742.2724   20447747.6684
        -0.000          -0.000
  -5192380.483 9  -3747989.36846  23030658.372    23030658.4574   23030664.0674
        -0.000          -0.000
 97  3 13 21 42 29.9990000  0  7 27  2 26 24  4  7  9               -0.000252448
   3984838.893 9   3092329.05746  23301356.695    23301356.3064   23301363.1084
        -0.000          -0.000
    135827.065 9    113093.68748  21496308.291    21496307.8164   21496313.4644
        -0.000          -0.000
   1260263.843 9    979106.64446  23396701.162    23396701.4204   23396707.5484
        -0.000          -0.000
  -3039378.55418  -1100773.04255  24475995.940    24475996.0005   24476005.4695
        -0.000          -0.000
  -5554254.378 9  -4307110.67547  22054570.023    22054570.3494   22054575.5584
        -0.000          -0.000
    211346.703 9    165953.04349  20450467.054    20450466.5274   20450471.8494
        -0.000          -0.000
  -5299642.702 9  -3831570.28647  23010247.102    23010247.1584   23010252.7264
        -0.000          -0.000
 97  3 13 21 42 59.9990000  0  7 27  2 26 24  4  7  9               -0.000264966
   4076632.985 9   3163856.84846  23318824.500    23318824.2244   23318830.9324
        -0.000          -0.000
    145891.671 9    120936.22348  21498223.549    21498223.1004   21498228.7424
        -0.000          -0.000
   1297124.366 9   1007829.09846  23403715.413    23403715.7254   23403721.8434
        -0.000          -0.000
  -3167946.104 8  -1200955.33745  24451530.133    24451530.2094   24451539.6624
        -0.000          -0.000
  -5662665.095 9  -4391586.48447  22033940.120    22033940.4114   22033945.6874
        -0.000          -0.000
    226052.940 9    177412.44249  20453265.578    20453265.0394   20453270.3404
        -0.000          -0.000
  -5406536.849 9  -3914864.40747  22989905.839    22989905.8794   22989911.3574
        -0.000          -0.000
 97  3 13 21 43 29.9990000  0  7 27  2 26 24  4  7  9               -0.000277394
   4168745.367 9   3235632.65446  23336352.875    23336352.5294   23336359.4144
        -0.000          -0.000
    156261.864 9    129016.88448  21500196.917    21500196.4644   21500202.0934
        -0.000          -0.000
   1334363.724 9   1036846.75646  23410801.977    23410802.2684   23410808.2894
        -0.000          -0.000
  -3296454.732 8  -1301091.70845  24427075.549    24427075.6574   24427085.0034
        -0.000          -0.000
  -5770682.713 9  -4475755.99247  22013384.928    22013385.2114   22013390.5224
        -0.000          -0.000
    241150.370 9    189176.66649  20456138.425    20456137.9104   20456143.2314
        -0.000          -0.000
  -5513056.488 9  -3997866.68147  22969635.881    22969635.8624   22969641.3304
        -0.000          -0.000
 97  3 13 21 43 59.9990000  0  7 27  2 26 24  4  7  9               -0.000289720
   4261184.446 9   3307663.01546  23353943.280    23353943.1124   23353950.0574
        -0.000          -0.000
    166955.267 9    137349.39048  21502231.837    21502231.3754   21502236.9814
        -0.000          -0.000
   1371990.850 9   1066166.56746  23417962.138    23417962.4524   23417968.4894
        -0.000          -0.000
  -3424899.122 8  -1401178.05245  24402633.365    24402633.5184   24402642.6314
        -0.000          -0.000
  -5878296.250 9  -4559610.63747  21992906.649    21992906.9474   21992912.3524
        -0.000          -0.000
    256634.886 9    201242.52149  20459085.029    20459084.5204   20459089.8224
        -0.000          -0.000
  -5619189.217 9  -4080567.46647  22949439.527    22949439.4844   22949444.9804
        -0.000          -0.000
 97  3 13 21 44 29.9990000  0  7 27  2 26 24  4  7  9               -0.000301960
   4353921.306 9   3379925.44746  23371590.643    23371590.4844   23371597.3604
        -0.000          -0.000
    177970.324 9    145932.54048  21504328.004    21504327.4944   21504333.0674
        -0.000          -0.000
   1410015.515 9   1095796.16546  23425197.983    23425198.3234   23425204.3724
        -0.000          -0.000
  -3553272.683 8  -1501209.20845  24378204.468    24378204.5524   24378213.7814
        -0.000          -0.000
  -5985518.190 9  -4643160.14347  21972503.031    21972503.2734   21972508.5924
        -0.000          -0.000
    272502.660 9    213607.02049  20462104.541    20462104.0304   20462109.3224
        -0.000          -0.000
  -5724951.584 9  -4162979.66047  22929313.672    22929313.5874   22929319.0974
        -0.000          -0.000
 97  3 13 21 44 59.9990000  0  7 27  2 26 24  4  7  9               -0.000314136
   4446917.581 9   3452389.99046  23389287.286    23389287.1344   23389294.0704
        -0.000          -0.000
    189314.059 9    154771.80448  21506486.644    21506486.1694   21506491.6834
        -0.000          -0.000
   1448423.366 9   1125724.32246  23432506.783    23432507.0734   23432513.1684
        -0.000          -0.000
  -3681564.817 8  -1601176.83545  24353791.065    24353790.9814   24353800.2264
        -0.000          -0.000
  -6092352.408 9  -4726407.53547  21952173.199    21952173.4364   21952178.7044
        -0.000          -0.000
    288759.792 9    226274.91149  20465198.162    20465197.6684   20465202.9734
        -0.000          -0.000
  -5830363.166 9  -4245118.51547  22909254.557    22909254.4434   22909259.9034
        -0.000          -0.000
 97  3 13 21 45 29.9990000  0  7 27  2 26 24  4  7  9               -0.000326266
   4540162.786 8   3525048.49946  23407031.234    23407031.0204   23407038.0654
        -0.000          -0.000
    200976.716 9    163859.58148  21508705.991    21508705.4834   21508711.0234
        -0.000          -0.000
   1487216.657 9   1155952.84146  23439888.885    23439889.1624   23439895.2274
        -0.000          -0.000
  -3809780.803 8  -1701085.18145  24329392.162    24329392.2134   24329401.3634
        -0.000          -0.000
  -6198785.902 9  -4809342.67247  21931919.548    21931919.7884   21931925.0834
        -0.000          -0.000
    305399.896 9    239241.22549  20468364.739    20468364.2464   20468369.5344
        -0.000          -0.000
  -5935431.655 9  -4326990.03647  22889260.642    22889260.5744   22889265.9824
        -0.000          -0.000
 97  3 13 21 45 59.9990000  0  7 27  2 26 24  4  7  9               -0.000338365
   4633659.084 9   3597902.66446  23424822.943    23424822.8624   23424829.9124
        -0.000          -0.000
    212967.670 9    173203.16948  21510987.783    21510987.2834   21510992.8434
        -0.000          -0.000
   1526404.160 9   1186488.53246  23447346.080    23447346.3204   23447352.3854
        -0.000          -0.000
  -3937903.975 9  -1800921.26245  24305011.384    24305011.2304   24305019.9774
        -0.000          -0.000
  -6304781.485 9  -4891936.57747  21911749.148    21911749.4324   21911754.7514
        -0.000          -0.000
    322426.522 9    252508.72549  20471604.886    20471604.3834   20471609.6244
        -0.000          -0.000
  -6040162.595 9  -4408598.53747  22869330.913    22869330.9224   22869336.2084
        -0.000          -0.000
 97  3 13 21 46 29.9990000  0  7 27  2 26 24  4  7  9               -0.000350441
   4727406.067 9   3670952.15646  23442662.487    23442662.4324   23442669.4934
        -0.000          -0.000
    225287.120 9    182802.72648  21513332.131    21513331.6204   21513337.1514
        -0.000          -0.000
   1565958.389 9   1217309.99146  23454873.067    23454873.2994   23454879.2714
        -0.000          -0.000
  -4065924.085 8  -1900677.00945  24280649.982    24280649.8864   24280658.4504
        -0.000          -0.000
  -6410325.793 9  -4974178.84147  21891664.760    21891665.0164   21891670.3484
        -0.000          -0.000
    339851.020 9    266086.24949  20474920.666    20474920.1384   20474925.4184
        -0.000          -0.000
  -6144564.021 9  -4489950.26647  22849463.920    22849463.9654   22849469.2104
        -0.000          -0.000
 97  3 13 21 46 59.9990000  0  7 27  2 26 24  4  7  9               -0.000362490
   4821417.294 9   3744207.56946  23460552.426    23460552.2974   23460559.2774
        -0.000          -0.000
    237937.131 9    192659.86748  21515739.405    21515738.8844   21515744.4494
        -0.000          -0.000
   1605854.582 9   1248397.90446  23462465.128    23462465.3534   23462471.3164
        -0.000          -0.000
  -4193855.417 8  -2000363.59945  24256305.205    24256305.2194   24256313.8424
        -0.000          -0.000
  -6515404.613 9  -5056058.39147  21871668.869    21871669.1184   21871674.4654
        -0.000          -0.000
    357674.181 9    279974.42749  20478312.298    20478311.7804   20478317.1034
        -0.000          -0.000
  -6248627.886 9  -4571038.95247  22829661.227    22829661.2454   22829666.5334
        -0.000          -0.000
 97  3 13 21 47 29.9990000  0  7 27  2 26 24  4  7  9               -0.000374487
   4915724.519 9   3817693.63546  23478498.622    23478498.4444   23478505.4064
        -0.000          -0.000
    250916.103 9    202773.34248  21518209.215    21518208.7544   21518214.3064
        -0.000          -0.000
   1646108.502 9   1279764.55346  23470125.191    23470125.4504   23470131.3744
        -0.000          -0.000
  -4321687.571 8  -2099972.87345  24231979.462    24231979.4104   24231988.1914
        -0.000          -0.000
  -6620018.297 9  -5137575.50747  21851761.515    21851761.7804   21851767.1214
        -0.000          -0.000
    375895.312 9    294172.71349  20481779.640    20481779.1594   20481784.4594
        -0.000          -0.000
  -6352329.686 9  -4651845.52647  22809927.389    22809927.4264   22809932.7784
        -0.000          -0.000
 97  3 13 21 47 59.9990000  0  7 27  2 26 24  4  7  9               -0.000386418
   5010326.070 9   3891409.05046  23496500.818    23496500.6714   23496507.5154
        -0.000          -0.000
    264229.021 9    213147.03848  21520742.513    21520742.0804   21520747.7334
        -0.000          -0.000
   1686714.809 9   1311405.80246  23477852.351    23477852.6014   23477858.4664
        -0.000          -0.000
  -4449409.465 8  -2199496.25145  24207674.679    24207674.6064   24207683.4624
        -0.000          -0.000
  -6724184.667 9  -5218744.06047  21831939.302    21831939.5434   21831944.8564
        -0.000          -0.000
    394506.155 9    308674.67049  20485321.199    20485320.6984   20485326.0004
        -0.000          -0.000
  -6455672.558 9  -4732372.40147  22790261.774    22790261.8214   22790267.2274
        -0.000          -0.000
 97  3 13 21 48 29.9990000  0  7 27  2 26 24  4  7  9               -0.000398269
   5105217.004 9   3965349.96046  23514558.165    23514557.9904   23514564.7864
        -0.000          -0.000
    277864.704 9    223772.23648  21523337.368    21523336.8844   21523342.5314
        -0.000          -0.000
   1727680.971 9   1343327.44146  23485648.007    23485648.2944   23485654.2314
        -0.000          -0.000
  -4577014.618 8  -2298928.67545  24183392.068    24183392.0774   24183400.9344
        -0.000          -0.000
  -6827924.103 9  -5299579.93847  21812198.167    21812198.4994   21812203.7974
        -0.000          -0.000
    413508.095 9    323481.37849  20488937.160    20488936.6744   20488941.9594
        -0.000          -0.000
  -6558641.893 9  -4812608.21747  22770667.352    22770667.3754   22770672.7874
        -0.000          -0.000
 97  3 13 21 48 59.9990000  0  7 27  2 26 24  4  7  9               -0.000410031
   5200394.522 9   4039514.17446  23532669.999    23532669.7424   23532676.6044
        -0.000          -0.000
    291825.164 9    234650.49748  21525994.035    21525993.5254   21525999.1234
        -0.000          -0.000
   1769023.190 9   1375542.13046  23493515.194    23493515.4684   23493521.5434
        -0.000          -0.000
  -4704502.715 8  -2398269.88845  24159131.684    24159131.6714   24159140.4984
        -0.000          -0.000
  -6931241.582 9  -5380087.03447  21792537.564    21792537.8704   21792543.0754
        -0.000          -0.000
    432893.026 9    338586.51449  20492626.021    20492625.5304   20492630.7894
        -0.000          -0.000
  -6661219.431 9  -4892538.73347  22751147.580    22751147.5494   22751152.9924
        -0.000          -0.000
 97  3 13 21 49 29.9990000  0  7 27  2 26 24  4  7  9               -0.000421698
   5295851.249 9   4113895.93646  23550834.853    23550834.6474   23550841.5554
        -0.000          -0.000
    306118.794 9    245788.37848  21528713.969    21528713.5024   21528719.1324
        -0.000          -0.000
   1810742.856 9   1408050.92146  23501454.018    23501454.3524   23501460.5214
        -0.000          -0.000
  -4831864.095 8  -2497512.41145  24134895.566    24134895.5404   24134904.2744
        -0.000          -0.000
  -7034148.423 9  -5460274.13847  21772955.063    21772955.3374   21772960.5004
        -0.000          -0.000
    452664.292 9    353992.69249  20496388.387    20496387.8764   20496393.1274
        -0.000          -0.000
  -6763405.277 9  -4972164.05647  22731702.393    22731702.3104   22731707.6334
        -0.000          -0.000
 97  3 13 21 49 59.9990000  0  7 27  2 26 24  4  7  9               -0.000433284
   5391568.782 9   4188480.94146  23569049.337    23569049.2174   23569056.0984
        -0.000          -0.000
    320759.091 9    257196.39148  21531499.895    21531499.4334   21531505.0744
        -0.000          -0.000
   1852825.416 9   1440842.49546  23509462.139    23509462.4674   23509468.6304
        -0.000          -0.000
  -4959104.813 8  -2596660.95445  24110682.500    24110682.4524   24110691.0304
        -0.000          -0.000
  -7136631.061 9  -5540130.70048  21753453.215    21753453.4984   21753458.6234
        -0.000          -0.000
    472828.035 9    369704.69949  20500225.399    20500224.9104   20500230.1754
        -0.000          -0.000
  -6865202.677 9  -5051486.65847  22712330.860    22712330.8804   22712336.1744
        -0.000          -0.000
 97  3 13 21 50 29.9990000  0  7 27  2 26 24  4  7  9               -0.000444798
   5487542.799 9   4263265.81646  23587312.613    23587312.5734   23587319.3754
        -0.000          -0.000
    335736.276 9    268866.91648  21534349.944    21534349.5004   21534355.1554
        -0.000          -0.000
   1895255.509 9   1473904.89046  23517536.332    23517536.6884   23517542.8084
        -0.000          -0.000
  -5086237.619 8  -2695725.40245  24086489.651    24086489.6314   24086498.0974
        -0.000          -0.000
  -7238667.189 9  -5619639.33248  21734036.430    21734036.6904   21734041.8044
        -0.000          -0.000
    493375.687 9    385715.85149  20504135.518    20504135.0334   20504140.3004
        -0.000          -0.000
  -6966602.181 9  -5130499.24247  22693035.237    22693035.2584   22693040.5084
        -0.000          -0.000
 97  3 13 21 50 59.9990000  0  7 27  2 26 24  4  7  9               -0.000456261
   5583753.630 8   4338235.20445  23605620.989    23605620.8994   23605627.8534
        -0.000          -0.000
    351036.730 9    280789.33448  21537261.548    21537261.0754   21537266.8384
        -0.000          -0.000
   1938016.703 9   1507225.26646  23525673.748    23525673.9844   23525680.1054
        -0.000          -0.000
  -5213275.612 9  -2794715.95045  24062315.026    24062315.1364   24062323.3664
        -0.000          -0.000
  -7340251.995 9  -5698796.28748  21714705.490    21714705.7024   21714710.8124
        -0.000          -0.000
    514288.562 9    402011.59549  20508115.174    20508114.6684   20508119.9314
        -0.000          -0.000
  -7067621.054 9  -5209215.22047  22673812.132    22673812.0364   22673817.1724
        -0.000          -0.000
 97  3 13 21 51 29.9990000  0  7 27  2 26 24  4  7  9               -0.000467680
   5680201.261 8   4413389.06445  23623974.353    23623974.2234   23623981.3974
        -0.000          -0.000
    366669.771 9    292970.91148  21540236.362    21540235.9454   21540241.7514
        -0.000          -0.000
   1981122.643 9   1540814.28746  23533876.646    23533876.8474   23533882.9904
        -0.000          -0.000
  -5340199.575 9  -2893617.64945  24038162.291    24038162.4164   24038170.5414
        -0.000          -0.000
  -7441361.231 9  -5777582.66748  21695464.915    21695465.1824   21695470.3534
        -0.000          -0.000
    535569.666 9    418594.26649  20512164.827    20512164.2944   20512169.5594
        -0.000          -0.000
  -7168252.363 9  -5287629.19147  22654662.638    22654662.5234   22654667.6804
        -0.000          -0.000
 97  3 13 21 51 59.9990000  0  7 27  2 26 24  4  7  9               -0.000479056
   5776893.442 8   4488733.51045  23642374.274    23642374.2454   23642381.3454
        -0.000          -0.000
    382625.242 9    305403.73648  21543272.651    21543272.2234   21543277.9974
        -0.000          -0.000
   2024584.994 9   1574681.01146  23542147.219    23542147.3314   23542153.6894
        -0.000          -0.000
  -5466981.833 9  -2992408.92445  24014036.492    24014036.5794   24014044.4964
        -0.000          -0.000
  -7541961.872 9  -5855972.73448  21676321.244    21676321.5154   21676326.6654
        -0.000          -0.000
    557224.424 9    435468.09949  20516285.571    20516285.0714   20516290.3354
        -0.000          -0.000
  -7268472.322 9  -5365722.64647  22635591.341    22635591.2874   22635596.4144
        -0.000          -0.000
 97  3 13 21 52 29.9990000  0  7 27  2 26 24  4  7  9               -0.000490393
   5873816.009 8   4564257.49145  23660818.163    23660817.9574   23660825.1604
        -0.000          -0.000
    398890.833 9    318078.21648  21546367.945    21546367.4904   21546373.2824
        -0.000          -0.000
   2068396.285 9   1608819.66046  23550484.209    23550484.4384   23550490.7854
        -0.000          -0.000
  -5593608.260 8  -3091078.78245  23989940.196    23989940.2214   23989948.2094
        -0.000          -0.000
  -7642059.771 9  -5933971.06248  21657273.185    21657273.4424   21657278.6184
        -0.000          -0.000
    579238.772 9    452622.13249  20520474.793    20520474.2714   20520479.5544
        -0.000          -0.000
  -7368285.236 9  -5443498.91947  22616597.518    22616597.5654   22616602.5834
        -0.000          -0.000
 97  3 13 21 52 59.9990000  0  7 27  2 26 24  4  7  9               -0.000501687
   5970964.730 9   4639957.68145  23679305.294    23679304.9184   23679312.1304
        -0.000          -0.000
    415476.573 9    331002.15648  21549524.088    21549523.6454   21549529.3984
        -0.000          -0.000
   2112561.333 9   1643233.94146  23558888.756    23558888.9404   23558895.1094
        -0.000          -0.000
  -5720064.479 8  -3189615.98245  23965876.357    23965876.3394   23965884.3384
        -0.000          -0.000
  -7741670.554 9  -6011589.80948  21638317.857    21638318.1244   21638323.3554
        -0.000          -0.000
    601619.047 9    470061.30149  20524733.637    20524733.1234   20524738.4124
        -0.000          -0.000
  -7467698.895 9  -5520964.08347  22597679.843    22597679.8224   22597684.8534
        -0.000          -0.000
 97  3 13 21 53 29.9990000  0  7 27  2 26 24  4  7  9               -0.000512928
   6068344.388 9   4715837.84445  23697836.368    23697835.9394   23697842.9114
        -0.000          -0.000
    432376.329 9    344170.79148  21552740.143    21552739.6784   21552745.3404
        -0.000          -0.000
   2157065.006 9   1677912.10746  23567357.458    23567357.6984   23567363.8434
        -0.000          -0.000
  -5846358.349 9  -3288026.65245  23941843.346    23941843.2274   23941851.2914
        -0.000          -0.000
  -7840809.433 9  -6088840.84448  21619452.332    21619452.5954   21619457.8184
        -0.000          -0.000
    624363.644 9    487784.35849  20529061.795    20529061.2964   20529066.5464
        -0.000          -0.000
  -7566708.698 9  -5598114.53947  22578838.827    22578838.7554   22578843.9334
        -0.000          -0.000
 97  3 13 21 53 59.9990000  0  7 27  2 26 24  4  7  9               -0.000524106
   6165961.927 9   4791903.33246  23716412.495    23716411.9804   23716419.1254
        -0.000          -0.000
    449578.117 9    357574.76848  21556013.598    21556013.1334   21556018.7274
        -0.000          -0.000
   2201883.598 9   1712835.65046  23575886.028    23575886.3544   23575892.4674
        -0.000          -0.000
  -5972515.884 9  -3386331.08045  23917836.254    23917836.2374   23917844.3384
        -0.000          -0.000
  -7939503.685 9  -6165745.41348  21600671.425    21600671.6764   21600676.9364
        -0.000          -0.000
    647462.392 9    505783.37949  20533457.408    20533456.8744   20533462.1064
        -0.000          -0.000
  -7665322.555 9  -5674956.46947  22560073.110    22560073.0874   22560078.3544
        -0.000          -0.000
 97  3 13 21 54 29.9990000  0  7 27  2 26 24  4  7  9               -0.000535203
   6263824.328 9   4868159.63046  23735035.111    23735034.6574   23735041.8854
        -0.000          -0.000
    467107.486 9    371234.00748  21559349.337    21559348.8634   21559354.3684
        -0.000          -0.000
   2247014.285 9   1748002.38846  23584474.161    23584474.5184   23584480.5334
        -0.000          -0.000
  -6098566.356 9  -3484552.07945  23893849.449    23893849.5624   23893857.5934
        -0.000          -0.000
  -8037764.351 9  -6242312.13048  21581973.019    21581973.2814   21581978.5084
        -0.000          -0.000
    670903.939 9    524049.51649  20537918.136    20537917.6254   20537922.8204
        -0.000          -0.000
  -7763540.624 9  -5751490.00447  22541382.802    22541382.7954   22541388.1174
        -0.000          -0.000
 97  3 13 21 54 59.9990000  0  7 27  2 26 24  4  7  9               -0.000546207
   6361947.502 9   4944619.14246  23753707.402    23753707.0814   23753714.1984
        -0.000          -0.000
    484962.474 9    385146.97348  21562747.038    21562746.5614   21562752.0974
        -0.000          -0.000
   2292453.922 9   1783409.86446  23593120.931    23593121.3214   23593127.4724
        -0.000          -0.000
  -6224526.230 9  -3582702.50145  23869880.084    23869880.0864   23869888.1694
        -0.000          -0.000
  -8135588.652 9  -6318538.81348  21563357.704    21563357.9484   21563363.1854
        -0.000          -0.000
    694690.164 9    542584.23649  20542444.536    20542444.0224   20542449.2154
        -0.000          -0.000
  -7861354.656 9  -5827708.71547  22522769.508    22522769.3914   22522774.7264
        -0.000          -0.000
 97  3 13 21 55 29.9990000  0  7 27  2 26 24  4  7  9               -0.000557112
   6460345.475 9   5021292.76846  23772432.114    23772431.6984   23772438.9244
        -0.000          -0.000
    503146.623 9    399316.42148  21566207.352    21566206.9054   21566212.4664
        -0.000          -0.000
   2338205.762 9   1819060.61646  23601827.325    23601827.6254   23601833.8504
        -0.000          -0.000
  -6350396.007 9  -3680782.71445  23845927.849    23845927.8784   23845935.8014
        -0.000          -0.000
  -8232960.589 9  -6394413.01948  21544828.345    21544828.6354   21544833.8484
        -0.000          -0.000
    718825.241 9    561390.78749  20547037.344    20547036.8024   20547042.0194
        -0.000          -0.000
  -7958751.505 9  -5903602.34447  22504235.479    22504235.4024   22504240.5894
        -0.000          -0.000
 97  3 13 21 55 59.9990000  0  7 27  2 26 24  4  7  9               -0.000567926
   6559010.805 9   5098174.71446  23791207.664    23791207.2004   23791214.3594
        -0.000          -0.000
    521673.795 9    413753.16448  21569732.979    21569732.5254   21569738.0694
        -0.000          -0.000
   2384276.857 9   1854960.16746  23610594.648    23610594.8254   23610600.9034
        -0.000          -0.000
  -6476162.366 9  -3778782.32345  23821995.335    23821995.2554   23822003.0184
        -0.000          -0.000
  -8329861.009 9  -6469919.80048  21526388.800    21526389.0814   21526394.3204
        -0.000          -0.000
    743306.715 9    580467.25949  20551695.968    20551695.4274   20551700.6894
        -0.000          -0.000
  -8055733.026 9  -5979172.32947  22485780.418    22485780.3684   22485785.5754
        -0.000          -0.000
 97  3 13 21 56 29.9990000  0  7 27  2 26 24  4  7  9               -0.000578675
   6657919.810 9   5175246.54646  23810029.382    23810028.9604   23810036.2484
        -0.000          -0.000
    540537.490 9    428452.13448  21573322.655    21573322.1704   21573327.7514
        -0.000          -0.000
   2430671.359 9   1891111.69546  23619423.303    23619423.4734   23619429.5374
        -0.000          -0.000
  -6601801.486 9  -3876682.78845  23798086.858    23798086.7884   23798094.6324
        -0.000          -0.000
  -8426274.076 9  -6545046.83648  21508041.981    21508042.3024   21508047.4524
        -0.000          -0.000
    768139.870 9    599817.76949  20556421.549    20556421.0364   20556426.2984
        -0.000          -0.000
  -8152305.022 9  -6054423.20147  22467403.488    22467403.3804   22467408.5154
        -0.000          -0.000
 97  3 13 21 56 59.9990000  0  7 27  2 26 24  4  7  9               -0.000589381
   6757044.913 9   5252486.76846  23828892.248    23828891.8314   23828899.2884
        -0.000          -0.000
    559706.894 9    443389.32448  21576970.414    21576969.9754   21576975.6504
        -0.000          -0.000
   2477383.931 9   1927511.04846  23628312.373    23628312.5004   23628318.7584
        -0.000          -0.000
  -6727297.366 9  -3974471.63346  23774205.405    23774205.4804   23774213.4274
        -0.000          -0.000
  -8522209.232 9  -6619801.47048  21489786.169    21489786.4304   21489791.5574
        -0.000          -0.000
    793330.517 9    619446.84149  20561215.205    20561214.6574   20561219.9054
        -0.000          -0.000
  -8248477.490 9  -6129362.76647  22449102.506    22449102.4004   22449107.4994
        -0.000          -0.000
 97  3 13 21 57 29.9990000  0  7 27  2 26 24  4  7  9               -0.000600040
   6856380.264 8   5329890.81445  23847794.938    23847794.7554   23847802.1564
        -0.000          -0.000
    579192.047 9    458572.54748  21580678.266    21580677.8484   21580683.5844
        -0.000          -0.000
   2524420.573 9   1964162.93746  23637262.984    23637263.1934   23637269.5844
        -0.000          -0.000
  -6852635.011 9  -4072137.21746  23750354.465    23750354.4124   23750362.3934
        -0.000          -0.000
  -8617659.455 9  -6694178.23548  21471622.535    21471622.7754   21471627.9184
        -0.000          -0.000
    818885.500 9    639359.81249  20566078.162    20566077.6314   20566082.8964
        -0.000          -0.000
  -8344235.297 9  -6203979.21147  22430880.370    22430880.3354   22430885.4474
        -0.000          -0.000
 97  3 13 21 57 59.9990000  0  7 27  2 26 24  4  7  9               -0.000610666
   6955893.417 8   5407433.42245  23866731.465    23866731.4854   23866738.8354
        -0.000          -0.000
    598989.945 9    473999.46348  21584445.749    21584445.2794   21584451.0184
        -0.000          -0.000
   2571768.027 9   2001057.00746  23646272.985    23646273.1854   23646279.6364
        -0.000          -0.000
  -6977822.234 9  -4169685.58646  23726532.233    23726532.0834   23726540.0534
        -0.000          -0.000
  -8712633.289 9  -6768183.79548  21453549.518    21453549.8074   21453554.8884
        -0.000          -0.000
    844797.201 9    659550.74649  20571009.040    20571008.5274   20571013.7564
        -0.000          -0.000
  -8439581.953 9  -6278275.26247  22412736.487    22412736.4254   22412741.5704
        -0.000          -0.000
 97  3 13 21 58 29.9990000  0  7 27  2 26 24  4  7  9               -0.000621257
   7055576.325 8   5485108.29145  23885700.431    23885700.4434   23885708.1104
        -0.000          -0.000
    619098.980 9    489668.82448  21588272.436    21588271.9504   21588277.6394
        -0.000          -0.000
   2619417.768 9   2038186.62846  23655340.612    23655340.7584   23655347.2414
        -0.000          -0.000
  -7102864.207 9  -4267120.78846  23702737.563    23702737.3374   23702745.2854
        -0.000          -0.000
  -8807138.163 9  -6841823.92948  21435565.795    21435566.1064   21435571.1604
        -0.000          -0.000
    871066.679 9    680020.47149  20576008.039    20576007.4964   20576012.6924
        -0.000          -0.000
  -8534509.196 9  -6352244.52147  22394672.394    22394672.3414   22394677.4854
        -0.000          -0.000
 97  3 13 21 58 59.9990000  0  7 27  2 26 24  4  7  9               -0.000631802
   7155434.212 8   5562919.50945  23904702.653    23904702.6394   23904710.4074
        -0.000          -0.000
    639532.041 9    505590.68048  21592160.743    21592160.2284   21592165.8564
        -0.000          -0.000
   2667352.420 9   2075538.27546  23664462.316    23664462.4934   23664468.9024
        -0.000          -0.000
  -7227772.530 9  -4364451.83645  23678968.155    23678967.8224   23678975.7914
        -0.000          -0.000
  -8901170.232 9  -6915095.64448  21417672.058    21417672.3844   21417677.4714
        -0.000          -0.000
    897678.501 9    700756.95749  20581072.079    20581071.5414   20581076.7474
        -0.000          -0.000
  -8629011.946 9  -6425883.00547  22376688.976    22376688.9914   22376694.1044
        -0.000          -0.000
 97  3 13 21 59 29.9990000  0  7 27  2 26 24  4  7  9               -0.000642298
   7255471.899 8   5640870.86645  23923739.390    23923739.3904   23923747.0654
        -0.000          -0.000
    660293.490 9    521768.41048  21596111.561    21596111.0334   21596116.6204
        -0.000          -0.000
   2715547.473 9   2113092.81146  23673633.602    23673633.7854   23673640.1224
        -0.000          -0.000
  -7352559.192 9  -4461688.07345  23655221.961    23655221.5714   23655229.3724
        -0.000          -0.000
  -8994728.089 9  -6987997.84148  21399868.601    21399868.9094   21399874.0194
        -0.000          -0.000
    924608.434 9    721741.31649  20586196.614    20586196.0834   20586201.2864
        -0.000          -0.000
  -8723105.321 9  -6499202.49747  22358783.563    22358783.5364   22358788.6714
        -0.000          -0.000
 97  3 13 21 59 59.9990000  0  7 27  2 26 24  4  7  9               -0.000652756
   7355690.916 8   5718963.48245  23942810.333    23942810.3584   23942818.2164
        -0.000          -0.000
    681389.289 9    538206.67948  21600125.937    21600125.4344   21600131.0674
        -0.000          -0.000
   2764003.581 9   2150850.75446  23682854.538    23682854.7314   23682861.0934
        -0.000          -0.000
  -7477211.946 9  -4558819.97446  23631500.978    23631500.7434   23631508.6784
        -0.000          -0.000
  -9087800.136 9  -7060521.49048  21382157.647    21382157.8804   21382162.9854
        -0.000          -0.000
    951855.442 9    742972.74849  20591381.529    20591381.0144   20591386.2374
        -0.000          -0.000
  -8816803.490 9  -6572214.03547  22340953.416    22340953.3504   22340958.4604
        -0.000          -0.000
 97  3 13 22  0 29.9990000  0  7 27  2 26 24  4  7  9               -0.000663165
   7456103.701 8   5797207.07145  23961918.463    23961918.3294   23961926.2114
        -0.000          -0.000
    702810.777 9    554898.72948  21604202.287    21604201.8324   21604207.4334
        -0.000          -0.000
   2812709.874 9   2188803.69246  23692123.056    23692123.2544   23692129.6274
        -0.000          -0.000
  -7601718.649 8  -4655838.07846  23607807.922    23607807.8554   23607815.7664
        -0.000          -0.000
  -9180390.762 9  -7132670.00848  21364538.166    21364538.4584   21364543.5564
        -0.000          -0.000
    979406.637 9    764441.20649  20596624.353    20596623.8344   20596629.0864
        -0.000          -0.000
  -8910118.843 9  -6644927.27647  22323196.177    22323196.0334   22323201.1254
        -0.000          -0.000
 97  3 13 22  0 59.9990000  0  7 27  2 26 24  4  7  9               -0.000673529
   7556721.581 8   5875610.50245  23981065.826    23981065.5534   23981073.5134
        -0.000          -0.000
    724554.556 9    571841.91548  21608340.036    21608339.5384   21608345.1834
        -0.000          -0.000
   2861660.626 9   2226947.09946  23701438.011    23701438.2464   23701444.6944
        -0.000          -0.000
  -7726068.777 8  -4752734.16646  23584144.836    23584144.8064   23584152.6504
        -0.000          -0.000
  -9272483.873 9  -7204430.84548  21347013.462    21347013.7204   21347018.8184
        -0.000          -0.000
   1007254.592 9    786140.91049  20601923.699    20601923.1554   20601928.3774
        -0.000          -0.000
  -9003054.830 9  -6717344.90747  22305511.072    22305510.9064   22305515.9684
        -0.000          -0.000
 97  3 13 22  1 29.9990000  0  7 27  2 26 24  4  7  9               -0.000683851
   7657545.135 8   5954174.24145  24000252.038    24000251.7404   24000259.6464
        -0.000          -0.000
    746621.852 9    589037.18248  21612539.204    21612538.7914   21612544.4644
        -0.000          -0.000
   2910877.033 9   2265297.52346  23710803.563    23710803.9424   23710810.3904
        -0.000          -0.000
  -7850249.174 9  -4849497.99245  23560513.909    23560513.7654   23560521.9524
        -0.000          -0.000
  -9364070.608 9  -7275797.11048  21329585.070    21329585.3254   21329590.3994
        -0.000          -0.000
   1035412.125 9    808081.84249  20607281.903    20607281.3564   20607286.5644
        -0.000          -0.000
  -9095605.094 9  -6789461.97347  22287899.321    22287899.1494   22287904.2594
        -0.000          -0.000
 97  3 13 22  1 59.9990000  0  7 27  2 26 24  4  7  9               -0.000694147
   7758535.512 9   6032867.97545  24019470.108    24019469.7964   24019477.5944
        -0.000          -0.000
    769003.127 9    606477.11948  21616798.229    21616797.8034   21616803.4874
        -0.000          -0.000
   2960355.924 9   2303852.45346  23720219.178    23720219.5144   23720225.9334
        -0.000          -0.000
  -7974266.986 8  -4946135.16745  23536914.129    23536913.8944   23536921.9284
        -0.000          -0.000
  -9455162.708 9  -7346777.94048  21312250.741    21312251.0364   21312256.1054
        -0.000          -0.000
   1063872.650 9    830258.87149  20612697.758    20612697.1874   20612702.4104
        -0.000          -0.000
  -9187763.388 9  -6861273.61147  22270362.120    22270361.9504   22270367.1554
        -0.000          -0.000
 97  3 13 22  2 29.9990000  0  7 27  2 26 24  4  7  9               -0.000704420
   7859677.299 9   6111679.68445  24038716.863    24038716.7624   24038724.4414
        -0.000          -0.000
    791679.522 9    624147.02448  21621113.332    21621112.9354   21621118.6434
        -0.000          -0.000
   3010086.073 9   2342603.16146  23729682.415    23729682.8124   23729689.4624
        -0.000          -0.000
  -8098138.695 9  -5042658.47745  23513342.140    23513341.7824   23513349.7284
        -0.000          -0.000
  -9545766.066 9  -7417377.93348  21295009.545    21295009.8314   21295014.8554
        -0.000          -0.000
   1092617.086 9    852657.13549  20618167.595    20618167.0404   20618172.3044
        -0.000          -0.000
  -9279519.821 9  -6932772.10147  22252901.362    22252901.2074   22252906.4724
        -0.000          -0.000
 97  3 13 22  2 59.9990000  0  7 27  2 26 24  4  7  9               -0.000714680
   7960948.969 9   6190592.58845  24057988.502    24057988.2714   24057995.9134
        -0.000          -0.000
    814638.824 9    642037.37048  21625482.456    21625482.0404   21625487.7454
        -0.000          -0.000
   3060060.660 9   2381544.34846  23739192.338    23739192.7094   23739199.2404
        -0.000          -0.000
  -8221895.418 9  -5139092.22446  23489792.014    23489791.6764   23489799.4864
        -0.000          -0.000
  -9635888.977 9  -7487603.55148  21277859.691    21277859.9744   21277865.0134
        -0.000          -0.000
   1121633.363 9    875267.21849  20623689.188    20623688.6374   20623693.9604
        -0.000          -0.000
  -9370878.352 9  -7003960.54247  22235516.369    22235516.1834   22235521.4774
        -0.000          -0.000
 97  3 13 22  3 29.9990000  0  7 27  2 26 24  4  7  9               -0.000724927
   8062328.959 9   6269589.89045  24077280.570    24077280.3654   24077287.9934
        -0.000          -0.000
    837882.472 9    660149.28948  21629905.655    21629905.2084   21629910.9294
        -0.000          -0.000
   3110286.066 9   2420681.00446  23748749.940    23748750.3124   23748756.7274
        -0.000          -0.000
  -8345534.116 9  -5235433.97746  23466264.295    23466264.0344   23466271.8634
        -0.000          -0.000
  -9725546.423 9  -7557466.46448  21260798.429    21260798.6964   21260803.7694
        -0.000          -0.000
   1150932.258 9    898097.52549  20629264.606    20629264.0774   20629269.3794
        -0.000          -0.000
  -9461829.861 9  -7074831.83147  22218208.821    22218208.7244   22218213.9654
        -0.000          -0.000
 97  3 13 22  3 59.9990000  0  7 27  2 26 24  4  7  9               -0.000735160
   8163804.809 9   6348661.87245  24096590.864    24096590.6974   24096598.3114
        -0.000          -0.000
    861390.852 9    678467.48448  21634379.162    21634378.7014   21634384.4584
        -0.000          -0.000
   3160734.060 9   2459991.09546  23758349.980    23758350.3964   23758356.6674
        -0.000          -0.000
  -8469060.495 9  -5331688.22846  23442757.859    23442757.6664   23442765.3384
        -0.000          -0.000
  -9814757.336 9  -7626981.43148  21243822.112    21243822.3784   21243827.4464
        -0.000          -0.000
   1180498.549 9    921136.18449  20634890.945    20634890.4034   20634895.6844
        -0.000          -0.000
  -9552375.606 9  -7145386.92847  22200978.457    22200978.4324   22200983.6694
        -0.000          -0.000
 97  3 13 22  4 29.9990000  0  7 27  2 26 24  4  7  9               -0.000745354
   8265412.427 9   6427836.53346  24115926.100    24115925.9624   24115933.7454
        -0.000          -0.000
    885166.495 9    696993.93348  21638903.528    21638903.0894   21638908.7664
        -0.000          -0.000
   3211406.975 9   2499476.46446  23767992.849    23767993.1314   23767999.3184
        -0.000          -0.000
  -8592463.662 9  -5427846.45746  23419274.972    23419274.7544   23419282.3714
        -0.000          -0.000
  -9903515.033 9  -7696143.25048  21226932.097    21226932.3904   21226937.3854
        -0.000          -0.000
   1210331.380 9    944382.54149  20640567.987    20640567.4324   20640572.6674
        -0.000          -0.000
  -9642510.057 9  -7215621.53947  22183826.402    22183826.4064   22183831.6294
        -0.000          -0.000
 97  3 13 22  4 59.9990000  0  7 27  2 26 24  4  7  9               -0.000755515
   8367137.526 9   6507102.75145  24135283.883    24135283.7214   24135291.5044
        -0.000          -0.000
    909207.032 9    715726.80148  21643478.382    21643477.8824   21643483.5214
        -0.000          -0.000
   3262287.849 9   2539123.86346  23777675.280    23777675.5384   23777681.6724
        -0.000          -0.000
  -8715738.986 9  -5523905.09345  23395816.418    23395816.1144   23395823.6064
        -0.000          -0.000
  -9991832.725 9  -7764962.20048  21210125.874    21210126.1254   21210131.0574
        -0.000          -0.000
   1240421.242 9    967829.18148  20646293.906    20646293.3584   20646298.5464
        -0.000          -0.000
  -9732248.178 9  -7285547.32847  22166749.928    22166749.8884   22166755.0324
        -0.000          -0.000
 97  3 13 22  5 29.9990000  0  7 27  2 26 24  4  7  9               -0.000765631
   8468989.425 8   6586467.78845  24154665.796    24154665.6534   24154673.4124
        -0.000          -0.000
    933517.653 9    734670.12448  21648104.538    21648104.0594   21648109.7294
        -0.000          -0.000
   3313370.351 9   2578928.37146  23787396.004    23787396.2294   23787402.3314
        -0.000          -0.000
  -8838869.885 9  -5619851.15346  23372385.247    23372384.9954   23372392.5514
        -0.000          -0.000
 -10079704.307 9  -7833433.53448  21193404.520    21193404.7514   21193409.6264
        -0.000          -0.000
   1270769.082 9    991476.84348  20652068.872    20652068.3214   20652073.5384
        -0.000          -0.000
  -9821571.582 9  -7355149.94047  22149752.308    22149752.1764   22149757.3164
        -0.000          -0.000
 97  3 13 22  5 59.9990000  0  7 27  2 26 24  4  7  9               -0.000775704
   8570975.081 8   6665937.03245  24174073.174    24174072.8684   24174080.6914
        -0.000          -0.000
    958103.216 9    753827.68848  21652783.101    21652782.6104   21652788.2554
        -0.000          -0.000
   3364635.197 9   2618874.95946  23797151.343    23797151.5854   23797157.7214
        -0.000          -0.000
  -8961871.435 9  -5715696.41346  23348978.776    23348978.4394   23348986.1134
        -0.000          -0.000
 -10167119.253 9  -7901549.05148  21176769.969    21176770.1974   21176775.0784
        -0.000          -0.000
   1301357.969 9   1015312.33648  20657889.715    20657889.1514   20657894.4244
        -0.000          -0.000
  -9910485.627 9  -7424433.59447  22132832.458    22132832.3994   22132837.5494
        -0.000          -0.000
 97  3 13 22  6 29.9990000  0  7 27  2 26 24  4  7  9               -0.000785737
   8673100.537 8   6745515.19045  24193507.066    24193506.6844   24193514.6714
        -0.000          -0.000
    982987.984 9    773218.40048  21657518.575    21657518.0724   21657523.6484
        -0.000          -0.000
   3416082.303 9   2658963.56746  23806941.369    23806941.7074   23806947.8624
        -0.000          -0.000
  -9084744.223 9  -5811441.34446  23325596.763    23325596.5154   23325604.1124
        -0.000          -0.000
 -10254057.631 9  -7969293.21848  21160226.109    21160226.3804   21160231.2204
        -0.000          -0.000
   1332204.345 9   1039348.46848  20663759.556    20663759.0174   20663764.3304
        -0.000          -0.000
  -9998991.409 9  -7493399.11847  22115990.341    22115990.2694   22115995.4314
        -0.000          -0.000
 97  3 13 22  6 59.9990000  0  7 27  2 26 24  4  7  9               -0.000795745
   8775357.502 8   6825195.80745  24212965.827    24212965.4734   24212973.6574
        -0.000          -0.000
   1008177.148 9    792846.30548  21662311.929    21662311.4044   21662316.9854
        -0.000          -0.000
   3467701.047 9   2699185.91546  23816764.144    23816764.4974   23816770.7544
        -0.000          -0.000
  -9207486.401 9  -5907084.49446  23302239.495    23302239.3554   23302246.9914
        -0.000          -0.000
 -10340505.489 9  -8036655.15648  21143775.707    21143775.9394   21143780.7984
        -0.000          -0.000
   1363320.326 9   1063594.68448  20669680.674    20669680.1684   20669685.5084
        -0.000          -0.000
 -10087094.329 9  -7562050.72047  22099224.828    22099224.8054   22099229.9604
        -0.000          -0.000
 97  3 13 22  7 29.9990000  0  6  2 26 24  4  7  9                  -0.000805732
   1033672.275 9    812712.61648  21667163.472    21667162.9654   21667168.5444
        -0.000          -0.000
   3519491.610 9   2739542.16446  23826619.484    23826619.8254   23826626.1654
        -0.000          -0.000
  -9330105.976 9  -6002632.12346  23278905.849    23278905.6694   23278913.1684
        -0.000          -0.000
 -10426457.856 9  -8103631.00148  21127419.472    21127419.6624   21127424.5694
        -0.000          -0.000
   1394710.137 9   1088054.27248  20675653.985    20675653.4834   20675658.8394
        -0.000          -0.000
 -10174791.096 9  -7630385.83247  22082536.624    22082536.5884   22082541.7804
        -0.000          -0.000
 97  3 13 22  7 59.9990000  0  6  2 26 24  4  7  9                  -0.000815714
   1059476.918 9    832820.10548  21672074.027    21672073.5064   21672079.0604
        -0.000          -0.000
   3571466.459 9   2780042.00346  23836509.830    23836510.1584   23836516.8124
        -0.000          -0.000
  -9452577.319 9  -6098064.24746  23255600.468    23255600.1844   23255607.5484
        -0.000          -0.000
 -10511905.947 9  -8170213.90448  21111159.094    21111159.3594   21111164.3004
        -0.000          -0.000
   1426384.735 9   1112735.77548  20681681.539    20681680.9804   20681686.3114
        -0.000          -0.000
 -10262097.611 9  -7698416.85247  22065922.667    22065922.6804   22065927.9584
        -0.000          -0.000
 97  3 13 22  8 29.9990000  0  6  2 26 24  4  7  9                  -0.000825676
   1085574.058 9    853155.52048  21677040.116    21677039.6184   21677045.2724
        -0.000          -0.000
   3623638.046 9   2820695.14046  23846437.605    23846437.9954   23846444.7354
        -0.000          -0.000
  -9574891.592 9  -6193373.98546  23232324.746    23232324.3974   23232331.7694
        -0.000          -0.000
 -10596865.441 9  -8236416.08448  21094991.792    21094992.0614   21094996.9964
        -0.000          -0.000
   1458335.336 9   1137632.34048  20687761.534    20687760.9914   20687766.3494
        -0.000          -0.000
 -10349018.252 9  -7766147.19747  22049382.343    22049382.2804   22049387.4744
        -0.000          -0.000
 97  3 13 22  8 59.9990000  0  6  2 26 24  4  7  9                  -0.000835600
   1111947.766 9    873706.44448  21682058.855    21682058.3434   21682064.0714
        -0.000          -0.000
   3676010.669 9   2861504.90346  23856404.108    23856404.4044   23856411.0194
        -0.000          -0.000
  -9697040.365 9  -6288554.73446  23209080.498    23209080.2184   23209087.6044
        -0.000          -0.000
 -10681349.074 9  -8302247.46448  21078915.017    21078915.3204   21078920.2714
        -0.000          -0.000
   1490536.201 9   1162723.92048  20693889.126    20693888.5794   20693893.9584
        -0.000          -0.000
 -10435544.379 9  -7833570.13247  22032917.197    22032917.0294   22032922.0764
        -0.000          -0.000
 97  3 13 22  9 29.9990000  0  6  2 26 24  4  7  9                  -0.000845481
   1138584.196 9    894462.09048  21687127.629    21687127.1144   21687132.8114
        -0.000          -0.000
   3728576.204 9   2902465.03146  23866407.182    23866407.3404   23866413.8494
        -0.000          -0.000
  -9819023.387 9  -6383606.35746  23185867.646    23185867.4474   23185874.9274
        -0.000          -0.000
 -10765371.875 9  -8367719.74748  21062926.046    21062926.3104   21062931.2974
        -0.000          -0.000
   1522965.376 9   1187993.40748  20700060.171    20700059.6074   20700064.9714
        -0.000          -0.000
 -10521670.525 9  -7900681.39847  22016527.969    22016527.8054   22016532.8014
        -0.000          -0.000
 97  3 13 22  9 59.9990000  0  6  2 26 24  4  7  9                  -0.000855319
   1165493.135 9    915430.07448  21692248.270    21692247.7694   21692253.4294
        -0.000          -0.000
   3781338.851 9   2943578.72346  23876447.467    23876447.6994   23876454.2864
        -0.000          -0.000
  -9940820.456 9  -6478513.08846  23162690.402    23162690.2634   23162697.5844
        -0.000          -0.000
 -10848915.030 9  -8432818.28648  21047028.243    21047028.5854   21047033.5744
        -0.000          -0.000
   1555636.927 9   1213451.75448  20706277.387    20706276.8434   20706282.1634
        -0.000          -0.000
 -10607385.322 9  -7967472.11747  22000216.910    22000216.7774   22000221.7924
        -0.000          -0.000
 97  3 13 22 10 29.9990000  0  6  2 26 24  4  7  9                  -0.000865125
   1192671.504 9    936608.00248  21697420.175    21697419.6294   21697425.2984
        -0.000          -0.000
   3834272.672 9   2984825.83446  23886520.521    23886520.7464   23886527.3424
        -0.000          -0.000
 -10062453.370 9  -6573291.89146  23139544.273    23139544.1484   23139551.5374
        -0.000          -0.000
 -10931984.618 9  -8497547.81648  21031220.701    21031220.9894   21031225.9164
        -0.000          -0.000
   1588529.245 9   1239082.12448  20712536.694    20712536.1294   20712541.4144
        -0.000          -0.000
 -10692670.804 9  -8033928.31147  21983987.582    21983987.4424   21983992.4704
        -0.000          -0.000
 97  3 13 22 10 59.9990000  0  6  2 26 24  4  7  9                  -0.000874919
   1220118.611 9    957995.34948  21702643.075    21702642.5634   21702648.3544
        -0.000          -0.000
   3887357.651 9   3026190.70946  23896622.297    23896622.5524   23896629.0754
        -0.000          -0.000
 -10183922.784 9  -6667943.27246  23116429.246    23116429.1904   23116436.7724
        -0.000          -0.000
 -11014568.000 9  -8561898.47548  21015505.599    21015505.8784   21015510.8414
        -0.000          -0.000
   1621638.207 9   1264881.31348  20718837.152    20718836.5684   20718841.8284
        -0.000          -0.000
 -10777525.945 9  -8100049.18347  21967840.136    21967840.0014   21967845.0034
        -0.000          -0.000
 97  3 13 22 11 29.9990000  0  6  2 26 24  4  7  9                  -0.000884720
   1247839.643 9    979596.12648  21707918.204    21707917.7114   21707923.5584
        -0.000          -0.000
   3940609.919 9   3067685.96146  23906755.874    23906756.0774   23906762.5264
        -0.000          -0.000
 -10305219.612 9  -6762460.20146  23093347.060    23093347.1094   23093354.6924
        -0.000          -0.000
 -11096638.242 9  -8625849.28248  20999888.125    20999888.3704   20999893.3624
        -0.000          -0.000
   1654984.863 9   1290865.71748  20725182.778    20725182.2054   20725187.4724
        -0.000          -0.000
 -10861942.549 9  -8165828.32947  21951776.128    21951775.9924   21951781.0894
        -0.000          -0.000
 97  3 13 22 11 59.9990000  0  6  2 26 24  4  7  9                  -0.000894530
   1275828.266 9   1001405.42248  21713244.300    21713243.7944   21713249.6204
        -0.000          -0.000
   3994020.688 9   3109304.67845  23916919.562    23916919.8214   23916926.3104
        -0.000          -0.000
 -10426358.559 9  -6856854.10546  23070295.054    23070295.1864   23070302.6354
        -0.000          -0.000
 -11178207.428 9  -8689409.67048  20984366.009    20984366.2764   20984371.2494
        -0.000          -0.000
   1688567.484 9   1317033.99248  20731573.323    20731572.7614   20731578.0434
        -0.000          -0.000
 -10945940.502 9  -8231281.25347  21935791.827    21935791.7274   21935796.8364
        -0.000          -0.000
 97  3 13 22 12 29.9990000  0  6  2 26 24  4  7  9                  -0.000904344
   1304077.995 9   1023418.17448  21718620.055    21718619.5824   21718625.3694
        -0.000          -0.000
   4047585.329 9   3151043.29846  23927112.548    23927112.8544   23927119.3224
        -0.000          -0.000
 -10547355.718 9  -6951137.52646  23047270.203    23047270.2674   23047277.5904
        -0.000          -0.000
 -11259289.433 9  -8752590.42048  20968936.677    20968936.8974   20968941.8614
        -0.000          -0.000
   1722363.862 9   1343368.83248  20738004.628    20738004.0684   20738009.2924
        -0.000          -0.000
 -11029524.559 9  -8296411.67147  21919886.356    21919886.2394   21919891.2444
        -0.000          -0.000
 97  3 13 22 12 59.9990000  0  6  2 26 24  4  7  9                  -0.000914172
   1332577.448 9   1045625.52248  21724043.394    21724042.9184   21724048.6504
        -0.000          -0.000
   4101297.356 9   3192896.77746  23937333.785    23937334.0184   23937340.4814
        -0.000          -0.000
 -10668218.286 9  -7045316.05446  23024270.891    23024270.8094   23024278.1094
        -0.000          -0.000
 -11339887.338 9  -8815393.95748  20953599.335    20953599.5954   20953604.4734
        -0.000          -0.000
   1756382.241 9   1369876.66048  20744478.221    20744477.6674   20744482.8064
        -0.000          -0.000
 -11112715.035 9  -8361235.39747  21904055.742    21904055.5784   21904060.5314
        -0.000          -0.000
 97  3 13 22 13 29.9990000  0  6  2 26 24  4  7  9                  -0.000924007
   1361332.590 9   1068032.10048  21729515.379    21729514.8904   21729520.5914
        -0.000          -0.000
   4155141.115 9   3234852.92546  23947579.945    23947580.2254   23947586.8404
        -0.000          -0.000
 -10788953.986 9  -7139395.76046  23001295.662    23001295.4844   23001302.7834
        -0.000          -0.000
 -11420009.579 9  -8877826.84348  20938352.611    20938352.8304   20938357.6894
        -0.000          -0.000
   1790633.887 9   1396566.25248  20750996.168    20750995.5754   20751000.7074
        -0.000          -0.000
 -11195510.783 9  -8425751.55347  21888300.186    21888300.0554   21888304.9734
        -0.000          -0.000
 97  3 13 22 13 59.9990000  0  6  2 26 24  4  7  9                  -0.000933839
   1390349.853 9   1090642.92848  21735037.336    21735036.7674   21735042.4264
        -0.000          -0.000
   4209089.809 9   3276890.79546  23957846.168    23957846.4484   23957853.1544
        -0.000          -0.000
 -10909573.569 9  -7233384.95646  22978342.535    22978342.3544   22978349.5464
        -0.000          -0.000
 -11499668.410 9  -8939898.63648  20923193.996    20923194.2144   20923199.0774
        -0.000          -0.000
   1825100.822 9   1423423.60248  20757554.970    20757554.3944   20757559.5544
        -0.000          -0.000
 -11277922.173 9  -8489968.20247  21872617.771    21872617.6524   21872622.5714
        -0.000          -0.000
 97  3 13 22 14 29.9990000  0  6  2 26 24  4  7  9                  -0.000943672
   1419637.961 9   1113464.82148  21740610.651    21740610.1294   21740615.8004
        -0.000          -0.000
   4263137.162 9   3319005.54746  23968131.113    23968131.3684   23968138.1474
        -0.000          -0.000
 -11030068.690 9  -7327277.17246  22955412.887    22955412.8194   22955420.0064
        -0.000          -0.000
 -11578850.400 9  -9001598.86148  20908126.108    20908126.3564   20908131.2464
        -0.000          -0.000
   1859772.704 9   1450440.65648  20764152.704    20764152.1474   20764157.4064
        -0.000          -0.000
 -11359930.276 9  -8553870.60047  21857012.055    21857011.9364   21857016.9004
        -0.000          -0.000
 97  3 13 22 14 59.9990000  0  6  2 26 24  4  7  9                  -0.000953515
   1449200.390 9   1136500.45648  21746236.238    21746235.7144   21746241.3744
        -0.000          -0.000
   4317276.183 9   3361191.74146  23978433.400    23978433.6264   23978440.5234
        -0.000          -0.000
 -11150425.317 9  -7421061.46846  22932509.661    22932509.5944   22932516.8294
        -0.000          -0.000
 -11657538.882 9  -9062914.53848  20893152.129    20893152.3924   20893157.2814
        -0.000          -0.000
   1894653.934 9   1477620.82948  20770790.275    20770789.7624   20770795.0864
        -0.000          -0.000
 -11441533.250 9  -8617457.31547  21841483.458    21841483.3754   21841488.3624
        -0.000          -0.000
 97  3 13 22 15 29.9990000  0  6  2 26 24  4  7  9                  -0.000963354
   1479048.461 9   1159758.67848  21751916.136    21751915.6524   21751921.2624
        -0.000          -0.000
   4371523.862 8   3403462.58946  23988756.499    23988756.5904   23988763.5464
        -0.000          -0.000
 -11270627.092 9  -7514725.13346  22909635.935    22909635.9794   22909643.0524
        -0.000          -0.000
 -11735720.964 9  -9123835.62148  20878274.585    20878274.8514   20878279.7264
        -0.000          -0.000
   1929734.822 9   1504956.58648  20777465.936    20777465.4304   20777470.7414
        -0.000          -0.000
 -11522724.877 9  -8680723.49748  21826033.229    21826033.1224   21826038.0894
        -0.000          -0.000
 97  3 13 22 15 59.9990000  0  6  2 26 24  4  7  9                  -0.000973176
   1509192.160 9   1183247.24848  21757652.329    21757651.8414   21757657.4274
        -0.000          -0.000
   4425908.173 9   3445839.90546  23999105.523    23999105.6654   23999112.4434
        -0.000          -0.000
 -11390647.511 9  -7608247.47746  22886796.725    22886796.7904   22886803.7734
        -0.000          -0.000
 -11813377.343 9  -9184347.05848  20863497.102    20863497.3414   20863502.1974
        -0.000          -0.000
   1965011.115 9   1532444.59648  20784178.846    20784178.3524   20784183.5844
        -0.000          -0.000
 -11603503.909 9  -8743668.18648  21810661.503    21810661.3534   21810666.3244
        -0.000          -0.000
 97  3 13 22 16 29.9990000  0  6  2 26 24  4  7  9                  -0.000982982
   1539627.657 9   1206963.19548  21763443.998    21763443.5124   21763449.0974
        -0.000          -0.000
   4480423.527 9   3488319.35746  24009479.536    24009479.7124   24009486.4474
        -0.000          -0.000
 -11510482.450 9  -7701625.26446  22863992.860    22863992.8874   22863999.8074
        -0.000          -0.000
 -11890510.204 9  -9244450.56448  20848819.211    20848819.4534   20848824.3064
        -0.000          -0.000
   2000492.397 9   1560092.34348  20790930.859    20790930.2984   20790935.4244
        -0.000          -0.000
 -11683863.424 9  -8806285.97548  21795369.635    21795369.4904   21795374.4384
        -0.000          -0.000
 97  3 13 22 16 59.9990000  0  7  2 26 24  4  5  7  9               -0.000992895
   1570341.217 9   1230895.82448  21769288.570    21769288.0964   21769293.7284
        -0.000          -0.000
   4535073.225 9   3530903.52346  24019879.173    24019879.2834   24019885.8884
        -0.000          -0.000
 -11630127.868 9  -7794855.38146  22841225.173    22841225.0694   22841232.0484
        -0.000          -0.000
 -11967115.296 9  -9304142.81948  20834241.704    20834241.9554   20834246.8014
        -0.000          -0.000
  -5203231.98418  -3329027.80855  24376713.117    24376712.4945   24376719.3895
        -0.000          -0.000
   2036200.683 9   1587916.97548  20797726.005    20797725.4244   20797730.4934
        -0.000          -0.000
 -11763801.529 9  -8868575.38948  21780157.889    21780157.7714   21780162.7364
        -0.000          -0.000
 97  3 13 22 17 29.9990000  0  7  2 26 24  4  5  7  9               -0.001002641
   1601326.585 9   1255040.24948  21775184.893    21775184.3934   21775190.0684
        -0.000          -0.000
   4589860.354 9   3573594.75546  24030304.784    24030304.9164   24030311.5054
        -0.000          -0.000
 -11749578.216 9  -7887933.50846  22818494.578    22818494.4854   22818501.3194
        -0.000          -0.000
 -12043193.638 9  -9363424.62148  20819764.404    20819764.6874   20819769.5134
        -0.000          -0.000
  -5301530.462 8  -3405623.81745  24358007.277    24358006.6034   24358013.7034
        -0.000          -0.000
   2072139.262 9   1615921.05048  20804564.879    20804564.2804   20804569.4004
        -0.000          -0.000
 -11843313.671 9  -8930532.89148  21765027.219    21765027.1154   21765032.1034
        -0.000          -0.000
 97  3 13 22 17 59.9980000  0  7  2 26 24  4  5  7  9               -0.001012387
   1632573.552 9   1279388.51347  21781130.945    21781130.4674   21781136.2364
        -0.000          -0.000
   4644763.672 9   3616376.52946  24040752.608    24040752.8034   24040759.3614
        -0.000          -0.000
 -11868833.662 9  -7980859.77546  22795800.961    22795800.8754   22795807.6484
        -0.000          -0.000
 -12118756.699 9  -9422304.90648  20805385.258    20805385.5314   20805390.3224
        -0.000          -0.000
  -5399852.293 8  -3482238.18045  24339297.251    24339296.6264   24339303.5324
        -0.000          -0.000
   2108305.217 9   1644102.30348  20811447.003    20811446.4164   20811451.6064
        -0.000          -0.000
 -11922385.337 9  -8992147.14848  21749980.352    21749980.2324   21749985.2864
        -0.000          -0.000
 97  3 13 22 18 29.9980000  0  7  2 26 24  4  5  7  9               -0.001022148
   1664081.880 9   1303940.44247  21787126.745    21787126.3074   21787132.1104
        -0.000          -0.000
   4699780.993 9   3659247.12146  24051222.198    24051222.3354   24051228.9864
        -0.000          -0.000
 -11987897.217 9  -8073636.51246  22773143.898    22773143.8404   22773150.5504
        -0.000          -0.000
 -12193808.266 9  -9480786.62548  20791103.366    20791103.6584   20791108.4594
        -0.000          -0.000
  -5498207.253 8  -3558878.39345  24320580.735    24320580.0624   24320586.9094
        -0.000          -0.000
   2144702.803 9   1672464.04248  20818373.153    20818372.6214   20818377.8414
        -0.000          -0.000
 -12000993.860 9  -9053400.52848  21735021.649    21735021.5884   21735026.6104
        -0.000          -0.000
 97  3 13 22 18 59.9980000  0  7  2 26 24  4  5  7  9               -0.001031929
   1695829.084 9   1328678.51347  21793167.982    21793167.6044   21793173.4234
        -0.000          -0.000
   4754916.868 9   3702210.07646  24061714.256    24061714.4414   24061720.9424
        -0.000          -0.000
 -12106760.683 9  -8166257.32446  22750524.845    22750524.8394   22750531.6304
        -0.000          -0.000
 -12268354.518 9  -9538874.58448  20776917.680    20776917.9694   20776922.7814
        -0.000          -0.000
  -5596607.941 9  -3635554.10945  24301855.651    24301855.0654   24301861.6754
        -0.000          -0.000
   2181306.482 9   1700986.38648  20825338.672    20825338.1084   20825343.3154
        -0.000          -0.000
 -12079156.130 9  -9114306.17748  21720147.889    21720147.8254   21720152.7984
        -0.000          -0.000
 97  3 13 22 19 29.9980000  0  7  2 26 24  4  5  7  9               -0.001041704
   1727824.775 9   1353610.19247  21799256.683    21799256.1994   21799261.9894
        -0.000          -0.000
   4810164.207 8   3745259.87645  24072227.544    24072227.6544   24072234.1644
        -0.000          -0.000
 -12225427.943 9  -8258725.25446  22727943.141    22727943.1334   22727949.9214
        -0.000          -0.000
 -12342415.708 9  -9596584.58048  20762824.289    20762824.5864   20762829.4054
        -0.000          -0.000
  -5695049.280 8  -3712261.60045  24283122.962    24283122.2854   24283128.8884
        -0.000          -0.000
   2218075.613 9   1729637.64048  20832335.647    20832335.0744   20832340.2604
        -0.000          -0.000
 -12156893.110 9  -9174880.43048  21705355.032    21705354.9854   21705359.9554
        -0.000          -0.000
 97  3 13 22 19 59.9980000  0  7  2 26 24  4  5  7  9               -0.001051459
   1760083.501 9   1378746.84747  21805395.391    21805394.9094   21805400.6614
        -0.000          -0.000
   4865514.438 8   3788389.83145  24082760.143    24082760.1334   24082767.1094
        -0.000          -0.000
 -12343906.828 9  -8351046.40646  22705397.299    22705397.3214   22705404.1214
        -0.000          -0.000
 -12416003.945 9  -9653926.03848  20748820.917    20748821.2104   20748826.0024
        -0.000          -0.000
  -5793517.742 8  -3788990.17345  24264384.644    24264384.0774   24264390.9054
        -0.000          -0.000
   2254998.674 9   1758408.85048  20839361.828    20839361.2904   20839366.4744
        -0.000          -0.000
 -12234197.671 9  -9235117.74248  21690644.558    21690644.4294   21690649.3444
        -0.000          -0.000
 97  3 13 22 20 29.9980000  0  7  2 26 24  4  5  7  9               -0.001061184
   1792619.856 9   1404099.82947  21811586.856    21811586.3534   21811592.1784
        -0.000          -0.000
   4920965.944 8   3831598.69145  24093312.139    24093312.1764   24093319.1974
        -0.000          -0.000
 -12462180.755 9  -8443207.85346  22682890.376    22682890.4624   22682897.3334
        -0.000          -0.000
 -12489087.718 9  -9710874.40948  20734913.584    20734913.8184   20734918.5904
        -0.000          -0.000
  -5892001.904 8  -3865731.03645  24245643.713    24245643.1704   24245650.0844
        -0.000          -0.000
   2292082.018 9   1787304.95148  20846418.560    20846418.0254   20846423.2144
        -0.000          -0.000
 -12311074.408 9  -9295021.68148  21676015.392    21676015.2874   21676020.0894
        -0.000          -0.000
 97  3 13 22 20 59.9980000  0  7  2 26 24  4  5  7  9               -0.001070866
   1825452.233 9   1429683.47847  21817834.646    21817834.1584   21817840.0104
        -0.000          -0.000
   4976510.987 9   3874880.48045  24103882.245    24103882.3804   24103889.1484
        -0.000          -0.000
 -12580251.094 9  -8535210.65346  22660422.263    22660422.3564   22660429.1944
        -0.000          -0.000
 -12561655.064 9  -9767420.37448  20721104.469    20721104.7184   20721109.4934
        -0.000          -0.000
  -5990497.179 9  -3942480.52445  24226900.569    24226900.1664   24226907.1064
        -0.000          -0.000
   2329326.843 9   1816326.88448  20853505.983    20853505.4594   20853510.6834
        -0.000          -0.000
 -12387536.434 9  -9354602.46948  21661465.161    21661465.0404   21661469.7924
        -0.000          -0.000
 97  3 13 22 21 29.9980000  0  7  2 26 24  4  5  7  9               -0.001080500
   1858602.336 9   1455514.71147  21824142.840    21824142.4114   21824148.2164
        -0.000          -0.000
   5032129.862 9   3918219.81345  24114466.271    24114466.4424   24114473.1024
        -0.000          -0.000
 -12698131.032 9  -8627065.09846  22637990.482    22637990.4954   22637997.3524
        -0.000          -0.000
 -12633698.539 9  -9823558.12548  20707395.135    20707395.3394   20707400.0764
        -0.000          -0.000
  -6088985.909 9  -4019224.94245  24208158.795    24208158.3714   24208165.2364
        -0.000          -0.000
   2366733.763 9   1845475.12548  20860624.218    20860623.7014   20860628.9784
        -0.000          -0.000
 -12463563.318 9  -9413844.17948  21646997.700    21646997.5564   21647002.3724
        -0.000          -0.000
 97  3 13 22 21 59.9980000  0  7  2 26 24  4  5  7  9               -0.001090104
   1892067.841 9   1481591.70147  21830511.196    21830510.7324   21830516.4764
        -0.000          -0.000
   5087815.768 9   3961611.38845  24125063.052    24125063.1864   24125069.5204
        -0.000          -0.000
 -12815807.936 9  -8718761.32346  22615597.371    22615597.3284   22615604.1514
        -0.000          -0.000
 -12705199.037 9  -9879272.77648  20693788.984    20693789.2184   20693793.9464
        -0.000          -0.000
  -6187470.871 9  -4095966.42845  24189417.756    24189417.2854   24189424.2184
        -0.000          -0.000
   2404334.291 9   1874774.23048  20867779.388    20867778.8474   20867784.1904
        -0.000          -0.000
 -12539132.313 9  -9472729.09948  21632617.406    21632617.2814   21632622.1094
        -0.000          -0.000
 97  3 13 22 22 29.9980000  0  7  2 26 24  4  5  7  9               -0.001099693
   1925830.999 9   1507900.63947  21836936.150    21836935.6844   21836941.4514
        -0.000          -0.000
   5143568.879 9   4005055.35945  24135672.665    24135672.7414   24135678.9194
        -0.000          -0.000
 -12933282.295 9  -8810299.73646  22593242.771    22593242.6244   22593249.4054
        -0.000          -0.000
 -12776155.100 9  -9934563.19348  20680286.468    20680286.7354   20680291.4304
        -0.000          -0.000
  -6285959.783 9  -4172710.96946  24170676.060    24170675.5594   24170682.3214
        -0.000          -0.000
   2442134.555 9   1904228.96848  20874972.597    20874972.0374   20874977.3704
        -0.000          -0.000
 -12614245.749 9  -9531259.03448  21618323.779    21618323.6764   21618328.5044
        -0.000          -0.000
 97  3 13 22 22 59.9980000  0  7  2 26 24  4  5  7  9               -0.001109262
   1959876.367 9   1534429.46947  21843414.907    21843414.4094   21843420.1094
        -0.000          -0.000
   5199404.802 9   4048563.80945  24146297.879    24146297.9364   24146304.3104
        -0.000          -0.000
 -13050573.261 9  -8901695.22246  22570922.942    22570922.8654   22570929.5574
        -0.000          -0.000
 -12846603.430 9  -9989457.97548  20666880.639    20666880.8464   20666885.5164
        -0.000          -0.000
  -6384451.095 9  -4249457.38145  24151933.864    24151933.3744   24151940.0254
        -0.000          -0.000
   2480130.217 9   1933835.97348  20882202.991    20882202.4024   20882207.6474
        -0.000          -0.000
 -12688896.933 9  -9589428.76848  21604118.059    21604117.9614   21604122.9294
        -0.000          -0.000
 97  3 13 22 23 29.9980000  0  7  2 26 24  4  5  7  9               -0.001118846
   1994161.093 9   1561144.81247  21849939.033    21849938.5434   21849944.2344
        -0.000          -0.000
   5255302.564 9   4092120.46946  24156935.028    24156935.0914   24156941.4644
        -0.000          -0.000
 -13167693.289 9  -8992957.53146  22548635.694    22548635.6444   22548642.3034
        -0.000          -0.000
 -12916557.994 9 -10043968.00348  20653568.700    20653568.9224   20653573.5874
        -0.000          -0.000
  -6482970.197 8  -4326225.46945  24133186.296    24133185.7944   24133192.3284
        -0.000          -0.000
   2518306.062 9   1963583.37748  20889467.643    20889467.0534   20889472.2624
        -0.000          -0.000
 -12763096.739 9  -9647246.78548  21589998.251    21589998.1364   21590003.1924
        -0.000          -0.000
 97  3 13 22 23 59.9980000  0  7  2 26 24  4  5  7  9               -0.001128455
   2028681.144 9   1588043.53947  21856507.944    21856507.4854   21856513.1994
        -0.000          -0.000
   5311269.928 9   4135731.31646  24167585.376    24167585.4184   24167591.8044
        -0.000          -0.000
 -13284616.963 9  -9084066.84846  22526385.974    22526385.8584   22526392.4004
        -0.000          -0.000
 -12986005.307 9 -10098082.76948  20640353.248    20640353.4914   20640358.2194
        -0.000          -0.000
  -6581536.929 8  -4403030.63645  24114429.570    24114429.0484   24114435.7134
        -0.000          -0.000
   2556670.999 9   1993478.12648  20896768.301    20896767.6594   20896772.8794
        -0.000          -0.000
 -12836838.443 9  -9704707.83848  21575965.614    21575965.4304   21575970.5964
        -0.000          -0.000
 97  3 13 22 24 29.9980000  0  7  2 26 24  4  5  7  9               -0.001138076
   2063458.505 9   1615142.75947  21863125.853    21863125.3834   21863131.1474
        -0.000          -0.000
   5367332.246 9   4179416.14946  24178253.759    24178253.7934   24178260.3004
        -0.000          -0.000
 -13401324.598 9  -9175007.80046  22504177.206    22504177.0934   22504183.5704
        -0.000          -0.000
 -13054921.366 9 -10151783.57648  20627238.869    20627239.1404   20627243.8854
        -0.000          -0.000
  -6680142.631 8  -4479866.15245  24095665.270    24095664.6804   24095671.8064
        -0.000          -0.000
   2595222.623 9   2023518.34748  20904104.401    20904103.7704   20904109.0464
        -0.000          -0.000
 -12910114.078 9  -9761805.72048  21562021.631    21562021.4934   21562026.7174
        -0.000          -0.000
 97  3 13 22 24 59.9980000  0  7  2 26 24  4  5  7  9               -0.001147717
   2098491.945 9   1642441.52347  21869792.672    21869792.0984   21869797.8584
        -0.000          -0.000
   5423469.596 9   4223159.46546  24188936.391    24188936.4184   24188942.8514
        -0.000          -0.000
 -13517817.273 9  -9265781.24147  22482009.426    22482009.2394   22482015.7614
        -0.000          -0.000
 -13123296.394 9 -10205062.79648  20614227.496    20614227.7574   20614232.4574
        -0.000          -0.000
  -6778803.034 8  -4556744.30545  24076890.636    24076890.0664   24076897.2724
        -0.000          -0.000
   2633941.325 9   2053688.76148  20911472.277    20911471.6694   20911476.9924
        -0.000          -0.000
 -12982937.245 9  -9818551.03348  21548163.853    21548163.7074   21548168.9384
        -0.000          -0.000
 97  3 13 22 25 29.9980000  0  7  2 26 24  4  5  7  9               -0.001157383
   2133803.727 9   1669957.17347  21876512.246    21876511.7064   21876517.5274
        -0.000          -0.000
   5479675.134 9   4266955.88946  24199631.991    24199632.0134   24199638.6204
        -0.000          -0.000
 -13634070.096 9  -9356367.80247  22459887.217    22459887.0144   22459893.5264
        -0.000          -0.000
 -13191091.206 9 -10257889.89848  20601326.559    20601326.8284   20601331.4974
        -0.000          -0.000
  -6877518.528 8  -4633665.40645  24058105.648    24058105.1504   24058112.1474
        -0.000          -0.000
   2672837.338 9   2083997.33348  20918873.896    20918873.3254   20918878.7054
        -0.000          -0.000
 -13055290.336 9  -9874930.05248  21534395.490    21534395.3584   21534400.5644
        -0.000          -0.000
 97  3 13 22 25 59.9980000  0  7  2 26 24  4  5  7  9               -0.001167039
   2169423.697 9   1697712.96847  21883290.528    21883289.9844   21883295.8874
        -0.000          -0.000
   5535981.623 9   4310831.00546  24210346.712    24210346.7764   24210353.5604
        -0.000          -0.000
 -13750072.361 9  -9446759.10747  22437812.620    22437812.4654   22437819.0164
        -0.000          -0.000
 -13258311.196 9 -10310269.09048  20588535.026    20588535.2744   20588539.9374
        -0.000          -0.000
  -6976264.675 9  -4710610.40745  24039314.950    24039314.5094   24039321.2244
        -0.000          -0.000
   2711915.132 9   2114447.55048  20926310.178    20926309.5974   20926314.9514
        -0.000          -0.000
 -13127161.011 9  -9930933.16248  21520719.011    21520718.8864   21520724.0224
        -0.000          -0.000
 97  3 13 22 26 29.9980000  0  7  2 26 24  4  5  7  9               -0.001176690
   2205313.046 9   1725678.67747  21890120.046    21890119.4954   21890125.3904
        -0.000          -0.000
   5592367.151 9   4354767.72646  24221076.446    24221076.5884   24221083.4914
        -0.000          -0.000
 -13865862.126 9  -9536984.81847  22415778.519    22415778.3404   22415784.9594
        -0.000          -0.000
 -13324992.673 9 -10362228.66648  20575845.980    20575846.2084   20575850.8674
        -0.000          -0.000
  -7075046.918 8  -4787583.55545  24020517.404    24020516.8124   24020523.6144
        -0.000          -0.000
   2751148.854 9   2145019.27148  20933776.131    20933775.5794   20933780.8784
        -0.000          -0.000
 -13198583.674 9  -9986587.17748  21507127.827    21507127.6654   21507132.7354
        -0.000          -0.000
 97  3 13 22 26 59.9980000  0  7  2 26 24  4  5  7  9               -0.001186335
   2241461.312 9   1753846.14047  21896998.845    21896998.2444   21897004.1764
        -0.000          -0.000
   5648818.697 9   4398755.85345  24231818.853    24231819.0014   24231825.9074
        -0.000          -0.000
 -13981444.078 9  -9627048.62747  22393784.037    22393783.7964   22393790.3864
        -0.000          -0.000
 -13391148.067 9 -10413778.30648  20563257.014    20563257.2434   20563261.8534
        -0.000          -0.000
  -7173852.645 8  -4864574.98645  24001715.193    24001714.5804   24001721.3864
        -0.000          -0.000
   2790544.561 9   2175717.21448  20941272.939    20941272.3594   20941277.5814
        -0.000          -0.000
 -13269550.880 9 -10041886.28948  21493623.272    21493623.0644   21493628.0384
        -0.000          -0.000
 97  3 13 22 27 29.9980000  0  7  2 26 24  4  5  7  9               -0.001195963
   2277871.922 9   1782218.02747  21903927.559    21903926.9874   21903932.9104
        -0.000          -0.000
   5705341.679 9   4442799.68745  24242574.882    24242574.9944   24242581.9024
        -0.000          -0.000
 -14096804.743 9  -9716939.98147  22371831.452    22371831.2644   22371837.8144
        -0.000          -0.000
 -13456794.561 9 -10464931.40048  20550764.916    20550765.1514   20550769.7744
        -0.000          -0.000
  -7272676.796 9  -4941580.76845  23982909.460    23982908.7784   23982915.6834
        -0.000          -0.000
   2830110.331 9   2206547.68048  20948802.114    20948801.5264   20948806.7064
        -0.000          -0.000
 -13340058.107 9 -10096826.98248  21480206.163    21480206.0334   21480210.9294
        -0.000          -0.000
 97  3 13 22 27 59.9980000  0  7  2 26 24  4  5  7  9               -0.001205550
   2314554.882 9   1810802.12747  21910908.303    21910907.6644   21910913.4974
        -0.000          -0.000
   5761953.735 9   4486912.96345  24253347.879    24253347.8974   24253354.8884
        -0.000          -0.000
 -14211916.869 9  -9806637.68347  22349926.221    22349926.0684   22349932.6274
        -0.000          -0.000
 -13521927.938 9 -10515684.66848  20538370.466    20538370.6724   20538375.3234
        -0.000          -0.000
  -7371493.814 9  -5018580.98845  23964105.110    23964104.3864   23964111.4134
        -0.000          -0.000
   2869858.219 9   2237520.05248  20956365.878    20956365.3004   20956370.5084
        -0.000          -0.000
 -13410098.137 9 -10151403.62048  21466878.034    21466877.8904   21466882.7324
        -0.000          -0.000
 97  3 13 22 28 29.9980000  0  7  2 26 24  4  5  7  9               -0.001215122
   2351499.735 9   1839590.29947  21917938.754    21917938.1174   21917943.9834
        -0.000          -0.000
   5818607.850 8   4531059.01845  24264128.822    24264129.0134   24264135.7704
        -0.000          -0.000
 -14326790.185 9  -9896149.30347  22328066.460    22328066.3424   22328072.8964
        -0.000          -0.000
 -13586544.296 9 -10566035.05948  20526074.374    20526074.5744   20526079.2044
        -0.000          -0.000
  -7470314.764 8  -5095584.26845  23945300.116    23945299.6244   23945306.3784
        -0.000          -0.000
   2909777.420 9   2268625.91248  20963962.316    20963961.7014   20963966.8844
        -0.000          -0.000
 -13479671.944 9 -10205616.96648  21453638.526    21453638.3954   21453643.2634
        -0.000          -0.000
 97  3 13 22 28 59.9980000  0  7  2 26 24  4  5  7  9               -0.001224686
   2388724.300 9   1868596.43447  21925022.336    21925021.7434   21925027.5754
        -0.000          -0.000
   5875281.400 8   4575220.17445  24274913.369    24274913.7474   24274920.7404
        -0.000          -0.000
 -14441429.367 9  -9985478.46547  22306251.318    22306251.2144   22306257.6944
        -0.000          -0.000
 -13650637.510 9 -10615977.80748  20513877.865    20513878.0484   20513882.6624
        -0.000          -0.000
  -7569154.126 9  -5172601.82045  23926491.428    23926490.8954   23926497.8074
        -0.000          -0.000
   2949858.845 9   2299858.18748  20971589.593    20971588.9614   20971594.0954
        -0.000          -0.000
 -13548773.948 9 -10259462.66948  21440488.885    21440488.7484   21440493.6644
        -0.000          -0.000
 97  3 13 22 29 29.9980000  0  7  2 26 24  4  5  7  9               -0.001234248
   2426232.771 9   1897823.79047  21932159.867    21932159.3024   21932165.1654
        -0.000          -0.000
   5931973.135 8   4619395.44845  24285701.303    24285701.5384   24285708.6894
        -0.000          -0.000
 -14555831.914 9 -10074623.26147  22284481.184    22284481.0554   22284487.5094
        -0.000          -0.000
 -13714194.419 9 -10665502.66248  20501783.340    20501783.5604   20501788.1374
        -0.000          -0.000
  -7668018.823 9  -5249639.18845  23907678.234    23907677.7204   23907684.4014
        -0.000          -0.000
   2990103.184 9   2331217.39948  20979247.909    20979247.2894   20979252.3864
        -0.000          -0.000
 -13617397.487 9 -10312935.54848  21427430.277    21427430.1394   21427435.0724
        -0.000          -0.000
 97  3 13 22 29 59.9980000  0  7  2 26 24  4  5  7  9               -0.001243827
   2464011.392 9   1927261.64847  21939348.885    21939348.3454   21939354.2314
        -0.000          -0.000
   5988668.427 8   4663573.51345  24296490.142    24296490.5594   24296497.5524
        -0.000          -0.000
 -14670022.801 9 -10163603.10247  22262751.355    22262751.1584   22262757.6854
        -0.000          -0.000
 -13777201.289 9 -10714598.90649  20489793.564    20489793.7914   20489798.3784
        -0.000          -0.000
  -7766913.234 9  -5326699.67845  23888859.296    23888858.7674   23888865.2984
        -0.000          -0.000
   3030499.388 9   2362694.94848  20986935.116    20986934.5174   20986939.5884
        -0.000          -0.000
 -13685537.531 9 -10366031.68048  21414463.675    21414463.5054   21414468.4344
        -0.000          -0.000
 97  3 13 22 30 29.9980000  0  7  2 26 24  4  5  7  9               -0.001253419
   2502081.172 9   1956926.38847  21946593.406    21946592.8404   21946598.6914
        -0.000          -0.000
   6045376.657 9   4707761.62245  24307281.490    24307281.8094   24307288.9334
        -0.000          -0.000
 -14784000.237 9 -10252416.61447  22241062.150    22241061.9544   22241068.5094
        -0.000          -0.000
 -13839623.762 9 -10763239.77849  20477914.985    20477915.1644   20477919.7614
        -0.000          -0.000
  -7865823.134 9  -5403772.26945  23870037.402    23870036.7774   23870043.4014
        -0.000          -0.000
   3071069.416 9   2394307.94548  20994655.340    20994654.7034   20994659.8534
        -0.000          -0.000
 -13753172.477 9 -10418734.22648  21401593.162    21401592.9564   21401597.9734
        -0.000          -0.000
 97  3 13 22 30 59.9980000  0  7  2 26 24  4  5  7  9               -0.001263040
   2540412.753 9   1986795.12347  21953887.769    21953887.1704   21953892.9944
        -0.000          -0.000
   6102090.658 9   4751954.27746  24318074.047    24318074.3074   24318081.2734
        -0.000          -0.000
 -14897778.124 9 -10341074.64647  22219410.967    22219410.7424   22219417.3314
        -0.000          -0.000
 -13901484.629 9 -10811443.03249  20466143.205    20466143.4044   20466148.0444
        -0.000          -0.000
  -7964787.787 9  -5480887.51346  23851205.022    23851204.4254   23851210.9624
        -0.000          -0.000
   3111794.203 9   2426041.53648  21002404.962    21002404.3384   21002409.5664
        -0.000          -0.000
 -13820332.588 9 -10471066.76848  21388813.004    21388812.8234   21388817.8224
        -0.000          -0.000
 97  3 13 22 31 29.9980000  0  7  2 26 24  4  5  7  9               -0.001272675
   2579006.641 9   2016868.25547  21961232.001    21961231.4364   21961237.2274
        -0.000          -0.000
   6158836.842 9   4796172.00546  24328872.669    24328872.7924   24328879.7864
        -0.000          -0.000
 -15011324.638 9 -10429552.41347  22197803.704    22197803.5204   22197810.0564
        -0.000          -0.000
 -13962772.463 9 -10859199.77149  20454480.503    20454480.6884   20454485.3004
        -0.000          -0.000
  -8063784.453 9  -5558027.71746  23832366.642    23832365.9864   23832372.5294
        -0.000          -0.000
   3152674.512 9   2457896.30848  21010184.124    21010183.5134   21010188.8234
        -0.000          -0.000
 -13887008.777 9 -10523022.22848  21376125.006    21376124.7864   21376129.7634
        -0.000          -0.000
 97  3 13 22 31 59.9980000  0  7  2 26 24  4  5  7  9               -0.001282321
   2617857.729 9   2047141.79647  21968625.109    21968624.5674   21968630.3754
        -0.000          -0.000
   6215601.727 9   4840404.30846  24339674.824    24339674.9334   24339681.9554
        -0.000          -0.000
 -15124640.530 9 -10517850.46647  22176240.419    22176240.2284   22176246.7264
        -0.000          -0.000
 -14023499.345 9 -10906519.39849  20442924.546    20442924.7484   20442929.3694
        -0.000          -0.000
  -8162810.224 9  -5635190.58646  23813522.648    23813522.0024   23813528.4134
        -0.000          -0.000
   3193690.329 9   2489856.67448  21017989.132    21017988.5194   21017993.8934
        -0.000          -0.000
 -13953217.541 9 -10574613.46248  21363525.963    21363525.7094   21363530.6654
        -0.000          -0.000
 97  3 13 22 32 29.9980000  0  7  2 26 24  4  5  7  9               -0.001291959
   2656978.064 9   2077625.15047  21976069.450    21976068.8944   21976074.8144
        -0.000          -0.000
   6272381.055 9   4884647.83146  24350479.830    24350479.9034   24350486.8894
        -0.000          -0.000
 -15237698.202 9 -10605947.28647  22154726.173    22154725.9534   22154732.5724
        -0.000          -0.000
 -14083676.173 9 -10953410.41649  20431473.305    20431473.4854   20431478.0994
        -0.000          -0.000
  -8261854.796 9  -5712368.11045  23794675.025    23794674.3304   23794680.8644
        -0.000          -0.000
   3234843.042 9   2521923.71448  21025820.276    21025819.6684   21025824.9894
        -0.000          -0.000
 -14018965.564 9 -10625845.67948  21351014.462    21351014.2314   21351019.1764
        -0.000          -0.000
 97  3 13 22 32 59.9980000  0  7  2 26 24  4  5  7  9               -0.001301579
   2696374.784 9   2108323.86147  21983566.441    21983565.8144   21983571.7704
        -0.000          -0.000
   6329184.033 9   4928909.83446  24361289.270    24361289.3204   24361296.1594
        -0.000          -0.000
 -15350460.113 9 -10693813.65447  22133268.217    22133267.9374   22133274.6174
        -0.000          -0.000
 -14143298.014 9 -10999868.97749  20420127.615    20420127.8504   20420132.4344
        -0.000          -0.000
  -8360897.389 9  -5789544.13945  23775827.820    23775827.0684   23775833.4084
        -0.000          -0.000
   3276139.857 9   2554103.03848  21033678.805    21033678.1974   21033683.4764
        -0.000          -0.000
 -14084245.003 9 -10676712.76248  21338592.166    21338591.9604   21338596.9284
        -0.000          -0.000
 97  3 13 22 33 29.9980000  0  7  2 26 24  4  5  7  9               -0.001311170
   2736061.690 9   2139248.70047  21991118.675    21991118.0354   21991123.8954
        -0.000          -0.000
   6386015.348 9   4973193.89546  24372104.060    24372104.0434   24372110.9514
        -0.000          -0.000
 -15462907.817 9 -10781435.20047  22111869.948    22111869.7814   22111876.4344
        -0.000          -0.000
 -14202350.195 9 -11045883.64649  20408890.401    20408890.5794   20408895.1904
        -0.000          -0.000
  -8459910.941 9  -5866697.45245  23756985.952    23756985.2524   23756991.6944
        -0.000          -0.000
   3317592.919 9   2586404.11248  21041567.080    21041566.4774   21041571.6834
        -0.000          -0.000
 -14149041.650 9 -10727203.64648  21326261.767    21326261.5764   21326266.5804
        -0.000          -0.000
 97  3 13 22 33 59.9980000  0  7  2 26 24  4  5  7  9               -0.001320765
   2776026.649 9   2170390.19647  21998723.680    21998723.1604   21998728.9874
        -0.000          -0.000
   6442840.737 9   5017473.34546  24382917.590    24382917.6184   24382924.6124
        -0.000          -0.000
 -15575070.155 9 -10868834.39247  22090526.217    22090526.0474   22090532.6074
        -0.000          -0.000
 -14260851.228 9 -11091468.85349  20397758.011    20397758.1964   20397762.7994
        -0.000          -0.000
  -8558930.046 9  -5943855.14945  23738143.178    23738142.5664   23738148.9464
        -0.000          -0.000
   3359200.391 9   2618825.51048  21049484.710    21049484.0864   21049489.2744
        -0.000          -0.000
 -14213378.804 9 -10777336.47648  21314018.878    21314018.6424   21314023.6194
        -0.000          -0.000
 97  3 13 22 34 29.9980000  0  7  2 26 24  4  5  7  9               -0.001330332
   2816263.949 9   2201743.90047  22006380.592    22006380.0504   22006385.9144
        -0.000          -0.000
   6499658.387 8   5061746.73446  24393729.492    24393729.5924   24393736.7874
        -0.000          -0.000
 -15686953.976 9 -10956016.54347  22069235.451    22069235.2774   22069241.7944
        -0.000          -0.000
 -14318805.331 9 -11136627.87449  20386729.648    20386729.8514   20386734.4584
        -0.000          -0.000
  -8657973.591 8  -6021031.85045  23719295.768    23719295.1044   23719301.5774
        -0.000          -0.000
   3400960.457 9   2651365.81348  21057431.389    21057430.7744   21057435.9584
        -0.000          -0.000
 -14277269.523 9 -10827121.44348  21301860.802    21301860.5994   21301865.6414
        -0.000          -0.000
 97  3 13 22 34 59.9980000  0  7  2 26 24  4  5  7  9               -0.001339894
   2856778.829 9   2233313.90747  22014090.310    22014089.7434   22014095.6524
        -0.000          -0.000
   6556488.228 8   5106029.61645  24404543.841    24404544.0664   24404551.2484
        -0.000          -0.000
 -15798566.751 9 -11042987.50947  22047996.206    22047996.0504   22048002.4624
        -0.000          -0.000
 -14376193.125 9 -11181345.62049  20375809.048    20375809.2514   20375813.8674
        -0.000          -0.000
  -8757050.561 9  -6098234.59945  23700441.849    23700441.3164   23700447.8184
        -0.000          -0.000
   3442875.857 9   2684027.14948  21065407.641    21065407.0124   21065412.1874
        -0.000          -0.000
 -14340697.680 9 -10876545.97048  21289790.851    21289790.6054   21289795.6444
        -0.000          -0.000
 97  3 13 22 35 29.9980000  0  7  2 26 24  4  5  7  9               -0.001349449
   2897584.037 9   2265110.15047  22021855.307    22021854.7074   22021860.6594
        -0.000          -0.000
   6613332.959 8   5150324.09845  24415360.893    24415361.3364   24415368.6354
        -0.000          -0.000
 -15909926.627 9 -11129761.41047  22026805.058    22026804.9604   22026811.2584
        -0.000          -0.000
 -14433012.507 9 -11225620.44749  20364996.670    20364996.8964   20365001.4654
        -0.000          -0.000
  -8856166.127 9  -6175467.46345  23681580.809    23681580.2344   23681586.7524
        -0.000          -0.000
   3484944.335 9   2716807.77248  21073413.058    21073412.4204   21073417.6094
        -0.000          -0.000
 -14403641.064 9 -10925592.76148  21277813.108    21277812.9074   21277817.8234
        -0.000          -0.000
 97  3 13 22 35 59.9980000  0  7  2 26 24  4  5  7  9               -0.001358997
   2938681.666 9   2297134.24847  22029675.922    22029675.3534   22029681.2324
        -0.000          -0.000
   6670189.150 8   5194627.54955  24426180.282    24426180.3074   24426187.1665
        -0.000          -0.000
 -16021036.417 9 -11216340.44547  22005661.580    22005661.4784   22005667.7344
        -0.000          -0.000
 -14489267.402 9 -11269455.41849  20354291.731    20354291.9674   20354296.5064
        -0.000          -0.000
  -8955317.474 9  -6252728.17045  23662712.892    23662712.2454   23662718.8394
        -0.000          -0.000
   3527152.507 9   2749697.24248  21081445.062    21081444.4094   21081449.6134
        -0.000          -0.000
 -14466096.997 9 -10974259.70548  21265928.129    21265927.9544   21265932.7964
        -0.000          -0.000
 97  3 13 22 36 29.9980000  0  7  2 26 24  4  5  7  9               -0.001368534
   2980075.979 9   2329389.52347  22037553.083    22037552.5404   22037558.3554
        -0.000          -0.000
   6727078.349 8   5238956.74245  24437005.903    24437005.2154   24437012.5284
        -0.000          -0.000
 -16131873.391 9 -11302706.87647  21984570.097    21984569.9484   21984576.1554
        -0.000          -0.000
 -14544942.150 9 -11312838.31749  20343697.181    20343697.3914   20343701.9864
        -0.000          -0.000
  -9054482.061 9  -6329999.22246  23643842.420    23643841.8794   23643848.3384
        -0.000          -0.000
   3569507.854 9   2782701.39348  21089505.088    21089504.4104   21089509.6704
        -0.000          -0.000
 -14528031.227 9 -11022520.13348  21254142.494    21254142.3134   21254147.0484
        -0.000          -0.000
 97  3 13 22 36 59.9980000  0  7  2 26 24  4  5  7  9               -0.001378074
   3021758.751 9   2361869.57247  22045485.095    22045484.5484   22045490.3264
        -0.000          -0.000
   6783979.329 8   5283295.15445  24447833.758    24447833.3074   24447839.6004
        -0.000          -0.000
 -16242444.610 9 -11388866.22847  21963529.157    21963528.9264   21963535.1324
        -0.000          -0.000
 -14600044.749 9 -11355775.39349  20333211.504    20333211.7104   20333216.3154
        -0.000          -0.000
  -9153665.815 9  -6407285.21946  23624968.216    23624967.7654   23624974.1684
        -0.000          -0.000
   3612005.468 9   2815816.40748  21097592.069    21097591.4314   21097596.6944
        -0.000          -0.000
 -14589425.570 9 -11070359.87148  21242459.611    21242459.3914   21242464.0364
        -0.000          -0.000
 97  3 13 22 37 29.9980000  0  7  2 26 24  4  5  7  9               -0.001387623
   3063707.149 9   2394556.58647  22053467.657    22053467.1324   22053472.8954
        -0.000          -0.000
   6840859.303 8   5327617.10345  24458657.651    24458657.4934   24458664.1114
        -0.000          -0.000
 -16352747.812 9 -11474816.73547  21942539.069    21942538.8764   21942545.0754
        -0.000          -0.000
 -14654605.237 9 -11398290.04849  20322828.930    20322829.1484   20322833.7464
        -0.000          -0.000
  -9252866.940 9  -6484584.76646  23606090.858    23606090.3744   23606096.6414
        -0.000          -0.000
   3654626.107 9   2849027.28348  21105702.502    21105701.8274   21105707.0954
        -0.000          -0.000
 -14650300.652 9 -11117794.98848  21230875.445    21230875.2114   21230879.8474
        -0.000          -0.000
 97  3 13 22 37 59.9980000  0  7  2 26 24  4  5  7  9               -0.001397175
   3105918.746 9   2427448.69847  22061500.401    22061499.8014   22061505.6074
        -0.000          -0.000
   6897726.522 8   5371929.14445  24469479.223    24469479.2724   24469486.1894
        -0.000          -0.000
 -16462756.809 9 -11560537.99347  21921605.096    21921604.8394   21921611.0534
        -0.000          -0.000
 -14708603.814 9 -11440366.84149  20312553.351    20312553.5624   20312558.1724
        -0.000          -0.000
  -9352069.874 9  -6561885.71346  23587213.254    23587212.7624   23587218.8254
        -0.000          -0.000
   3697383.209 9   2882344.49648  21113838.830    21113838.1944   21113843.5044
        -0.000          -0.000
 -14710659.550 9 -11164827.89348  21219389.431    21219389.2734   21219393.9804
        -0.000          -0.000
 97  3 13 22 38 29.9980000  0  7  2 26 24  4  5  7  9               -0.001406744
   3148375.442 9   2460531.81347  22069579.663    22069579.0394   22069584.8654
        -0.000          -0.000
   6954556.798 8   5416212.40845  24480293.635    24480293.4954   24480300.6484
        -0.000          -0.000
 -16572489.708 9 -11646044.09447  21900723.490    21900723.2554   21900729.5184
        -0.000          -0.000
 -14762054.692 9 -11482016.86249  20302381.970    20302382.1734   20302386.8134
        -0.000          -0.000
  -9451292.733 9  -6639202.18346  23568331.781    23568331.3544   23568337.3124
        -0.000          -0.000
   3740268.595 9   2915761.67248  21121999.660    21121999.0054   21122004.3524
        -0.000          -0.000
 -14770517.617 9 -11211470.52548  21207998.808    21207998.6684   21208003.3544
        -0.000          -0.000
 97  3 13 22 38 59.9980000  0  7  2 26 24  4  5  7  9               -0.001416310
   3191099.842 9   2493823.51647  22077709.781    22077709.2204   22077715.0604
        -0.000          -0.000
   7011348.878 8   5460465.86545  24491100.758    24491100.6244   24491108.0234
        -0.000          -0.000
 -16681937.958 9 -11731328.40347  21879896.137    21879895.9534   21879902.1444
        -0.000          -0.000
 -14814953.883 9 -11523236.99649  20292315.577    20292315.7524   20292320.3914
        -0.000          -0.000
  -9550508.555 9  -6716513.17345  23549451.594    23549451.1544   23549457.0744
        -0.000          -0.000
   3783285.825 9   2949281.58848  21130185.598    21130184.9774   21130190.2184
        -0.000          -0.000
 -14829881.748 9 -11257728.28648  21196702.218    21196702.0394   21196706.7414
        -0.000          -0.000
 97  3 13 22 39 29.9980000  0  6  2 24  4  5  7  9                  -0.001425893
   3234072.343 9   2527308.54447  22085887.249    22085886.6284   22085892.5214
        -0.000          -0.000
 -16791110.923 9 -11816398.20247  21859121.153    21859120.9364   21859127.0634
        -0.000          -0.000
 -14867310.830 9 -11564034.60249  20282352.388    20282352.5804   20282357.2504
        -0.000          -0.000
  -9649726.943 9  -6793826.15045  23530570.963    23530570.5664   23530576.3144
        -0.000          -0.000
   3826415.553 9   2982889.15248  21138392.937    21138392.2964   21138397.5304
        -0.000          -0.000
 -14888772.667 9 -11303617.30348  21185495.619    21185495.4374   21185500.1974
        -0.000          -0.000
 97  3 13 22 39 59.9980000  0  6  2 24  4  5  7  9                  -0.001435443
   3277300.952 9   2560993.15247  22094113.412    22094112.8144   22094118.7024
        -0.000          -0.000
 -16900022.392 9 -11901264.23247  21838395.967    21838395.8134   21838401.9144
        -0.000          -0.000
 -14919096.942 9 -11604387.40049  20272497.829    20272498.0124   20272502.6674
        -0.000          -0.000
  -9748944.664 9  -6871138.60546  23511690.416    23511690.0054   23511695.8604
        -0.000          -0.000
   3869670.600 9   3016594.36848  21146624.189    21146623.5274   21146628.7024
        -0.000          -0.000
 -14947170.462 9 -11349122.07248  21174382.835    21174382.6704   21174387.4254
        -0.000          -0.000
 97  3 13 22 40 29.9980000  0  6  2 24  4  5  7  9                  -0.001444992
   3320802.416 9   2594890.35147  22102391.605    22102390.9534   22102396.8424
        -0.000          -0.000
 -17008668.282 9 -11985923.31547  21817721.396    21817721.1764   21817727.2994
        -0.000          -0.000
 -14970313.634 9 -11644296.49149  20262751.590    20262751.7794   20262756.4304
        -0.000          -0.000
  -9848162.890 9  -6948451.44546  23492809.720    23492809.3174   23492815.2494
        -0.000          -0.000
   3913042.993 9   3050391.03348  21154877.677    21154877.0234   21154882.1564
        -0.000          -0.000
 -15005061.469 9 -11394231.94048  21163366.538    21163366.3964   21163371.1294
        -0.000          -0.000
 97  3 13 22 40 59.9980000  0  6  2 24  4  5  7  9                  -0.001454554
   3364573.155 9   2628997.38947  22110720.810    22110720.1874   22110726.1344
        -0.000          -0.000
 -17117044.479 9 -12070372.25447  21797098.031    21797097.7944   21797103.8894
        -0.000          -0.000
 -15020947.100 9 -11683751.13049  20253116.360    20253116.5194   20253121.1594
        -0.000          -0.000
  -9947388.353 9  -7025769.94146  23473927.725    23473927.3484   23473933.2344
        -0.000          -0.000
   3956523.871 9   3084272.21448  21163151.837    21163151.1754   21163156.3394
        -0.000          -0.000
 -15062437.621 9 -11438940.62348  21152448.268    21152448.0654   21152452.8174
        -0.000          -0.000
 97  3 13 22 41 29.9980000  0  6  2 24  4  5  7  9                  -0.001464127
   3408636.695 9   2663332.58147  22119105.785    22119105.2224   22119111.1934
        -0.000          -0.000
 -17225120.834 9 -12154587.55247  21776531.643    21776531.5014   21776537.6084
        -0.000          -0.000
 -15070957.625 9 -11722720.35149  20243599.648    20243599.8084   20243604.4764
        -0.000          -0.000
 -10046608.395 9  -7103084.19246  23455046.948    23455046.4804   23455052.3554
        -0.000          -0.000
   4000140.525 9   3118259.20848  21171451.826    21171451.1704   21171456.3624
        -0.000          -0.000
 -15119269.804 9 -11483225.42748  21141633.419    21141633.2324   21141638.0184
        -0.000          -0.000
 97  3 13 22 41 59.9980000  0  6  2 24  4  5  7  9                  -0.001473697
   3453005.455 9   2697905.61547  22127548.972    22127548.3774   22127554.2794
        -0.000          -0.000
 -17332901.270 9 -12238572.27047  21756021.605    21756021.5404   21756027.6224
        -0.000          -0.000
 -15120347.305 9 -11761205.80349  20234201.090    20234201.2844   20234205.9344
        -0.000          -0.000
 -10145822.397 9  -7180393.73746  23436167.140    23436166.5504   23436172.5834
        -0.000          -0.000
   4043882.176 9   3152343.60148  21179775.550    21179774.9074   21179780.1544
        -0.000          -0.000
 -15175576.261 9 -11527100.58348  21130918.614    21130918.4504   21130923.1934
        -0.000          -0.000
 97  3 13 22 42 29.9980000  0  6  2 24  4  5  7  9                  -0.001483256
   3497671.925 9   2732710.62247  22136048.731    22136048.1424   22136054.0864
        -0.000          -0.000
 -17440382.749 9 -12322324.03547  21735568.692    21735568.5294   21735574.5734
        -0.000          -0.000
 -15169153.021 9 -11799236.21449  20224913.660    20224913.8644   20224918.5064
        -0.000          -0.000
 -10245050.402 9  -7257714.18846  23417284.720    23417284.1514   23417290.1614
        -0.000          -0.000
   4087725.575 9   3186507.27648  21188118.689    21188118.0514   21188123.3464
        -0.000          -0.000
 -15231384.521 9 -11570587.53448  21120298.686    21120298.4724   21120303.2094
        -0.000          -0.000
 97  3 13 22 42 59.9980000  0  6  2 24  4  5  7  9                  -0.001492797
   3542634.782 9   2767746.58747  22144604.898    22144604.2404   22144610.2914
        -0.000          -0.000
 -17547563.956 9 -12405841.82147  21715172.800    21715172.6394   21715178.6704
        -0.000          -0.000
 -15217371.302 9 -11836808.88749  20215738.021    20215738.2164   20215742.8354
        -0.000          -0.000
 -10344273.120 9  -7335030.54446  23398403.205    23398402.6734   23398408.6544
        -0.000          -0.000
   4131685.911 9   3220762.06748  21196484.128    21196483.4904   21196488.7994
        -0.000          -0.000
 -15286690.682 9 -11613683.24948  21109774.269    21109774.0884   21109778.7684
        -0.000          -0.000
 97  3 13 22 43 29.9980000  0  6  2 24  4  5  7  9                  -0.001502310
   3587890.953 9   2803011.11047  22153216.797    22153216.1974   22153222.3234
        -0.000          -0.000
 -17654448.156 9 -12489128.18247  21694833.427    21694833.2694   21694839.2754
        -0.000          -0.000
 -15265019.800 9 -11873937.56849  20206670.793    20206671.0134   20206675.6294
        -0.000          -0.000
 -10443487.728 9  -7412340.56146  23379523.308    23379522.7234   23379528.7114
        -0.000          -0.000
   4175764.240 9   3255108.80348  21204871.977    21204871.3234   21204876.6404
        -0.000          -0.000
 -15341509.479 9 -11656399.19048  21099342.542    21099342.3304   21099347.0194
        -0.000          -0.000
 97  3 13 22 43 59.9980000  0  6  2 24  4  5  7  9                  -0.001511807
   3633417.142 9   2838486.02447  22161880.113    22161879.5704   22161885.7274
        -0.000          -0.000
 -17761046.379 9 -12572191.69147  21674548.388    21674548.2324   21674554.2724
        -0.000          -0.000
 -15312130.101 9 -11910646.87449  20197705.982    20197706.1794   20197710.8104
        -0.000          -0.000
 -10542712.213 9  -7489658.28646  23360641.484    23360640.8354   23360646.8754
        -0.000          -0.000
   4219947.589 9   3289537.36848  21213279.776    21213279.1034   21213284.4594
        -0.000          -0.000
 -15395841.312 9 -11698735.68248  21089003.445    21089003.2774   21089007.9754
        -0.000          -0.000
 97  3 13 22 44 29.9980000  0  6  2 24  4  5  7  9                  -0.001521299
   3679203.151 9   2874163.41447  22170593.054    22170592.4684   22170598.5674
        -0.000          -0.000
 -17867342.351 9 -12655019.70047  21654320.952    21654320.7664   21654326.7734
        -0.000          -0.000
 -15358708.113 9 -11946941.41349  20188842.424    20188842.6454   20188847.3054
        -0.000          -0.000
 -10641951.703 9  -7566987.72646  23341756.683    23341756.1784   23341762.0294
        -0.000          -0.000
   4264247.694 9   3324056.91648  21221709.777    21221709.1164   21221714.4894
        -0.000          -0.000
 -15449663.663 9 -11740675.18248  21078761.353    21078761.1974   21078765.9574
        -0.000          -0.000
 97  3 13 22 44 59.9980000  0  6  2 24  4  5  7  9                  -0.001530806
   3725231.746 9   2910029.82647  22179351.996    22179351.4344   22179357.5264
        -0.000          -0.000
 -17973345.324 9 -12737619.39147  21634149.253    21634149.0504   21634155.0764
        -0.000          -0.000
 -15404752.326 9 -11982820.00049  20180080.458    20180080.7114   20180085.3494
        -0.000          -0.000
 -10741224.794 9  -7644343.33946  23322865.587    23322865.0774   23322870.9574
        -0.000          -0.000
   4308664.940 9   3358667.74648  21230162.092    21230161.4154   21230166.8364
        -0.000          -0.000
 -15502989.452 9 -11782227.73748  21068613.828    21068613.6724   21068618.4304
        -0.000          -0.000
 97  3 13 22 45 29.9980000  0  6  2 24  4  5  7  9                  -0.001540312
   3771529.775 9   2946106.19247  22188162.223    22188161.6754   22188167.8184
        -0.000          -0.000
 -18079015.071 9 -12819959.43647  21614040.856    21614040.7514   21614046.7604
        -0.000          -0.000
 -15450240.997 9 -12018265.70049  20171424.263    20171424.4934   20171429.1184
        -0.000          -0.000
 -10840521.096 9  -7721717.04846  23303970.019    23303969.4984   23303975.4354
        -0.000          -0.000
   4353219.425 9   3393385.51348  21238640.490    21238639.8554   21238645.3144
        -0.000          -0.000
 -15555798.553 9 -11823377.68548  21058564.530    21058564.3894   21058569.1874
        -0.000          -0.000
 97  3 13 22 45 59.9980000  0  6  2 24  4  5  7  9                  -0.001549830
   3818096.325 9   2982391.77447  22197023.462    22197022.9614   22197029.1974
        -0.000          -0.000
 -18184346.022 9 -12902035.47047  21593997.017    21593996.8674   21594002.9084
        -0.000          -0.000
 -15495164.089 9 -12053270.68749  20162875.665    20162875.8824   20162880.5254
        -0.000          -0.000
 -10939849.043 9  -7799115.39246  23285068.386    23285067.9134   23285073.9384
        -0.000          -0.000
   4397895.640 9   3428198.14348  21247142.112    21247141.4904   21247146.9384
        -0.000          -0.000
 -15608072.080 9 -11864110.30448  21048617.175    21048617.0464   21048621.8244
        -0.000          -0.000
 97  3 13 22 46 29.9980000  0  6  2 24  4  5  7  9                  -0.001559344
   3864957.379 9   3018906.85047  22205940.823    22205940.3084   22205946.5774
        -0.000          -0.000
 -18289312.775 9 -12983827.72347  21574022.498    21574022.3464   21574028.4014
        -0.000          -0.000
 -15539470.366 9 -12087795.04149  20154444.452    20154444.6484   20154449.2984
        -0.000          -0.000
 -11039171.167 9  -7876509.19846  23266168.001    23266167.4574   23266173.4204
        -0.000          -0.000
   4442714.673 9   3463122.06048  21255670.979    21255670.3454   21255675.7304
        -0.000          -0.000
 -15659795.275 9 -11904414.09148  21038774.722    21038774.5394   21038779.2554
        -0.000          -0.000
 97  3 13 22 46 59.9980000  0  6  2 24  4  5  7  9                  -0.001568866
   3912095.112 9   3055637.50847  22214910.850    22214910.3274   22214916.6154
        -0.000          -0.000
 -18393928.319 9 -13065346.31247  21554114.722    21554114.5974   21554120.6674
        -0.000          -0.000
 -15583158.043 9 -12121837.37549  20146130.934    20146131.1344   20146135.7824
        -0.000          -0.000
 -11138492.622 9  -7953902.47946  23247267.638    23247267.1324   23247273.1524
        -0.000          -0.000
   4487653.202 9   3498139.08348  21264222.534    21264221.8954   21264227.2234
        -0.000          -0.000
 -15710986.163 9 -11944303.09948  21029033.476    21029033.2934   21029038.0054
        -0.000          -0.000
 97  3 13 22 47 29.9980000  0  6  2 24  4  5  7  9                  -0.001578400
   3959494.038 9   3092571.70447  22223930.571    22223930.0434   22223936.3174
        -0.000          -0.000
 -18498203.727 9 -13146599.85647  21534271.724    21534271.6044   21534277.6894
        -0.000          -0.000
 -15626236.117 9 -12155404.68849  20137933.448    20137933.6494   20137938.2734
        -0.000          -0.000
 -11237807.268 9  -8031290.47246  23228368.618    23228368.0964   23228374.1124
        -0.000          -0.000
   4532687.295 9   3533230.56748  21272792.312    21272791.6634   21272796.9614
        -0.000          -0.000
 -15761641.829 9 -11983775.05248  21019394.053    21019393.8664   21019398.5644
        -0.000          -0.000
 97  3 13 22 47 59.9980000  0  6  2 24  4  5  7  9                  -0.001587951
   4007151.704 9   3129707.53047  22232999.506    22232999.0254   22233005.2504
        -0.000          -0.000
 -18602148.025 9 -13227595.38547  21514491.779    21514491.6184   21514497.7644
        -0.000          -0.000
 -15668688.668 9 -12188484.58049  20129854.919    20129855.1314   20129859.7724
        -0.000          -0.000
 -11337104.823 9  -8108665.12346  23209472.739    23209472.2074   23209478.3704
        -0.000          -0.000
   4577824.921 9   3568402.72948  21281381.725    21281381.0964   21281386.4104
        -0.000          -0.000
 -15811758.750 9 -12022827.19548  21009857.067    21009856.9294   21009861.6584
        -0.000          -0.000
 97  3 13 22 48 29.9980000  0  6  2 24  4  5  7  9                  -0.001597505
   4055071.149 9   3167047.31847  22242118.413    22242117.8124   22242124.0194
        -0.000          -0.000
 -18705765.153 9 -13308335.97647  21494773.985    21494773.8684   21494780.0534
        -0.000          -0.000
 -15710534.436 9 -12221091.66149  20121891.934    20121892.1544   20121896.7964
        -0.000          -0.000
 -11436379.374 9  -8186021.88746  23190581.460    23190580.9644   23190587.0054
        -0.000          -0.000
   4623072.564 9   3603660.62348  21289992.092    21289991.4564   21289996.7484
        -0.000          -0.000
 -15861356.447 9 -12061474.75548  21000418.997    21000418.8624   21000423.5834
        -0.000          -0.000
 97  3 13 22 48 59.9980000  0  6  2 24  4  5  7  9                  -0.001607048
   4103265.846 9   3204601.59947  22251289.614    22251288.9734   22251295.2404
        -0.000          -0.000
 -18809047.277 9 -13388815.52347  21475119.981    21475119.9344   21475126.0604
        -0.000          -0.000
 -15751785.513 9 -12253235.34549  20114042.147    20114042.3584   20114046.9604
        -0.000          -0.000
 -11535625.898 9  -8263356.79746  23171695.566    23171694.9504   23171700.9474
        -0.000          -0.000
   4668425.940 9   3639000.90048  21298622.510    21298621.8914   21298627.2414
        -0.000          -0.000
 -15910416.141 9 -12099703.09348  20991083.251    20991083.1264   20991087.8164
        -0.000          -0.000
 97  3 13 22 49 29.9980000  0  6  2 24  4  5  7  9                  -0.001616578
   4151752.188 9   3242383.11547  22260516.207    22260515.6254   22260521.9404
        -0.000          -0.000
 -18912006.100 9 -13469043.15147  21455527.533    21455527.4574   21455533.6454
        -0.000          -0.000
 -15792448.783 9 -12284920.99649  20106304.175    20106304.3754   20106309.0004
        -0.000          -0.000
 -11634851.886 9  -8340675.71546  23152813.470    23152812.8814   23152818.8074
        -0.000          -0.000
   4713877.003 9   3674417.29748  21307271.465    21307270.8834   21307276.3004
        -0.000          -0.000
 -15958938.062 9 -12137512.38548  20981849.820    20981849.6884   20981854.3954
        -0.000          -0.000
 97  3 13 22 49 59.9980000  0  6  2 24  4  5  7  9                  -0.001626097
   4200528.634 9   3280390.70147  22269798.027    22269797.4604   22269803.7974
        -0.000          -0.000
 -19014653.916 9 -13549028.42647  21435994.332    21435994.1704   21436000.4174
        -0.000          -0.000
 -15832542.244 9 -12316162.64249  20098674.658    20098674.8574   20098679.5104
        -0.000          -0.000
 -11734077.721 9  -8417994.51746  23133931.461    23133930.8634   23133936.7714
        -0.000          -0.000
   4759403.376 9   3709892.37948  21315934.878    21315934.2864   21315939.6854
        -0.000          -0.000
 -16006931.986 9 -12174910.24848  20972716.865    20972716.7204   20972721.4344
        -0.000          -0.000
 97  3 13 22 50 29.9980000  0  6  2 24  4  5  7  9                  -0.001635599
   4249594.486 9   3318623.80247  22279134.950    22279134.4164   22279140.6754
        -0.000          -0.000
 -19116968.391 9 -13628753.96247  21416524.574    21416524.3494   21416530.6074
        -0.000          -0.000
 -15872071.198 9 -12346964.41149  20091152.601    20091152.7744   20091157.4024
        -0.000          -0.000
 -11833297.157 9  -8495308.29246  23115050.457    23115049.9644   23115055.9594
        -0.000          -0.000
   4805001.122 9   3745423.07648  21324611.885    21324611.2794   21324616.6324
        -0.000          -0.000
 -16054386.143 9 -12211887.51948  20963686.639    20963686.5024   20963691.1904
        -0.000          -0.000
 97  3 13 22 50 59.9980000  0  6  2 24  4  5  7  9                  -0.001645105
   4298928.090 9   3357065.53847  22288522.921    22288522.3174   22288528.5794
        -0.000          -0.000
 -19218958.339 9 -13708226.62547  21397116.520    21397116.2754   21397122.4954
        -0.000          -0.000
 -15911026.924 9 -12377319.50749  20083739.523    20083739.7064   20083744.3114
        -0.000          -0.000
 -11932526.663 9  -8572629.93046  23096167.732    23096167.1574   23096173.2034
        -0.000          -0.000
   4850664.668 9   3781005.04648  21333301.402    21333300.7834   21333306.0854
        -0.000          -0.000
 -16101315.020 9 -12248455.47648  20954756.367    20954756.1744   20954760.9404
        -0.000          -0.000
 97  3 13 22 51 29.9980000  0  6  2 24  4  5  7  9                  -0.001654632
   4348522.038 9   3395710.13147  22297960.369    22297959.8134   22297966.0704
        -0.000          -0.000
 -19320622.038 9 -13787445.04947  21377770.435    21377770.2584   21377776.5564
        -0.000          -0.000
 -15949394.885 9 -12407216.60849  20076438.347    20076438.5214   20076443.1224
        -0.000          -0.000
 -12031771.969 9  -8649963.89446  23077281.823    23077281.3204   23077287.3674
        -0.000          -0.000
   4896416.890 9   3816656.11348  21342007.842    21342007.1764   21342012.4554
        -0.000          -0.000
 -16147726.228 9 -12284620.06548  20945924.600    20945924.4384   20945929.2224
        -0.000          -0.000
 97  3 13 22 51 59.9980000  0  6  2 24  4  5  7  9                  -0.001664176
   4398362.702 9   3434546.96947  22307444.856    22307444.3084   22307450.4694
        -0.000          -0.000
 -19421948.193 9 -13866400.47548  21358488.726    21358488.5564   21358494.7704
        -0.000          -0.000
 -15987172.875 9 -12436653.98949  20069249.431    20069249.6084   20069254.1794
        -0.000          -0.000
 -12131017.078 9  -8727297.69346  23058396.041    23058395.5944   23058401.5944
        -0.000          -0.000
   4942283.179 9   3852396.06448  21350735.896    21350735.2344   21350740.5314
        -0.000          -0.000
 -16193620.666 9 -12320381.96648  20937191.191    20937191.0244   20937195.7924
        -0.000          -0.000
 97  3 13 22 52 29.9980000  0  6  2 24  4  5  7  9                  -0.001673741
   4448453.490 9   3473578.72147  22316976.857    22316976.2894   22316982.4054
        -0.000          -0.000
 -19522925.793 9 -13945084.28948  21339273.313    21339273.1284   21339279.3324
        -0.000          -0.000
 -16024338.757 9 -12465614.40649  20062177.014    20062177.1944   20062181.7304
        -0.000          -0.000
 -12230254.693 9  -8804625.64446  23039511.856    23039511.3394   23039517.3294
        -0.000          -0.000
   4988288.039 9   3888243.99047  21359490.278    21359489.6134   21359494.9044
        -0.000          -0.000
 -16239003.481 9 -12355745.20648  20928555.124    20928554.9534   20928559.7434
        -0.000          -0.000
 97  3 13 22 52 59.9980000  0  6  2 24  4  5  7  9                  -0.001683322
   4498810.967 9   3512818.27147  22326559.585    22326559.0244   22326565.1784
        -0.000          -0.000
 -19623554.076 9 -14023495.90748  21320124.373    21320124.2054   21320130.3844
        -0.000          -0.000
 -16060871.852 9 -12494081.73849  20055224.975    20055225.1474   20055229.6934
        -0.000          -0.000
 -12329471.073 9  -8881937.05746  23020631.520    23020631.0884   23020637.0464
        -0.000          -0.000
   5034435.428 9   3924202.98247  21368271.838    21368271.1844   21368276.4974
        -0.000          -0.000
 -16283869.270 9 -12390705.56548  20920017.448    20920017.3034   20920022.0314
        -0.000          -0.000
 97  3 13 22 53 29.9980000  0  6  2 24  4  5  7  9                  -0.001692898
   4549453.036 9   3552279.58347  22336196.636    22336196.0534   22336202.1164
        -0.000          -0.000
 -19723817.677 9 -14101623.36148  21301044.870    21301044.6944   21301050.8634
        -0.000          -0.000
 -16096783.501 9 -12522064.82949  20048391.203    20048391.4074   20048395.8984
        -0.000          -0.000
 -12428649.664 9  -8959219.01446  23001758.403    23001757.9754   23001763.9804
        -0.000          -0.000
   5080726.139 9   3960273.65147  21377080.684    21377080.0054   21377085.3414
        -0.000          -0.000
 -16328190.114 9 -12425241.29348  20911583.554    20911583.3724   20911588.0434
        -0.000          -0.000
 97  3 13 22 53 59.9980000  0  6  2 24  4  5  7  9                  -0.001702460
   4600385.037 9   3591966.81047  22345888.690    22345888.1434   22345894.1724
        -0.000          -0.000
 -19823710.962 9 -14179462.27648  21282035.837    21282035.6144   21282041.6874
        -0.000          -0.000
 -16132082.351 9 -12549570.41749  20041674.054    20041674.2484   20041678.7484
        -0.000          -0.000
 -12527788.184 9  -9036469.77146  22982893.054    22982892.5744   22982898.4784
        -0.000          -0.000
   5127138.367 9   3996439.00747  21385912.630    21385911.9714   21385917.2644
        -0.000          -0.000
 -16371955.172 9 -12459343.94048  20903255.363    20903255.1674   20903259.8134
        -0.000          -0.000
 97  3 13 22 54 29.9980000  0  6  2 24  4  5  7  9                  -0.001712027
   4651584.538 9   3631862.48247  22355631.620    22355631.0994   22355637.0914
        -0.000          -0.000
 -19923245.681 9 -14257021.76848  21263094.940    21263094.7164   21263100.8554
        -0.000          -0.000
 -16166787.900 9 -12576613.69349  20035069.800    20035069.9804   20035074.4664
        -0.000          -0.000
 -12626910.541 9  -9113707.91646  22964030.613    22964030.0734   22964036.0374
        -0.000          -0.000
   5173628.556 9   4032665.11847  21394759.488    21394758.8374   21394764.0694
        -0.000          -0.000
 -16415172.933 9 -12493020.12548  20895031.234    20895031.0414   20895035.7184
        -0.000          -0.000
 97  3 13 22 54 59.9980000  0  6  2 24  4  5  7  9                  -0.001721587
   4703050.332 9   3671965.65447  22365425.361    22365424.7494   22365430.7694
        -0.000          -0.000
 -20022413.475 9 -14334295.34548  21244224.003    21244223.7504   21244229.8394
        -0.000          -0.000
 -16200913.892 9 -12603205.36749  20028575.822    20028576.0254   20028580.4874
        -0.000          -0.000
 -12726002.637 9  -9190922.51146  22945174.064    22945173.5274   22945179.3654
        -0.000          -0.000
   5220192.736 9   4068948.88147  21403620.328    21403619.6924   21403624.9154
        -0.000          -0.000
 -16457817.382 9 -12526249.56748  20886916.268    20886916.0894   20886920.7544
        -0.000          -0.000
 97  3 13 22 55 29.9980000  0  6  2 24  4  5  7  9                  -0.001731147
   4754782.588 9   3712276.45847  22375269.677    22375269.1034   22375275.1484
        -0.000          -0.000
 -20121229.237 9 -14411294.61648  21225419.954    21225419.7084   21225425.7524
        -0.000          -0.000
 -16234481.226 9 -12629361.72649  20022188.169    20022188.3774   20022192.8294
        -0.000          -0.000
 -12825091.935 9  -9268134.89446  22926317.979    22926317.3524   22926323.2254
        -0.000          -0.000
   5266818.867 9   4105280.91347  21412493.035    21412492.3804   21412497.5734
        -0.000          -0.000
 -16499898.751 9 -12559040.25548  20878908.510    20878908.3224   20878912.9564
        -0.000          -0.000
 97  3 13 22 55 59.9980000  0  6  2 24  4  5  7  9                  -0.001740711
   4806786.645 9   3752799.05347  22385165.807    22385165.2734   22385171.2724
        -0.000          -0.000
 -20219684.642 9 -14488013.08448  21206684.524    21206684.2884   21206690.3234
        -0.000          -0.000
 -16267470.952 9 -12655067.99949  20015910.483    20015910.6834   20015915.1074
        -0.000          -0.000
 -12924178.925 9  -9345345.49046  22907462.292    22907461.7144   22907467.6034
        -0.000          -0.000
   5313505.269 9   4141659.91147  21421377.138    21421376.4804   21421381.7364
        -0.000          -0.000
 -16541422.978 9 -12591396.80048  20871006.691    20871006.5034   20871011.1674
        -0.000          -0.000
 97  3 13 22 56 29.9980000  0  6  2 24  4  5  7  9                  -0.001750266
   4859069.582 9   3793538.96247  22395114.942    22395114.3754   22395120.3614
        -0.000          -0.000
 -20317770.316 9 -14564443.45448  21188019.435    21188019.1904   21188025.2504
        -0.000          -0.000
 -16299878.051 9 -12680320.27949  20009743.609    20009743.7834   20009748.2224
        -0.000          -0.000
 -13023254.731 9  -9422547.37246  22888608.707    22888608.2164   22888614.0654
        -0.000          -0.000
   5360256.067 9   4178089.09547  21430273.454    21430272.8214   21430278.0694
        -0.000          -0.000
 -16582400.135 9 -12623327.06448  20863209.007    20863208.8214   20863213.4384
        -0.000          -0.000
 97  3 13 22 56 59.9980000  0  6  2 24  4  5  7  9                  -0.001759805
   4911656.673 9   3834515.86447  22405121.900    22405121.3684   22405127.3714
        -0.000          -0.000
 -20415484.152 9 -14640584.08148  21169425.050    21169424.8424   21169430.8904
        -0.000          -0.000
 -16331698.921 9 -12705115.75749  20003688.262    20003688.4554   20003692.9264
        -0.000          -0.000
 -13122326.203 9  -9499745.87646  22869755.957    22869755.4484   22869761.2984
        -0.000          -0.000
   5407085.689 9   4214579.69447  21439184.806    21439184.1924   21439189.5044
        -0.000          -0.000
 -16622837.754 9 -12654836.90548  20855513.970    20855513.8084   20855518.4374
        -0.000          -0.000
 97  3 13 22 57 29.9980000  0  6  2 24  4  5  7  9                  -0.001769326
   4964556.745 9   3875736.65246  22415188.444    22415187.8784   22415193.9194
        -0.000          -0.000
 -20512822.459 9 -14716432.09948  21150902.164    21150901.9954   21150907.9964
        -0.000          -0.000
 -16362915.282 9 -12729440.19149  19997747.956    19997748.1574   19997752.6174
        -0.000          -0.000
 -13221389.639 9  -9576938.13346  22850904.763    22850904.2884   22850910.0744
        -0.000          -0.000
   5453994.924 9   4251132.32147  21448111.326    21448110.7424   21448116.1374
        -0.000          -0.000
 -16662745.266 9 -12685933.68348  20847919.873    20847919.6864   20847924.3324
        -0.000          -0.000
 97  3 13 22 57 59.9980000  0  6  2 24  4  5  7  9                  -0.001778840
   5017746.293 9   3917183.00546  22425310.032    22425309.4024   22425315.5974
        -0.000          -0.000
 -20609771.078 9 -14791976.43948  21132453.449    21132453.2574   21132459.3014
        -0.000          -0.000
 -16393515.128 9 -12753284.22049  19991925.055    19991925.2384   19991929.6504
        -0.000          -0.000
 -13320429.693 9  -9654112.16846  22832058.020    22832057.5364   22832063.3644
        -0.000          -0.000
   5500987.181 9   4287749.64547  21457053.660    21457053.0814   21457058.5054
        -0.000          -0.000
 -16702112.823 9 -12716609.70848  20840428.494    20840428.2824   20840432.9824
        -0.000          -0.000
 97  3 13 22 58 29.9980000  0  6  2 24  4  5  7  9                  -0.001788345
   5071220.802 9   3958851.41146  22435485.909    22435485.3374   22435491.5634
        -0.000          -0.000
 -20706325.253 9 -14867213.43648  21114079.848    21114079.6074   21114085.6244
        -0.000          -0.000
 -16423500.235 9 -12776649.23549  19986219.101    19986219.2884   19986223.6364
        -0.000          -0.000
 -13419434.034 9  -9731258.37546  22813218.042    22813217.5884   22813223.3614
        -0.000          -0.000
   5548075.038 9   4324441.46947  21466014.257    21466013.6384   21466019.0374
        -0.000          -0.000
 -16740929.663 9 -12746856.60548  20833041.895    20833041.6854   20833046.3654
        -0.000          -0.000
 97  3 13 22 58 59.9980000  0  6  2 24  4  5  7  9                  -0.001797857
   5124957.758 9   4000724.30346  22445711.744    22445711.1484   22445717.4574
        -0.000          -0.000
 -20802497.030 9 -14942152.45748  21095778.924    21095778.6864   21095784.7324
        -0.000          -0.000
 -16452880.030 9 -12799542.57249  19980628.310    19980628.4994   19980632.8484
        -0.000          -0.000
 -13518407.490 9  -9808380.52646  22794384.148    22794383.6274   22794389.3054
        -0.000          -0.000
   5595258.254 9   4361207.59647  21474992.935    21474992.2724   21474997.7064
        -0.000          -0.000
 -16779185.082 9 -12776666.03448  20825762.135    20825761.9254   20825766.6284
        -0.000          -0.000
 97  3 13 22 59 29.9980000  0  6  2 24  4  5  7  9                  -0.001807384
   5178936.122 9   4042785.32846  22455983.579    22455982.9664   22455989.2394
        -0.000          -0.000
 -20898287.997 9 -15016794.73848  21077550.351    21077550.2264   21077556.2854
        -0.000          -0.000
 -16481653.582 9 -12821963.51849  19975152.907    19975153.0894   19975157.4134
        -0.000          -0.000
 -13617335.743 9  -9885467.43646  22775558.675    22775558.2094   22775563.7934
        -0.000          -0.000
   5642527.822 9   4398041.00847  21483987.920    21483987.2854   21483992.8404
        -0.000          -0.000
 -16816875.296 9 -12806035.04048  20818589.854    20818589.6904   20818594.4234
        -0.000          -0.000
 97  3 13 22 59 59.9980000  0  6  2 24  4  5  7  9                  -0.001816918
   5233159.965 9   4085037.62446  22466302.114    22466301.4934   22466307.7214
        -0.000          -0.000
 -20993693.964 9 -15091137.01248  21059395.228    21059395.0444   21059401.1414
        -0.000          -0.000
 -16509833.977 9 -12843922.25749  19969790.354    19969790.5324   19969794.8654
        -0.000          -0.000
 -13716220.255 9  -9962520.26846  22756741.615    22756741.1864   22756746.7204
        -0.000          -0.000
   5689883.060 9   4434941.17547  21492999.293    21492998.6674   21493004.3234
        -0.000          -0.000
 -16853998.557 9 -12834962.26648  20811525.550    20811525.3814   20811530.1694
        -0.000          -0.000
 97  3 13 23  0 29.9980000  0  6  2 24  4  5  7  9                  -0.001826439
   5287650.978 9   4127498.11246  22476671.447    22476670.7854   22476677.0274
        -0.000          -0.000
 -21088718.018 9 -15165181.69748  21041312.744    21041312.5434   21041318.6154
        -0.000          -0.000
 -16537429.918 9 -12865425.57749  19964539.023    19964539.1874   19964543.5314
        -0.000          -0.000
 -13815051.586 9 -10039531.65246  22737934.664    22737934.2164   22737939.7574
        -0.000          -0.000
   5737338.038 9   4471919.06547  21502029.752    21502029.1354   21502034.7634
        -0.000          -0.000
 -16890551.209 9 -12863444.86348  20804569.792    20804569.6764   20804574.4584
        -0.000          -0.000
 97  3 13 23  0 59.9980000  0  6  2 24  4  5  7  9                  -0.001835961
   5342400.274 9   4170159.86946  22487089.880    22487089.2424   22487095.5474
        -0.000          -0.000
 -21183377.619 9 -15238942.39148  21023299.562    21023299.3834   21023305.4434
        -0.000          -0.000
 -16564443.912 9 -12886475.43249  19959398.408    19959398.5664   19959402.9484
        -0.000          -0.000
 -13913844.161 9 -10116512.84946  22719135.250    22719134.6804   22719140.0754
        -0.000          -0.000
   5784878.070 9   4508963.22447  21511076.383    21511075.7724   21511081.3464
        -0.000          -0.000
 -16926543.841 9 -12891491.07848  20797720.636    20797720.4784   20797725.2664
        -0.000          -0.000
 97  3 13 23  1 29.9980000  0  6  2 24  4  5  7  9                  -0.001845481
   5397418.569 9   4213031.20546  22497559.641    22497558.9444   22497565.1844
        -0.000          -0.000
 -21277666.400 9 -15312414.13348  21005356.928    21005356.8044   21005362.8914
        -0.000          -0.000
 -16590871.679 9 -12907068.48849  19954369.376    19954369.5574   19954373.9154
        -0.000          -0.000
 -14012607.666 9 -10193471.37746  22700341.179    22700340.5524   22700346.0004
        -0.000          -0.000
   5832495.389 9   4546067.61647  21520137.695    21520137.0494   21520142.6064
        -0.000          -0.000
 -16961989.065 9 -12919110.74148  20790975.699    20790975.5374   20790980.2794
        -0.000          -0.000
 97  3 13 23  1 59.9980000  0  6  2 24  4  5  7  9                  -0.001855002
   5452713.138 9   4256117.82746  22508081.788    22508081.1204   22508087.4534
        -0.000          -0.000
 -21371567.795 9 -15385584.01848  20987488.075    20987487.9054   20987494.0364
        -0.000          -0.000
 -16616702.580 9 -12927196.45549  19949453.918    19949454.0614   19949458.4464
        -0.000          -0.000
 -14111342.289 9 -10270407.40746  22681552.523    22681551.8994   22681557.3414
        -0.000          -0.000
   5880208.414 9   4583246.57747  21529217.355    21529216.6634   21529222.0884
        -0.000          -0.000
 -16996869.431 9 -12946290.26148  20784338.228    20784338.0524   20784342.7794
        -0.000          -0.000
 97  3 13 23  2 29.9980000  0  6  2 24  4  5  7  9                  -0.001864544
   5508260.743 9   4299401.62046  22518652.189    22518651.6014   22518657.9084
        -0.000          -0.000
 -21465090.913 9 -15458459.14748  20969691.198    20969691.0354   20969697.1054
        -0.000          -0.000
 -16641937.897 9 -12946860.32649  19944651.733    19944651.9054   19944656.3234
        -0.000          -0.000
 -14210063.330 9 -10347332.86446  22662766.615    22662765.9444   22662771.2934
        -0.000          -0.000
   5928008.504 9   4620493.38947  21538313.483    21538312.7864   21538318.1494
        -0.000          -0.000
 -17031205.849 9 -12973045.91548  20777804.227    20777804.0364   20777808.7774
        -0.000          -0.000
 97  3 13 23  2 59.9980000  0  6  2 24  4  5  7  9                  -0.001874116
   5564051.552 9   4342874.92846  22529268.979    22529268.3524   22529274.6864
        -0.000          -0.000
 -21558221.151 9 -15531028.12948  20951969.125    20951968.9144   20951975.0014
        -0.000          -0.000
 -16666568.182 9 -12966052.74849  19939964.683    19939964.8704   19939969.3244
        -0.000          -0.000
 -14308781.015 9 -10424255.70846  22643981.233    22643980.6084   22643985.8294
        -0.000          -0.000
   5975869.739 9   4657787.83447  21547421.144    21547420.5114   21547425.8124
        -0.000          -0.000
 -17065019.150 9 -12999393.94748  20771369.688    20771369.5304   20771374.2814
        -0.000          -0.000
 97  3 13 23  3 29.9980000  0  6  2 24  4  5  7  9                  -0.001883696
   5620114.275 9   4386560.13346  22539937.402    22539936.7274   22539943.1054
        -0.000          -0.000
 -21650929.629 9 -15603268.48248  20934327.310    20934327.0774   20934333.0914
        -0.000          -0.000
 -16690578.419 9 -12984762.01349  19935395.722    19935395.8834   19935400.3134
        -0.000          -0.000
 -14407468.138 9 -10501154.71746  22625201.714    22625201.0104   22625206.3854
        -0.000          -0.000
   6023810.361 9   4695144.15147  21556543.988    21556543.3564   21556548.5994
        -0.000          -0.000
 -17098290.960 9 -13025320.04248  20765038.286    20765038.0934   20765042.8734
        -0.000          -0.000
 97  3 13 23  3 59.9980000  0  6  2 24  4  5  7  9                  -0.001893276
   5676442.895 9   4430452.51346  22550656.271    22550655.6364   22550662.1394
        -0.000          -0.000
 -21743223.344 9 -15675185.62348  20916764.356    20916764.0964   20916770.1324
        -0.000          -0.000
 -16713978.925 9 -13002996.16349  19930942.750    19930942.9054   19930947.3454
        -0.000          -0.000
 -14506113.113 9 -10578020.89846  22606430.145    22606429.4354   22606434.8544
        -0.000          -0.000
   6071832.110 9   4732563.68147  21565682.321    21565681.6094   21565686.8774
        -0.000          -0.000
 -17131024.104 9 -13050826.39648  20758809.339    20758809.1754   20758813.9444
        -0.000          -0.000
 97  3 13 23  4 29.9980000  0  6  2 24  4  5  7  9                  -0.001902839
   5733053.735 9   4474564.81046  22561428.680    22561428.2184   22561434.8914
        -0.000          -0.000
 -21835098.391 9 -15746776.54548  20899281.067    20899280.8594   20899286.8624
        -0.000          -0.000
 -16736768.348 9 -13020754.14749  19926606.071    19926606.2474   19926610.6844
        -0.000          -0.000
 -14604696.984 9 -10654839.44046  22587669.990    22587669.3724   22587674.8774
        -0.000          -0.000
   6119925.134 9   4770038.75247  21574834.092    21574833.3844   21574838.6884
        -0.000          -0.000
 -17163216.054 9 -13075911.03748  20752683.492    20752683.3064   20752688.0904
        -0.000          -0.000
 97  3 13 23  4 59.9980000  0  6  2 24  4  5  7  9                  -0.001912377
   5789948.919 9   4518898.66846  22572255.623    22572255.1124   22572261.7074
        -0.000          -0.000
 -21926562.199 9 -15818047.02748  20881876.096    20881875.8884   20881881.7534
        -0.000          -0.000
 -16758958.441 9 -13038045.12349  19922383.452    19922383.5914   19922388.0034
        -0.000          -0.000
 -14703219.963 9 -10731610.54947  22568921.772    22568921.1614   22568926.6014
        -0.000          -0.000
   6168072.845 9   4807556.43747  21583996.221    21583995.5414   21584000.8114
        -0.000          -0.000
 -17194852.154 9 -13100562.55348  20746663.410    20746663.1844   20746667.9744
        -0.000          -0.000
 97  3 13 23  5 29.9980000  0  6  2 24  4  5  7  9                  -0.001921896
   5847125.746 9   4563451.99446  22583136.255    22583135.6614   22583142.1754
        -0.000          -0.000
 -22017631.111 9 -15889009.79448  20864546.319    20864546.0854   20864551.8904
        -0.000          -0.000
 -16780562.950 9 -13054879.80249  19918272.217    19918272.3874   19918276.7654
        -0.000          -0.000
 -14801686.773 9 -10808337.89147  22550184.023    22550183.5434   22550188.9654
        -0.000          -0.000
   6216289.362 9   4845127.73947  21593171.496    21593170.8494   21593176.1264
        -0.000          -0.000
 -17225915.823 9 -13124768.02348  20740752.141    20740751.9564   20740756.7684
        -0.000          -0.000
 97  3 13 23  5 59.9980000  0  6  2 24  4  5  7  9                  -0.001931402
   5904579.118 9   4608220.79146  22594069.311    22594068.7714   22594075.3084
        -0.000          -0.000
 -22108301.582 9 -15959662.08748  20847292.266    20847292.0904   20847297.8664
        -0.000          -0.000
 -16801584.481 9 -13071260.21349  19914271.962    19914272.1164   19914276.4944
        -0.000          -0.000
 -14900102.548 9 -10885025.47847  22531456.118    22531455.6184   22531460.9624
        -0.000          -0.000
   6264575.407 9   4882753.21147  21602359.968    21602359.3474   21602364.6514
        -0.000          -0.000
 -17256402.959 9 -13148524.24348  20734950.647    20734950.5024   20734955.2674
        -0.000          -0.000
 97  3 13 23  6 29.9980000  0  6  2 24  4  5  7  9                  -0.001940891
   5962330.101 9   4653221.50446  22605059.123    22605058.5234   22605065.0114
        -0.000          -0.000
 -22198552.675 9 -16029987.58748  20830118.118    20830117.9104   20830123.6444
        -0.000          -0.000
 -16821996.653 9 -13087165.79749  19910387.661    19910387.8154   19910392.1714
        -0.000          -0.000
 -14998462.550 9 -10961669.59947  22512738.788    22512738.3364   22512743.6954
        -0.000          -0.000
   6312939.589 9   4920439.57347  21611563.484    21611562.8064   21611568.1224
        -0.000          -0.000
 -17286286.681 9 -13171810.26348  20729263.996    20729263.8394   20729268.5664
        -0.000          -0.000
 97  3 13 23  6 59.9980000  0  6  2 24  4  5  7  9                  -0.001950375
   6020362.372 9   4698441.39646  22616102.345    22616101.6694   22616108.2724
        -0.000          -0.000
 -22288388.092 9 -16099989.18848  20813023.015    20813022.7944   20813028.4864
        -0.000          -0.000
 -16841803.621 9 -13102599.79649  19906618.513    19906618.6954   19906623.0554
        -0.000          -0.000
 -15096771.120 9 -11038273.63347  22494031.342    22494030.8074   22494036.1854
        -0.000          -0.000
   6361393.746 9   4958196.03947  21620784.064    21620783.3834   21620788.6854
        -0.000          -0.000
 -17315587.683 9 -13194642.22348  20723688.199    20723688.0094   20723692.7594
        -0.000          -0.000
 97  3 13 23  7 29.9980000  0  6  2 24  4  5  7  9                  -0.001959867
   6078656.152 9   4743865.07746  22627195.339    22627194.6594   22627201.2474
        -0.000          -0.000
 -22377816.082 9 -16169673.31648  20796005.397    20796005.1954   20796010.8454
        -0.000          -0.000
 -16861009.880 9 -13117565.70849  19902963.720    19902963.8654   19902968.2054
        -0.000          -0.000
 -15195034.024 9 -11114842.10246  22475332.528    22475331.9814   22475337.2914
        -0.000          -0.000
   6409935.915 9   4996021.09547  21630021.412    21630020.7284   21630026.0324
        -0.000          -0.000
 -17344322.229 9 -13217032.79148  20718220.224    20718220.0654   20718224.7544
        -0.000          -0.000
 97  3 13 23  7 59.9980000  0  7  2 24  4  5  7  9 16               -0.001969343
   6137208.376 9   4789490.12446  22638337.478    22638336.8454   22638343.3974
        -0.000          -0.000
 -22466831.109 9 -16239035.64648  20779066.347    20779066.1324   20779071.8314
        -0.000          -0.000
 -16879604.995 9 -13132055.40349  19899425.199    19899425.3254   19899429.6664
        -0.000          -0.000
 -15293245.227 9 -11191370.27946  22456643.437    22456642.9304   22456648.2604
        -0.000          -0.000
   6458551.146 9   5033903.06747  21639272.586    21639271.9344   21639277.2024
        -0.000          -0.000
 -17372496.009 9 -13238986.39448  20712858.937    20712858.7664   20712863.4974
        -0.000          -0.000
  -4244916.52919  -3291718.59555  24075979.300    24075978.7075   24075985.5165
        -0.000          -0.000
 97  3 13 23  8 29.9980000  0  7  2 24  4  5  7  9 16               -0.001978879
   6196000.058 9   4835301.76846  22649525.106    22649524.5414   22649531.1174
        -0.000          -0.000
 -22555440.562 9 -16308081.94648  20762204.465    20762204.2654   20762210.0124
        -0.000          -0.000
 -16897589.987 9 -13146069.67849  19896002.746    19896002.8844   19896007.1974
        -0.000          -0.000
 -15391401.498 9 -11267855.64246  22437964.845    22437964.2904   22437969.5904
        -0.000          -0.000
   6507232.714 9   5071836.74047  21648536.383    21648535.7304   21648541.0004
        -0.000          -0.000
 -17400117.666 9 -13260509.77348  20707602.715    20707602.5454   20707607.3194
        -0.000          -0.000
  -4283810.243 9  -3322025.35645  24068578.199    24068577.5404   24068584.0484
        -0.000          -0.000
 97  3 13 23  8 59.9980000  0  7  2 24  4  5  7  9 16               -0.001988420
   6255029.341 9   4881298.55046  22660758.020    22660757.4444   22660764.0774
        -0.000          -0.000
 -22643638.573 9 -16376807.65648  20745420.937    20745420.7244   20745426.4744
        -0.000          -0.000
 -16914968.221 9 -13159611.15549  19892695.811    19892695.9334   19892700.2394
        -0.000          -0.000
 -15489490.067 9 -11344288.26147  22419299.199    22419298.6234   22419303.9414
        -0.000          -0.000
   6555984.199 9   5109824.89347  21657813.542    21657812.8884   21657818.1184
        -0.000          -0.000
 -17427190.339 9 -13281605.37648  20702450.972    20702450.7724   20702455.5534
        -0.000          -0.000
  -4322259.151 8  -3351985.50045  24061261.517    24061260.8874   24061267.4274
        -0.000          -0.000
 97  3 13 23  9 29.9980000  0  7  2 24  4  5  7  9 16               -0.001997967
   6314303.461 9   4927486.12646  22672037.554    22672036.9864   22672043.5684
        -0.000          -0.000
 -22731428.049 9 -16445215.01548  20728715.192    20728714.9494   20728720.7064
        -0.000          -0.000
 -16931746.569 9 -13172685.18849  19889503.009    19889503.1434   19889507.4504
        -0.000          -0.000
 -15587536.609 9 -11420688.12547  22400641.539    22400640.9894   22400646.3224
        -0.000          -0.000
   6604782.877 9   5147849.81247  21667099.684    21667099.0394   21667104.2934
        -0.000          -0.000
 -17453698.190 9 -13302260.85648  20697406.706    20697406.5244   20697411.3104
        -0.000          -0.000
  -4360265.838 8  -3381601.06645  24054028.954    24054028.2234   24054034.9734
        -0.000          -0.000
 97  3 13 23  9 59.9980000  0  7  2 24  4  5  7  9 16               -0.002007517
   6373835.635 9   4973874.78146  22683366.143    22683365.5934   22683372.2474
        -0.000          -0.000
 -22818799.630 9 -16513296.74648  20712088.875    20712088.6594   20712094.4344
        -0.000          -0.000
 -16947932.273 9 -13185297.41649  19886422.984    19886423.0964   19886427.4334
        -0.000          -0.000
 -15685542.193 9 -11497056.06647  22381991.566    22381991.0204   22381996.4354
        -0.000          -0.000
   6653621.701 9   5185906.02747  21676393.422    21676392.6764   21676397.9934
        -0.000          -0.000
 -17479648.916 9 -13322482.21348  20692468.491    20692468.2924   20692473.0994
        -0.000          -0.000
  -4397845.146 8  -3410883.63245  24046877.964    24046877.2834   24046883.6734
        -0.000          -0.000
 97  3 13 23 10 29.9970000  0  7  2 24  4  5  7  9 16               -0.002017062
   6433627.344 9   5020465.66246  22694744.273    22694743.6264   22694750.2524
        -0.000          -0.000
 -22905754.561 9 -16581053.81348  20695541.898    20695541.6954   20695547.4804
        -0.000          -0.000
 -16963549.418 9 -13197466.60949  19883451.063    19883451.2034   19883455.5534
        -0.000          -0.000
 -15783507.898 9 -11573392.94447  22363349.223    22363348.7864   22363354.1644
        -0.000          -0.000
   6702501.359 9   5223994.06047  21685694.812    21685694.1364   21685699.5044
        -0.000          -0.000
 -17505055.288 9 -13342279.39148  20687633.855    20687633.6494   20687638.4654
        -0.000          -0.000
  -4434991.016 8  -3439828.41545  24039809.157    24039808.5084   24039815.2704
        -0.000          -0.000
 97  3 13 23 10 59.9970000  0  7  2 24  4  5  7  9 16               -0.002026592
   6493710.304 9   5067283.49146  22706177.736    22706177.0714   22706183.7054
        -0.000          -0.000
 -22992277.273 9 -16648474.10048  20679077.080    20679076.9134   20679082.7074
        -0.000          -0.000
 -16978592.214 9 -13209188.26949  19880588.466    19880588.6454   19880592.9754
        -0.000          -0.000
 -15881440.787 9 -11649704.24547  22344713.263    22344712.7674   22344718.2074
        -0.000          -0.000
   6751431.352 9   5262121.30547  21695005.897    21695005.1614   21695010.5354
        -0.000          -0.000
 -17529909.909 9 -13361646.64048  20682904.135    20682903.9244   20682908.7504
        -0.000          -0.000
  -4471702.257 8  -3468434.55445  24032823.015    24032822.4834   24032829.3984
        -0.000          -0.000
 97  3 13 23 11 29.9970000  0  7  2 24  4  5  7  9 16               -0.002036114
   6554077.177 9   5114322.56246  22717665.133    22717664.5884   22717671.0764
        -0.000          -0.000
 -23078357.723 9 -16715549.75648  20662696.527    20662696.3634   20662702.1154
        -0.000          -0.000
 -16993073.857 9 -13220472.65749  19877832.712    19877832.8934   19877837.1994
        -0.000          -0.000
 -15979351.957 9 -11725998.63647  22326081.598    22326080.9564   22326086.3474
        -0.000          -0.000
   6800410.549 9   5300286.89947  21704326.229    21704325.5984   21704330.9364
        -0.000          -0.000
 -17554219.448 9 -13380589.14548  20678278.136    20678277.9864   20678282.8104
        -0.000          -0.000
  -4507993.852 8  -3496713.70345  24025917.025    24025916.4654   24025923.3594
        -0.000          -0.000
 97  3 13 23 11 59.9970000  0  7  2 24  4  5  7  9 16               -0.002045620
   6614723.289 9   5161579.21146  22729205.847    22729205.2784   22729211.6324
        -0.000          -0.000
 -23163983.639 9 -16782271.24048  20646402.494    20646402.2734   20646408.0244
        -0.000          -0.000
 -17006986.383 9 -13231313.58549  19875185.275    19875185.4454   19875189.7584
        -0.000          -0.000
 -16077208.014 9 -11802250.07347  22307460.138    22307459.5474   22307465.0074
        -0.000          -0.000
   6849456.732 9   5338504.69047  21713659.448    21713658.7674   21713664.0304
        -0.000          -0.000
 -17577983.079 9 -13399106.27348  20673756.058    20673755.9174   20673760.7354
        -0.000          -0.000
  -4543850.879 8  -3524654.18345  24019093.706    24019092.9684   24019100.1564
        -0.000          -0.000
 97  3 13 23 12 29.9970000  0  7  2 24  4  5  7  9 16               -0.002055115
   6675638.914 9   5209045.87346  22740797.867    22740797.2344   22740803.5324
        -0.000          -0.000
 -23249156.523 9 -16848639.70748  20630194.570    20630194.3544   20630200.1144
        -0.000          -0.000
 -17020321.633 9 -13241704.67549  19872647.701    19872647.8624   19872652.1694
        -0.000          -0.000
 -16175008.817 9 -11878458.44147  22288849.248    22288848.6614   22288854.2034
        -0.000          -0.000
   6898571.251 9   5376775.73047  21723005.614    21723004.9374   21723010.2144
        -0.000          -0.000
 -17601193.560 9 -13417192.37048  20669339.302    20669339.1044   20669343.8964
        -0.000          -0.000
  -4579262.997 8  -3552248.02445  24012355.025    24012354.2924   24012361.4074
        -0.000          -0.000
 97  3 13 23 12 59.9970000  0  7  2 24  4  5  7  9 16               -0.002064610
   6736822.502 9   5256721.32146  22752440.720    22752440.1134   22752446.4974
        -0.000          -0.000
 -23333857.470 9 -16914640.43548  20614076.459    20614076.2524   20614082.0544
        -0.000          -0.000
 -17033045.138 9 -13251619.09249  19870226.512    19870226.6784   19870230.9524
        -0.000          -0.000
 -16272741.114 9 -11954613.45147  22270251.313    22270250.7374   22270256.2814
        -0.000          -0.000
   6947763.693 9   5415107.48047  21732366.715    21732366.0564   21732371.3504
        -0.000          -0.000
 -17623820.111 9 -13434823.45848  20665033.584    20665033.4254   20665038.1904
        -0.000          -0.000
  -4614230.404 8  -3579495.31145  24005701.008    24005700.3194   24005707.1924
        -0.000          -0.000
 97  3 13 23 13 29.9970000  0  7  2 24  4  5  7  9 16               -0.002074106
   6798258.543 9   5304593.48946  22764131.676    22764131.0304   22764137.4284
        -0.000          -0.000
 -23418103.951 9 -16980287.03648  20598044.867    20598044.6804   20598050.4754
        -0.000          -0.000
 -17045162.828 9 -13261061.44549  19867920.613    19867920.7554   19867925.0174
        -0.000          -0.000
 -16370393.591 9 -12030706.26547  22251668.575    22251668.0514   22251673.4924
        -0.000          -0.000
   6997029.434 9   5453496.35447  21741741.682    21741740.9964   21741746.3624
        -0.000          -0.000
 -17645867.201 9 -13452003.02348  20660838.205    20660838.0194   20660842.7804
        -0.000          -0.000
  -4648748.649 9  -3606392.57845  23999132.443    23999131.7774   23999138.6574
        -0.000          -0.000
 97  3 13 23 13 59.9970000  0  7  2 24  4  5  7  9 16               -0.002083611
   6859934.872 9   5352652.90446  22775868.250    22775867.7054   22775874.1504
        -0.000          -0.000
 -23501922.830 9 -17045600.43348  20582094.682    20582094.4634   20582100.2874
        -0.000          -0.000
 -17056663.759 9 -13270023.20549  19865732.048    19865732.2104   19865736.4864
        -0.000          -0.000
 -16467955.979 9 -12106728.86347  22233103.154    22233102.5444   22233107.9754
        -0.000          -0.000
   7046353.654 9   5491930.79047  21751127.722    21751127.0884   21751132.4694
        -0.000          -0.000
 -17667343.253 9 -13468737.61548  20656751.465    20656751.2994   20656756.0724
        -0.000          -0.000
  -4682816.698 8  -3632939.08645  23992649.703    23992648.8554   23992655.7614
        -0.000          -0.000
 97  3 13 23 14 29.9970000  0  7  2 24  4  5  7  9 16               -0.002093127
   6921865.435 9   5400910.43446  22787653.316    22787652.7764   22787659.2184
        -0.000          -0.000
 -23585307.878 9 -17110575.78148  20566226.937    20566226.7584   20566232.6124
        -0.000          -0.000
 -17067544.500 9 -13278501.69749  19863661.525    19863661.6634   19863665.9694
        -0.000          -0.000
 -16565437.636 9 -12182688.56547  22214552.934    22214552.3454   22214557.7554
        -0.000          -0.000
   7095730.623 9   5530406.33447  21760523.821    21760523.2034   21760528.6414
        -0.000          -0.000
 -17688241.749 9 -13485022.16548  20652774.635    20652774.4824   20652779.2394
        -0.000          -0.000
  -4716435.197 8  -3659135.27845  23986252.219    23986251.4354   23986258.2804
        -0.000          -0.000
 97  3 13 23 14 59.9970000  0  7  2 24  4  5  7  9 16               -0.002102660
   6984030.281 9   5449350.50746  22799483.050    22799482.5174   22799488.8724
        -0.000          -0.000
 -23668272.034 9 -17175223.16648  20550439.384    20550439.1974   20550445.0514
        -0.000          -0.000
 -17077829.942 9 -13286516.32849  19861704.263    19861704.4284   19861708.7234
        -0.000          -0.000
 -16662852.367 9 -12258596.12347  22196015.506    22196014.9294   22196020.2974
        -0.000          -0.000
   7145145.276 9   5568911.23847  21769927.130    21769926.5234   21769931.9514
        -0.000          -0.000
 -17708574.277 9 -13500865.70848  20648905.435    20648905.2714   20648910.0464
        -0.000          -0.000
  -4749621.416 8  -3684994.64945  23979936.815    23979936.1164   23979943.3004
        -0.000          -0.000
 97  3 13 23 15 29.9970000  0  7  2 24  4  5  7  9 16               -0.002112195
   7046452.008 9   5497990.73446  22811361.547    22811361.0144   22811367.4034
        -0.000          -0.000
 -23750806.227 9 -17239535.51448  20534733.661    20534733.4704   20534739.3374
        -0.000          -0.000
 -17087516.912 9 -13294064.61449  19859860.896    19859861.0444   19859865.3234
        -0.000          -0.000
 -16760190.946 9 -12334444.32147  22177492.463    22177491.9324   22177497.3774
        -0.000          -0.000
   7194611.493 9   5607456.32847  21779340.386    21779339.7374   21779345.1044
        -0.000          -0.000
 -17728336.494 9 -13516264.85048  20645144.786    20645144.6244   20645149.4204
        -0.000          -0.000
  -4782349.948 8  -3710497.39445  23973708.566    23973707.9884   23973715.4274
        -0.000          -0.000
 97  3 13 23 15 59.9970000  0  7  2 24  4  5  7  9 16               -0.002121740
   7109125.844 9   5546827.42846  22823288.143    22823287.5464   22823293.9424
        -0.000          -0.000
 -23832906.695 9 -17303509.89248  20519110.452    20519110.2954   20519116.1124
        -0.000          -0.000
 -17096605.422 9 -13301146.56849  19858131.387    19858131.5324   19858135.7934
        -0.000          -0.000
 -16857469.024 9 -12410245.38847  22158981.009    22158980.5374   22158985.8904
        -0.000          -0.000
   7244126.986 9   5646039.80547  21788762.939    21788762.3344   21788767.7714
        -0.000          -0.000
 -17747525.267 9 -13531217.15648  20641493.336    20641493.1524   20641497.9814
        -0.000          -0.000
  -4814627.724 8  -3735648.89245  23967566.152    23967565.5814   23967573.1094
        -0.000          -0.000
 97  3 13 23 16 29.9970000  0  7  2 24  4  5  7  9 16               -0.002131296
   7172052.636 9   5595861.22546  22835262.759    22835262.1864   22835268.5464
        -0.000          -0.000
 -23914568.078 9 -17367142.12748  20503570.837    20503570.6434   20503576.4674
        -0.000          -0.000
 -17105116.018 9 -13307778.20049  19856511.776    19856511.9434   19856516.2784
        -0.000          -0.000
 -16954701.472 9 -12486010.89147  22140478.288    22140477.7974   22140483.1234
        -0.000          -0.000
   7293692.622 9   5684662.36247  21798194.965    21798194.3844   21798199.8714
        -0.000          -0.000
 -17766142.310 9 -13545723.95848  20637950.622    20637950.4344   20637955.2924
        -0.000          -0.000
  -4846463.410 8  -3760455.88145  23961507.879    23961507.1744   23961514.9574
        -0.000          -0.000
 97  3 13 23 16 59.9970000  0  7  2 24  4  5  7  9 16               -0.002140857
   7235238.436 9   5645096.83946  22847286.558    22847285.9534   22847292.4284
        -0.000          -0.000
 -23995792.643 9 -17430433.98448  20488114.352    20488114.1544   20488119.9524
        -0.000          -0.000
 -17113045.320 9 -13313956.87449  19855002.819    19855003.0184   19855007.3734
        -0.000          -0.000
 -17051872.646 9 -12561728.65947  22121987.227    22121986.7274   22121992.0304
        -0.000          -0.000
   7343316.584 9   5723330.37347  21807638.114    21807637.5374   21807642.9684
        -0.000          -0.000
 -17784192.674 9 -13559789.19048  20634515.696    20634515.5324   20634520.3704
        -0.000          -0.000
  -4877846.980 8  -3784910.59245  23955535.562    23955534.9784   23955542.9794
        -0.000          -0.000
 97  3 13 23 17 29.9970000  0  7  2 24  4  5  7  9 16               -0.002150417
   7298695.600 9   5694543.91546  22859361.845    22859361.3534   22859367.9834
        -0.000          -0.000
 -24076576.832 9 -17493382.68648  20472741.625    20472741.4164   20472747.2424
        -0.000          -0.000
 -17120395.718 9 -13319684.45249  19853604.054    19853604.2364   19853608.5964
        -0.000          -0.000
 -17148984.626 9 -12637400.31247  22103507.513    22103506.9514   22103512.0584
        -0.000          -0.000
   7392999.576 9   5762044.37847  21817092.508    21817091.9424   21817097.3014
        -0.000          -0.000
 -17801685.504 9 -13573419.97848  20631186.922    20631186.7574   20631191.5254
        -0.000          -0.000
  -4908773.089 8  -3809008.79745  23949650.353    23949649.9824   23949657.8334
        -0.000          -0.000
 97  3 13 23 17 59.9970000  0  7  2 24  4  5  7  9 16               -0.002159965
   7362432.984 9   5744209.37246  22871490.896    22871490.2074   22871496.7604
        -0.000          -0.000
 -24156902.570 9 -17555974.15648  20457456.116    20457455.9184   20457461.6994
        -0.000          -0.000
 -17127161.390 9 -13324956.39849  19852316.604    19852316.7674   19852321.0994
        -0.000          -0.000
 -17246015.979 9 -12713009.14247  22085042.949    22085042.4434   22085047.5824
        -0.000          -0.000
   7442748.780 9   5800809.97347  21826559.538    21826558.8884   21826564.2824
        -0.000          -0.000
 -17818613.986 9 -13586611.01448  20627965.447    20627965.3174   20627970.1074
        -0.000          -0.000
  -4939240.723 8  -3832749.80045  23943852.447    23943852.0364   23943859.8944
        -0.000          -0.000
 97  3 13 23 18 29.9970000  0  7  2 24  4  5  7  9 16               -0.002169496
   7426453.464 9   5794095.42446  22883673.517    22883672.8844   22883679.3984
        -0.000          -0.000
 -24236769.998 9 -17618208.49448  20442257.791    20442257.6104   20442263.3934
        -0.000          -0.000
 -17133350.731 9 -13329779.25749  19851138.771    19851138.9634   19851143.3184
        -0.000          -0.000
 -17342963.725 9 -12788552.79847  22066594.298    22066593.8054   22066599.0824
        -0.000          -0.000
   7492551.537 9   5839617.29047  21836036.556    21836035.9574   21836041.3264
        -0.000          -0.000
 -17834978.334 9 -13599362.47148  20624851.445    20624851.3134   20624856.0794
        -0.000          -0.000
  -4969249.734 9  -3856133.41845  23938141.843    23938141.5394   23938149.3734
        -0.000          -0.000
 97  3 13 23 18 59.9970000  0  7  2 24  4  5  7  9 16               -0.002179012
   7490746.793 9   5844194.06646  22895908.019    22895907.5044   22895914.1114
        -0.000          -0.000
 -24316178.727 9 -17680085.41148  20427146.803    20427146.6114   20427152.3854
        -0.000          -0.000
 -17138958.383 9 -13334148.85349  19850071.711    19850071.9014   19850076.2094
        -0.000          -0.000
 -17439826.172 9 -12864030.00147  22048161.892    22048161.4264   22048166.7784
        -0.000          -0.000
   7542401.363 9   5878461.30347  21845522.683    21845522.1004   21845527.4734
        -0.000          -0.000
 -17850770.358 9 -13611667.96148  20621846.336    20621846.2234   20621850.9724
        -0.000          -0.000
  -4998799.396 8  -3879159.13845  23932519.009    23932518.8614   23932526.0114
        -0.000          -0.000
 97  3 13 23 19 29.9970000  0  7  2 24  4  5  7  9 16               -0.002188532
   7555292.104 9   5894489.03746  22908190.643    22908190.1104   22908196.7694
        -0.000          -0.000
 -24395128.896 9 -17741605.00948  20412123.026    20412122.8524   20412128.6444
        -0.000          -0.000
 -17143984.212 9 -13338065.07849  19849115.341    19849115.5034   19849119.8154
        -0.000          -0.000
 -17536611.789 9 -12939447.33747  22029744.174    22029743.7464   22029749.0454
        -0.000          -0.000
   7592298.844 9   5917342.43547  21855017.855    21855017.1974   21855022.6124
        -0.000          -0.000
 -17865991.477 9 -13623528.59348  20618949.921    20618949.8184   20618954.5854
        -0.000          -0.000
  -5027902.629 8  -3901836.96145  23926980.732    23926980.4374   23926987.6214
        -0.000          -0.000
 97  3 13 23 19 59.9970000  0  7  2 24  4  5  7  9 16               -0.002198068
   7620071.538 9   5944966.45246  22920517.776    22920517.2864   22920523.9224
        -0.000          -0.000
 -24473626.872 9 -17802772.24548  20397185.243    20397185.1234   20397190.9624
        -0.000          -0.000
 -17148419.718 9 -13341521.31049  19848271.258    19848271.4584   19848275.7614
        -0.000          -0.000
 -17633311.233 9 -13014797.52647  22011342.892    22011342.4654   22011347.7134
        -0.000          -0.000
   7642236.386 9   5956254.78747  21864520.672    21864519.9784   21864525.4064
        -0.000          -0.000
 -17880630.989 9 -13634936.02348  20616164.168    20616164.0374   20616168.8104
        -0.000          -0.000
  -5056567.797 8  -3924173.40845  23921525.467    23921525.2634   23921532.9294
        -0.000          -0.000
 97  3 13 23 20 29.9970000  0  7  2 24  4  5  7  9 16               -0.002207625
   7685071.264 9   5995615.52646  22932887.113    22932886.4834   22932893.0164
        -0.000          -0.000
 -24551672.663 9 -17863587.13348  20382333.660    20382333.5244   20382339.3174
        -0.000          -0.000
 -17152265.448 9 -13344517.97749  19847539.421    19847539.6044   19847543.9524
        -0.000          -0.000
 -17729931.022 9 -13090085.65847  21992956.731    21992956.2834   21992961.4804
        -0.000          -0.000
   7692212.953 9   5995197.55447  21874030.857    21874030.2244   21874035.6534
        -0.000          -0.000
 -17894688.044 9 -13645889.58548  20613489.232    20613489.0894   20613493.8934
        -0.000          -0.000
  -5084794.990 8  -3946168.59245  23916153.940    23916153.6424   23916161.4194
        -0.000          -0.000
 97  3 13 23 20 59.9970000  0  7  2 24  4  5  7  9 16               -0.002217209
   7750294.666 9   6046438.87946  22945298.895    22945298.1214   22945304.6614
        -0.000          -0.000
 -24629251.777 9 -17924038.37248  20367570.834    20367570.6744   20367576.5134
        -0.000          -0.000
 -17155512.536 9 -13347048.17049  19846921.521    19846921.7124   19846926.0994
        -0.000          -0.000
 -17826456.680 9 -13165300.43147  21974588.513    21974588.0294   21974593.1784
        -0.000          -0.000
   7742250.101 9   6034187.51847  21883552.584    21883551.9424   21883557.3904
        -0.000          -0.000
 -17908173.530 9 -13656397.77048  20610923.017    20610922.9254   20610927.7444
        -0.000          -0.000
  -5112585.721 8  -3967823.64945  23910865.429    23910865.2224   23910872.9474
        -0.000          -0.000
 97  3 13 23 21 29.9970000  0  7  2 24  4  5  7  9 16               -0.002226816
   7815748.935 9   6097442.13446  22957754.163    22957753.5884   22957760.2944
        -0.000          -0.000
 -24706356.181 9 -17984119.70548  20352898.297    20352898.1424   20352903.9634
        -0.000          -0.000
 -17158165.301 9 -13349115.26049  19846416.697    19846416.9114   19846421.3014
        -0.000          -0.000
 -17922883.754 9 -13240438.37947  21956238.935    21956238.4824   21956243.7504
        -0.000          -0.000
   7792343.812 9   6073221.56747  21893085.116    21893084.4634   21893089.8854
        -0.000          -0.000
 -17921100.874 9 -13666471.03348  20608463.144    20608463.0184   20608467.7664
        -0.000          -0.000
  -5139934.424 8  -3989134.30245  23905661.021    23905660.7754   23905668.6454
        -0.000          -0.000
 97  3 13 23 21 59.9970000  0  7  2 24  4  5  7  9 16               -0.002236432
   7881440.887 9   6148630.59546  22970254.886    22970254.3734   22970261.0814
        -0.000          -0.000
 -24782990.512 9 -18043834.75548  20338315.279    20338315.1174   20338320.9484
        -0.000          -0.000
 -17160236.967 9 -13350729.53549  19846022.480    19846022.6944   19846027.0684
        -0.000          -0.000
 -18019213.017 9 -13315500.12547  21937908.105    21937907.6424   21937912.8874
        -0.000          -0.000
   7842480.265 9   6112288.91247  21902625.787    21902625.0684   21902630.5504
        -0.000          -0.000
 -17933467.222 9 -13676107.15848  20606109.921    20606109.7674   20606114.5164
        -0.000          -0.000
  -5166833.774 8  -4010094.79645  23900542.459    23900542.0294   23900549.9644
        -0.000          -0.000
 97  3 13 23 22 29.9970000  0  7  2 24  4  5  7  9 16               -0.002246043
   7947387.514 9   6200017.50746  22982804.115    22982803.6464   22982810.4764
        -0.000          -0.000
 -24859146.062 9 -18103176.71948  20323823.334    20323823.1904   20323829.0054
        -0.000          -0.000
 -17161738.113 9 -13351899.25949  19845736.803    19845737.0024   19845741.3964
        -0.000          -0.000
 -18115450.525 9 -13390490.35747  21919594.731    21919594.2014   21919599.5094
        -0.000          -0.000
   7892668.263 9   6151396.42047  21912176.229    21912175.5464   21912181.1064
        -0.000          -0.000
 -17945284.392 9 -13685315.35448  20603861.199    20603861.0344   20603865.8264
        -0.000          -0.000
  -5193269.719 8  -4030694.18845  23895511.822    23895511.4514   23895519.2684
        -0.000          -0.000
 97  3 13 23 22 59.9970000  0  7  2 24  4  5  7  9 16               -0.002255649
   8013583.790 9   6251598.95046  22995401.081    22995400.6354   22995407.2404
        -0.000          -0.000
 -24934845.504 9 -18162163.28648  20309418.220    20309418.0824   20309423.8324
        -0.000          -0.000
 -17162689.302 9 -13352640.43949  19845555.842    19845556.0574   19845560.3924
        -0.000          -0.000
 -18211612.003 9 -13465421.35547  21901295.843    21901295.3094   21901300.6224
        -0.000          -0.000
   7942888.179 9   6190528.79947  21921732.729    21921732.0414   21921737.5614
        -0.000          -0.000
 -17956576.254 9 -13694114.22348  20601712.416    20601712.2714   20601717.1004
        -0.000          -0.000
  -5219235.598 8  -4050927.30545  23890570.815    23890570.5234   23890578.0064
        -0.000          -0.000
 97  3 13 23 23 29.9970000  0  7  2 24  4  5  7  9 16               -0.002265234
   8080044.036 9   6303386.09346  23008048.093    23008047.6504   23008054.2984
        -0.000          -0.000
 -25010082.363 9 -18220789.38948  20295101.136    20295101.0144   20295106.7784
        -0.000          -0.000
 -17163079.425 9 -13352944.42449  19845481.615    19845481.7994   19845486.1834
        -0.000          -0.000
 -18307694.137 9 -13540290.52447  21883011.929    21883011.4274   21883016.7514
        -0.000          -0.000
   7993140.379 9   6229686.34247  21931295.414    21931294.7704   21931300.3054
        -0.000          -0.000
 -17967319.043 9 -13702485.23748  20599668.213    20599668.0664   20599672.8634
        -0.000          -0.000
  -5244685.221 8  -4070758.15845  23885727.794    23885727.5054   23885735.0144
        -0.000          -0.000
 97  3 13 23 23 59.9970000  0  7  2 24  4  5  7  9 16               -0.002274804
   8146757.961 9   6355370.89946  23020743.361    23020742.8814   23020749.5814
        -0.000          -0.000
 -25084857.760 9 -18279055.91648  20280871.897    20280871.7154   20280877.5074
        -0.000          -0.000
 -17162914.302 9 -13352815.75249  19845513.073    19845513.2674   19845517.5704
        -0.000          -0.000
 -18403702.457 9 -13615102.17447  21864742.044    21864741.6254   21864746.9404
        -0.000          -0.000
   8043433.544 9   6268875.80547  21940865.944    21940865.2654   21940870.8854
        -0.000          -0.000
 -17977512.755 9 -13710428.39748  20597728.437    20597728.2404   20597733.0744
        -0.000          -0.000
  -5269614.069 8  -4090183.20045  23880983.906    23880983.7494   23880991.1314
        -0.000          -0.000
 97  3 13 23 24 29.9970000  0  7  2 24  4  5  7  9 16               -0.002284361
   8213724.697 9   6407552.72346  23033486.807    23033486.3184   23033493.0134
        -0.000          -0.000
 -25159154.163 9 -18336949.20348  20266733.750    20266733.5924   20266739.4094
        -0.000          -0.000
 -17162179.050 9 -13352242.82549  19845652.966    19845653.1404   19845657.4424
        -0.000          -0.000
 -18499629.089 9 -13689850.17547  21846487.862    21846487.4014   21846492.6844
        -0.000          -0.000
   8093771.536 9   6308100.19247  21950444.880    21950444.2544   21950449.9674
        -0.000          -0.000
 -17987158.987 9 -13717944.95648  20595892.778    20595892.6104   20595897.4384
        -0.000          -0.000
  -5294012.872 8  -4109195.25245  23876341.185    23876340.8244   23876347.9524
        -0.000          -0.000
 97  3 13 23 24 59.9970000  0  7  2 24  4  5  7  9 16               -0.002293906
   8280955.535 9   6459940.31646  23046280.487    23046279.9034   23046286.6654
        -0.000          -0.000
 -25232974.685 9 -18394471.67348  20252686.183    20252686.0474   20252691.8704
        -0.000          -0.000
 -17160853.676 9 -13351210.06149  19845905.170    19845905.3564   19845909.6884
        -0.000          -0.000
 -18595458.200 9 -13764522.17347  21828252.180    21828251.7564   21828256.9714
        -0.000          -0.000
   8144152.615 9   6347358.15447  21960032.296    21960031.6064   21960037.1834
        -0.000          -0.000
 -17996245.189 9 -13725025.12948  20594163.764    20594163.5574   20594168.3844
        -0.000          -0.000
  -5317883.810 8  -4127795.93645  23871798.983    23871798.7474   23871805.5824
        -0.000          -0.000
 97  3 13 23 25 29.9970000  0  7  2 24  4  5  7  9 16               -0.002303450
   8348437.383 9   6512523.52446  23059121.833    23059121.2934   23059128.1034
        -0.000          -0.000
 -25306316.211 9 -18451620.90048  20238729.798    20238729.6294   20238735.4304
        -0.000          -0.000
 -17158941.026 9 -13349719.68249  19846269.124    19846269.3144   19846273.6584
        -0.000          -0.000
 -18691188.793 9 -13839117.41947  21810035.238    21810034.8574   21810039.9504
        -0.000          -0.000
   8194572.651 9   6386646.48147  21969627.167    21969626.4644   21969631.8744
        -0.000          -0.000
 -18004758.206 9 -13731658.66148  20592543.789    20592543.5994   20592548.4174
        -0.000          -0.000
  -5341254.540 8  -4146006.88245  23867352.078    23867351.5574   23867358.1944
        -0.000          -0.000
 97  3 13 23 25 59.9970000  0  7  2 24  4  5  7  9 16               -0.002313003
   8416157.350 9   6565292.25745  23072008.519    23072008.1204   23072014.7724
        -0.000          -0.000
 -25379186.772 9 -18508403.14248  20224862.998    20224862.8294   20224868.6424
        -0.000          -0.000
 -17156454.201 9 -13347781.89149  19846742.345    19846742.5164   19846746.8684
        -0.000          -0.000
 -18786815.541 9 -13913631.74247  21791838.157    21791837.7454   21791842.7754
        -0.000          -0.000
   8245028.518 9   6425962.71947  21979228.702    21979227.9674   21979233.4214
        -0.000          -0.000
 -18012709.944 9 -13737854.83748  20591030.603    20591030.4164   20591035.2664
        -0.000          -0.000
  -5364167.156 8  -4163860.85545  23862991.973    23862991.3444   23862997.8014
        -0.000          -0.000
 97  3 13 23 26 29.9970000  0  7  2 24  4  5  7  9 16               -0.002322562
   8484122.657 9   6618252.15846  23084941.849    23084941.4974   23084948.2714
        -0.000          -0.000
 -25451594.576 9 -18564824.79548  20211084.216    20211084.0284   20211089.8224
        -0.000          -0.000
 -17153397.452 9 -13345400.00249  19847324.023    19847324.2034   19847328.5524
        -0.000          -0.000
 -18882327.188 9 -13988056.37247  21773662.916    21773662.4174   21773667.4634
        -0.000          -0.000
   8295505.079 9   6465295.08247  21988834.051    21988833.3674   21988838.8704
        -0.000          -0.000
 -18020105.901 9 -13743617.93348  20589623.166    20589623.0014   20589627.8474
        -0.000          -0.000
     -7855.33818     -1310.63952         0.000           0.0005          0.0005
        -0.000          -0.000
 97  3 13 23 26 59.9970000  0  7  2 24  4  5  7  9 16               -0.002332111
   8552341.580 9   6671409.69246  23097923.607    23097923.1804   23097930.1274
        -0.000          -0.000
 -25523516.071 9 -18620867.50148  20197398.005    20197397.8124   20197403.6064
        -0.000          -0.000
 -17149765.190 9 -13342569.66749  19848015.208    19848015.4054   19848019.7784
        -0.000          -0.000
 -18977709.419 9 -14062380.17147  21755512.238    21755511.7534   21755516.8024
        -0.000          -0.000
   8346029.910 9   6504665.06047  21998448.592    21998447.8924   21998453.4724
        -0.000          -0.000
 -18026923.310 9 -13748930.22148  20588325.888    20588325.6994   20588330.6004
        -0.000          -0.000
    -29863.588 8    -18459.66942         0.000           0.0004          0.0004
        -0.000          -0.000
 97  3 13 23 27 29.9970000  0  7  2 24  4  5  7  9 16               -0.002341676
   8620772.163 9   6724732.14346  23110945.659    23110945.1454   23110952.1234
        -0.000          -0.000
 -25594957.504 9 -18676536.13748  20183803.146    20183802.9644   20183808.7554
        -0.000          -0.000
 -17145588.188 9 -13339314.85449  19848810.078    19848810.2744   19848814.6314
        -0.000          -0.000
 -19072984.109 9 -14136620.15947  21737382.063    21737381.5444   21737386.6454
        -0.000          -0.000
   8396589.019 9   6544061.73947  22008069.515    22008068.9114   22008074.5034
        -0.000          -0.000
 -18033180.556 9 -13753806.01048  20587135.258    20587135.0534   20587139.9804
        -0.000          -0.000
    -51430.615 8    -35265.09652         0.000           0.0004          0.0005
        -0.000          -0.000
 97  3 13 23 27 59.9970000  0  7  2 24  4  5  7  9 16               -0.002351241
   8689439.976 9   6778239.47146  23124012.764    23124012.1904   23124019.1964
        -0.000          -0.000
 -25665892.468 9 -18731810.11148  20170304.703    20170304.4994   20170310.2264
        -0.000          -0.000
 -17140844.453 9 -13335618.43249  19849712.782    19849712.9604   19849717.3204
        -0.000          -0.000
 -19168129.602 9 -14210759.47347  21719276.377    21719275.8484   21719281.0694
        -0.000          -0.000
   8447204.887 9   6583502.65947  22017701.317    22017700.6434   22017706.2794
        -0.000          -0.000
 -18038870.675 9 -13758239.88348  20586052.480    20586052.2624   20586057.1874
        -0.000          -0.000
    -72530.54118    -51706.58255         0.000           0.0005   23846412.6285
        -0.000          -0.000
 97  3 13 23 28 29.9970000  0  7  2 24  4  5  7  9 16               -0.002360831
   8758312.084 9   6831905.96846  23137118.582    23137118.1564   23137125.3084
        -0.000          -0.000
 -25736346.058 9 -18786708.99548  20156897.831    20156897.6104   20156903.3344
        -0.000          -0.000
 -17135553.604 9 -13331495.68749  19850719.624    19850719.7934   19850724.1124
        -0.000          -0.000
 -19263182.264 9 -14284826.44447  21701188.400    21701187.9204   21701193.2184
        -0.000          -0.000
   8497848.297 9   6622965.03647  22027338.184    22027337.5634   22027343.3174
        -0.000          -0.000
 -18044008.513 9 -13762243.40648  20585074.756    20585074.5794   20585079.4674
        -0.000          -0.000
    -93182.80718    -67799.20945  23842476.795    23842477.3665   23842485.2424
        -0.000          -0.000
 97  3 13 23 28 59.9970000  0  7  2 24  4  5  7  9 16               -0.002370434
   8827411.353 9   6885749.49846  23150267.905    23150267.3944   23150274.5344
        -0.000          -0.000
 -25806295.246 9 -18841214.84148  20143586.942    20143586.7154   20143592.4294
        -0.000          -0.000
 -17129684.082 9 -13326922.03449  19851836.577    19851836.7594   19851841.0364
        -0.000          -0.000
 -19358128.742 9 -14358810.69247  21683120.792    21683120.2884   21683125.4734
        -0.000          -0.000
   8548552.477 9   6662474.76847  22036986.878    22036986.2524   22036992.0064
        -0.000          -0.000
 -18048557.330 9 -13765787.95548  20584209.167    20584208.9594   20584213.8594
        -0.000          -0.000
   -113358.489 8    -83520.52245  23838637.798    23838638.3544   23838645.0774
        -0.000          -0.000
 97  3 13 23 29 29.9970000  0  7  2 24  4  5  7  9 16               -0.002380030
   8896769.916 9   6939795.06246  23163466.397    23163466.0164   23163473.0614
        -0.000          -0.000
 -25875743.697 9 -18895330.50148  20130371.324    20130371.1044   20130376.7854
        -0.000          -0.000
 -17123222.530 9 -13321887.05749  19853066.170    19853066.3384   19853070.5984
        -0.000          -0.000
 -19452945.104 9 -14432693.54747  21665077.879    21665077.3194   21665082.4474
        -0.000          -0.000
   8599322.464 9   6702035.76347  22046648.025    22046647.4044   22046653.2364
        -0.000          -0.000
 -18052507.085 9 -13768865.70348  20583457.537    20583457.3494   20583462.2954
        -0.000          -0.000
   -133037.166 8    -98854.50045  23834893.368    23834894.2674   23834900.7114
        -0.000          -0.000
 97  3 13 23 29 59.9970000  0  7  2 24  4  5  7  9 16               -0.002389608
   8966394.743 9   6994048.09846  23176715.874    23176715.2734   23176722.1764
        -0.000          -0.000
 -25944697.161 9 -18949060.45448  20117249.872    20117249.6384   20117255.3304
        -0.000          -0.000
 -17116176.286 9 -13316396.47449  19854406.961    19854407.1604   19854411.4174
        -0.000          -0.000
 -19547626.225 9 -14506471.02647  21647060.626    21647060.1024   21647065.2124
        -0.000          -0.000
   8650148.538 9   6741640.48147  22056319.972    22056319.3084   22056325.0894
        -0.000          -0.000
 -18055867.575 9 -13771484.27748  20582818.037    20582817.8624   20582822.8244
        -0.000          -0.000
   -152209.979 8   -113794.33745  23831244.691    23831245.1124   23831252.1104
        -0.000          -0.000
 97  3 13 23 30 29.9970000  0  7  2 24  4  5  7  9 16               -0.002399178
   9036266.716 9   7048493.72845  23190012.141    23190011.4804   23190018.4144
        -0.000          -0.000
 -26013183.069 9 -19002426.08648  20104217.417    20104217.2104   20104222.8754
        -0.000          -0.000
 -17108562.648 9 -13310463.76949  19855855.835    19855856.0074   19855860.2494
        -0.000          -0.000
 -19642187.328 9 -14580154.97547  21629066.279    21629065.6204   21629070.7154
        -0.000          -0.000
   8701014.685 9   6781276.43147  22065999.640    22065998.9064   22066004.5594
        -0.000          -0.000
 -18058654.968 9 -13773656.28748  20582287.709    20582287.4794   20582292.3784
        -0.000          -0.000
   -170883.361 8   -128345.01545  23827691.484    23827691.8734   23827698.6064
        -0.000          -0.000
 97  3 13 23 30 59.9970000  0  7  2 24  4  5  7  9 16               -0.002408732
   9106384.322 9   7103130.74646  23203355.033    23203354.4124   23203361.5394
        -0.000          -0.000
 -26081202.249 9 -19055428.03648  20091273.775    20091273.5714   20091279.2194
        -0.000          -0.000
 -17100397.868 9 -13304101.60449  19857409.563    19857409.7014   19857413.9664
        -0.000          -0.000
 -19736627.016 9 -14653744.32047  21611094.975    21611094.3414   21611099.3514
        -0.000          -0.000
   8751902.962 9   6820929.61247  22075683.474    22075682.8024   22075688.3724
        -0.000          -0.000
 -18060889.536 9 -13775397.52548  20581862.536    20581862.3234   20581867.2084
        -0.000          -0.000
   -189048.092 8   -142499.30145  23824234.935    23824235.1144   23824241.5494
        -0.000          -0.000
 97  3 13 23 31 29.9970000  0  7  2 24  4  5  7  9 16               -0.002418261
   9176761.141 8   7157969.73845  23216747.387    23216746.8194   23216753.7414
        -0.000          -0.000
 -26148725.598 9 -19108043.61748  20078424.504    20078424.2964   20078429.9314
        -0.000          -0.000
 -17091659.735 9 -13297292.66749  19859072.335    19859072.4704   19859076.7724
        -0.000          -0.000
 -19830917.245 9 -14727217.19847  21593152.165    21593151.4634   21593156.4464
        -0.000          -0.000
   8802833.318 9   6860615.58147  22085375.331    22085374.6334   22085380.1324
        -0.000          -0.000
 -18062562.356 9 -13776701.03648  20581544.230    20581543.9944   20581548.8994
        -0.000          -0.000
   -206679.518 8   -156238.05745  23820880.121    23820880.0384   23820886.3834
        -0.000          -0.000
 97  3 13 23 31 59.9970000  0  7  2 24  4  5  7  9 16               -0.002427799
   9247358.704 9   7212980.74445  23230181.786    23230181.2004   23230188.1384
        -0.000          -0.000
 -26215771.448 9 -19160287.12448  20065666.063    20065665.8794   20065671.5334
        -0.000          -0.000
 -17082367.244 9 -13290051.76749  19860840.671    19860840.8164   19860845.1484
        -0.000          -0.000
 -19925091.896 9 -14800600.02447  21575231.195    21575230.6194   21575235.6074
        -0.000          -0.000
   8853781.623 9   6900315.53746  22095070.511    22095069.8124   22095075.3094
        -0.000          -0.000
 -18063697.611 9 -13777585.66848  20581328.185    20581327.9434   20581332.8324
        -0.000          -0.000
   -223817.389 9   -169592.25945  23817619.087    23817618.8064   23817625.2274
        -0.000          -0.000
 97  3 13 23 32 29.9970000  0  7  2 24  4  5  7  9 16               -0.002437348
   9318194.087 8   7268177.06245  23243661.436    23243660.8184   23243667.8274
        -0.000          -0.000
 -26282318.289 9 -19212141.79148  20053002.627    20053002.4354   20053008.0734
        -0.000          -0.000
 -17072501.984 9 -13282364.55349  19862717.949    19862718.0964   19862722.4154
        -0.000          -0.000
 -20019154.871 9 -14873895.83747  21557331.675    21557331.0604   21557335.9794
        -0.000          -0.000
   8904761.605 9   6940040.18646  22104771.670    22104771.0254   22104776.5264
        -0.000          -0.000
 -18064287.872 9 -13778045.63748  20581215.854    20581215.6414   20581220.5094
        -0.000          -0.000
   -240455.030 9   -182556.66345  23814453.328    23814452.8874   23814459.1154
        -0.000          -0.000
 97  3 13 23 32 59.9970000  0  7  2 24  4  5  7  9 16               -0.002446910
   9389267.425 9   7323558.80645  23257186.355    23257185.6464   23257192.7964
        -0.000          -0.000
 -26348362.572 9 -19263604.85449  20040434.794    20040434.6064   20040440.2324
        -0.000          -0.000
 -17062079.778 9 -13274243.35049  19864701.217    19864701.3834   19864705.6754
        -0.000          -0.000
 -20113116.236 9 -14947112.45847  21539451.379    21539450.7694   21539455.7114
        -0.000          -0.000
   8955761.455 9   6979780.30547  22114476.664    22114475.9874   22114481.5294
        -0.000          -0.000
 -18064343.258 9 -13778088.81548  20581205.328    20581205.1284   20581209.9884
        -0.000          -0.000
   -256605.046 9   -195141.07845  23811380.279    23811379.6844   23811385.8824
        -0.000          -0.000
 97  3 13 23 33 29.9970000  0  7  2 24  4  5  7  9 16               -0.002456488
   9460586.173 8   7379131.80345  23270757.851    23270757.0904   23270764.2454
        -0.000          -0.000
 -26413897.854 9 -19314671.29549  20027963.887    20027963.6594   20027969.2784
        -0.000          -0.000
 -17051095.065 9 -13265683.83349  19866791.508    19866791.6564   19866795.9684
        -0.000          -0.000
 -20206970.645 9 -15020245.75147  21521591.527    21521590.9224   21521595.8334
        -0.000          -0.000
   9006798.583 9   7019549.46846  22124188.720    22124188.0434   22124193.5904
        -0.000          -0.000
 -18063860.022 9 -13777712.28848  20581297.257    20581297.1044   20581301.8954
        -0.000          -0.000
   -272272.073 9   -207349.13645  23808398.996    23808398.3994   23808404.2924
        -0.000          -0.000
 97  3 13 23 33 59.9970000  0  7  2 24  4  5  7  9 16               -0.002466071
   9532158.226 8   7434902.15045  23284377.509    23284376.7914   23284384.0434
        -0.000          -0.000
 -26478911.854 9 -19365331.54149  20015592.132    20015591.9244   20015597.5474
        -0.000          -0.000
 -17039552.125 9 -13256689.33649  19868988.074    19868988.2364   19868992.5374
        -0.000          -0.000
 -20300708.696 9 -15093288.36647  21503753.662    21503753.0924   21503758.0644
        -0.000          -0.000
   9057878.431 9   7059351.93346  22133908.863    22133908.1754   22133913.7594
        -0.000          -0.000
 -18062830.887 9 -13776910.38548  20581493.124    20581492.9594   20581497.7874
        -0.000          -0.000
   -287451.679 9   -219177.37245  23805510.453    23805509.7894   23805515.6614
        -0.000          -0.000
 97  3 13 23 34 29.9970000  0  7  2 24  4  5  7  9 16               -0.002475655
   9603975.770 8   7490863.79745  23298043.841    23298043.2304   23298050.5814
        -0.000          -0.000
 -26543415.723 9 -19415594.28349  20003317.436    20003317.2224   20003322.8364
        -0.000          -0.000
 -17027473.210 9 -13247277.19249  19871286.625    19871286.7744   19871291.0794
        -0.000          -0.000
 -20394332.697 9 -15166242.10647  21485937.574    21485936.9854   21485941.9954
        -0.000          -0.000
   9108993.886 9   7099182.14646  22143635.815    22143635.1704   22143640.6864
        -0.000          -0.000
 -18061264.247 9 -13775689.64848  20581791.273    20581791.0924   20581795.9574
        -0.000          -0.000
   -302146.499 9   -230627.88745  23802714.072    23802713.5244   23802719.1934
        -0.000          -0.000
 97  3 13 23 34 59.9970000  0  7  2 24  4  5  7  9 16               -0.002485236
   9676021.331 9   7547003.15245  23311753.564    23311753.0204   23311760.1784
        -0.000          -0.000
 -26607429.845 9 -19465475.40549  19991135.912    19991135.7254   19991141.3544
        -0.000          -0.000
 -17014859.150 9 -13237448.05349  19873687.022    19873687.1634   19873691.4434
        -0.000          -0.000
 -20487817.902 9 -15239087.69647  21468147.902    21468147.3114   21468152.3654
        -0.000          -0.000
   9160152.796 9   7139046.21246  22153371.040    22153370.4014   22153375.9994
        -0.000          -0.000
 -18059145.538 9 -13774038.72848  20582194.523    20582194.3134   20582199.1994
        -0.000          -0.000
   -316358.693 9   -241702.27745  23800009.644    23800009.0664   23800014.9094
        -0.000          -0.000
 97  3 13 23 35 29.9970000  0  7  2 24  4  5  7  9 16               -0.002494814
   9748276.268 9   7603305.61245  23325503.254    23325502.6904   23325509.8394
        -0.000          -0.000
 -26670955.755 9 -19514976.10049  19979047.286    19979047.0944   19979052.7314
        -0.000          -0.000
 -17001708.343 9 -13227200.67149  19876189.556    19876189.6904   19876193.9694
        -0.000          -0.000
 -20581153.860 9 -15311816.98447  21450386.581    21450385.9874   21450391.0774
        -0.000          -0.000
   9211364.911 9   7178951.73946  22163116.338    22163115.6944   22163121.4304
        -0.000          -0.000
 -18056464.933 9 -13771949.96448  20582704.686    20582704.4504   20582709.3694
        -0.000          -0.000
   -330076.561 9   -252391.50545  23797399.259    23797398.7134   23797404.4044
        -0.000          -0.000
 97  3 13 23 35 59.9970000  0  7  2 24  4  5  7  9 16               -0.002504382
   9820741.728 8   7659772.14545  23339293.279    23339292.6154   23339299.8074
        -0.000          -0.000
 -26733994.826 9 -19564097.43849  19967051.331    19967051.1284   19967056.7894
        -0.000          -0.000
 -16988020.728 9 -13216534.99349  19878794.165    19878794.3074   19878798.5704
        -0.000          -0.000
 -20674334.235 9 -15384425.04747  21432654.961    21432654.3824   21432659.4344
        -0.000          -0.000
   9262630.538 9   7218898.96246  22172871.686    22172871.1514   22172876.9544
        -0.000          -0.000
 -18053214.830 9 -13769417.43948  20583323.076    20583322.9024   20583327.8764
        -0.000          -0.000
   -343287.213 9   -262685.51045  23794885.385    23794884.8034   23794890.8184
        -0.000          -0.000
 97  3 13 23 36 29.9970000  0  7  2 24  4  5  7  9 16               -0.002513937
   9893412.442 9   7716398.59245  23353121.784    23353121.2604   23353128.5254
        -0.000          -0.000
 -26796556.360 9 -19612846.67249  19955146.268    19955146.0504   19955151.6904
        -0.000          -0.000
 -16973806.788 9 -13205459.19449  19881498.979    19881499.0954   19881503.3714
        -0.000          -0.000
 -20767360.668 9 -15456913.14347  21414952.583    21414952.0274   21414957.1344
        -0.000          -0.000
   9313938.212 9   7258878.94646  22182635.243    22182634.7014   22182640.5294
        -0.000          -0.000
 -18049403.581 9 -13766447.64948  20584048.386    20584048.2304   20584053.1234
        -0.000          -0.000
   -355984.231 9   -272579.26745  23792469.449    23792468.7764   23792474.7394
        -0.000          -0.000
 97  3 13 23 36 59.9970000  0  7  2 24  4  5  7  9 16               -0.002523489
   9966282.219 9   7773180.18245  23366988.768    23366988.1214   23366995.3014
        -0.000          -0.000
 -26858619.541 9 -19661207.57349  19943336.021    19943335.8064   19943341.4684
        -0.000          -0.000
 -16959055.223 9 -13193964.46749  19884306.117    19884306.2614   19884310.5424
        -0.000          -0.000
 -20860227.269 9 -15529276.69547  21397280.609    21397280.0514   21397285.2064
        -0.000          -0.000
   9365280.855 9   7298886.17146  22192405.519    22192404.9584   22192410.6564
        -0.000          -0.000
 -18045038.051 9 -13763045.95448  20584879.209    20584879.0254   20584883.8474
        -0.000          -0.000
   -368163.276 9   -282069.42045  23790151.648    23790151.1214   23790157.2134
        -0.000          -0.000
 97  3 13 23 37 29.9970000  0  7  2 24  4  5  7  9 16               -0.002533035
  10039370.049 9   7830131.66345  23380897.122    23380896.3924   23380903.5424
        -0.000          -0.000
 -26920155.656 9 -19709157.78049  19931626.082    19931625.8634   19931631.5074
        -0.000          -0.000
 -16943763.976 9 -13182049.21149  19887215.955    19887216.0874   19887220.4094
        -0.000          -0.000
 -20952945.224 9 -15601524.41947  21379636.902    21379636.3564   21379641.4974
        -0.000          -0.000
   9416646.962 9   7338911.68446  22202180.236    22202179.6914   22202185.1954
        -0.000          -0.000
 -18040120.499 9 -13759214.11048  20585815.016    20585814.8174   20585819.6664
        -0.000          -0.000
   -379815.940 9   -291149.39045  23787934.279    23787933.6664   23787939.9494
        -0.000          -0.000
 97  3 13 23 37 59.9970000  0  7  2 24  4  5  7  9 16               -0.002542588
  10112683.422 9   7887258.92045  23394848.265    23394847.6244   23394854.6614
        -0.000          -0.000
 -26981169.113 9 -19756700.71349  19920015.555    19920015.3704   19920021.0124
        -0.000          -0.000
 -16927937.906 9 -13169717.20749  19890227.518    19890227.6624   19890232.0004
        -0.000          -0.000
 -21045533.495 9 -15673671.10147  21362017.896    21362017.3834   21362022.4744
        -0.000          -0.000
   9468012.628 9   7378936.85346  22211954.972    22211954.3644   22211959.7414
        -0.000          -0.000
 -18034668.508 9 -13754965.82048  20586852.452    20586852.2494   20586857.1544
        -0.000          -0.000
   -390970.649 8   -299841.33945  23785811.450    23785810.9864   23785817.1984
        -0.000          -0.000
 97  3 13 23 38 29.9970000  0  7  2 24  4  5  7  9 16               -0.002552151
  10186226.943 9   7944565.48745  23408843.057    23408842.4854   23408849.6784
        -0.000          -0.000
 -27041648.829 9 -19803827.74549  19908506.693    19908506.4684   19908512.0784
        -0.000          -0.000
 -16911566.836 9 -13156960.52549  19893342.844    19893342.9854   19893347.2934
        -0.000          -0.000
 -21137986.409 9 -15745712.30848  21344424.702    21344424.1834   21344429.1944
        -0.000          -0.000
   9519380.922 9   7418964.06146  22221730.171    22221729.5274   22221734.8304
        -0.000          -0.000
 -18028673.173 9 -13750294.15148  20587993.321    20587993.1294   20587998.0884
        -0.000          -0.000
   -401633.367 8   -308149.94245  23783782.281    23783781.8914   23783788.1094
        -0.000          -0.000
 97  3 13 23 38 59.9970000  0  7  2 24  4  5  7  9 16               -0.002561727
  10260004.135 9   8002054.14745  23422882.437    23422881.8074   23422889.1114
        -0.000          -0.000
 -27101599.030 9 -19850542.17649  19897098.487    19897098.2854   19897103.8944
        -0.000          -0.000
 -16894647.661 9 -13143776.75249  19896562.502    19896562.6364   19896566.9364
        -0.000          -0.000
 -21230309.281 9 -15817652.19048  21326856.293    21326855.7554   21326860.6864
        -0.000          -0.000
   9570756.829 9   7458997.19946  22231506.654    22231506.0594   22231511.3094
        -0.000          -0.000
 -18022127.431 9 -13745193.59348  20589238.970    20589238.7864   20589243.7754
        -0.000          -0.000
   -411817.450 9   -316085.56945  23781844.189    23781843.8524   23781849.8884
        -0.000          -0.000
 97  3 13 23 39 29.9970000  0  7  2 24  4  5  7  9 16               -0.002571313
  10334023.811 8   8059731.75545  23436967.910    23436967.2164   23436974.6344
        -0.000          -0.000
 -27161039.277 9 -19896859.23349  19885787.383    19885787.1664   19885792.8024
        -0.000          -0.000
 -16877190.147 9 -13130173.49249  19899884.601    19899884.7164   19899889.0054
        -0.000          -0.000
 -21322513.822 9 -15889499.84048  21309310.298    21309309.7224   21309314.8184
        -0.000          -0.000
   9622152.761 9   7499045.97146  22241286.942    22241286.3584   22241291.6254
        -0.000          -0.000
 -18015035.014 9 -13739667.05248  20590588.662    20590588.4524   20590593.3904
        -0.000          -0.000
   -421526.010 8   -323650.66545  23779996.544    23779996.2114   23780002.5084
        -0.000          -0.000
 97  3 13 23 39 59.9970000  0  7  2 24  4  5  7  9 16               -0.002580910
  10408272.821 9   8117588.03845  23451097.080    23451096.2144   23451103.9044
        -0.000          -0.000
 -27219980.652 9 -19942787.56349  19874571.193    19874570.9914   19874576.5904
        -0.000          -0.000
 -16859196.102 9 -13116152.15849  19903308.714    19903308.8164   19903313.1284
        -0.000          -0.000
 -21414579.727 9 -15961239.48748  21291790.750    21291790.1704   21291795.2524
        -0.000          -0.000
   9673587.286 9   7539124.80646  22251074.595    22251073.9914   22251079.3934
        -0.000          -0.000
 -18007406.989 9 -13733723.15848  20592040.205    20592039.9974   20592044.9664
        -0.000          -0.000
   -430761.349 8   -330847.04745  23778238.984    23778238.6074   23778245.0944
        -0.000          -0.000
 97  3 13 23 40 29.9970000  0  7  2 24  4  5  7  9 16               -0.002590509
  10482743.139 8   8175616.76745  23465268.373    23465267.5834   23465275.1674
        -0.000          -0.000
 -27278417.366 9 -19988322.64749  19863451.079    19863450.8394   19863456.4924
        -0.000          -0.000
 -16840662.111 9 -13101710.08049  19906835.578    19906835.7244   19906840.0314
        -0.000          -0.000
 -21506477.792 9 -16032848.33848  21274303.233    21274302.5674   21274307.6084
        -0.000          -0.000
   9725077.814 9   7579247.25246  22260872.787    22260872.2294   22260877.8224
        -0.000          -0.000
 -17999236.986 9 -13727356.94048  20593594.845    20593594.6514   20593599.6474
        -0.000          -0.000
   -439500.428 8   -337656.73145  23776576.268    23776575.8184   23776582.2254
        -0.000          -0.000
 97  3 13 23 40 59.9970000  0  7  2 24  4  5  7  9 16               -0.002600111
  10557425.587 8   8233810.82145  23479479.963    23479479.2844   23479486.8534
        -0.000          -0.000
 -27336351.448 9 -20033466.07649  19852426.542    19852426.3414   19852431.9494
        -0.000          -0.000
 -16821596.582 9 -13086853.81749  19910463.615    19910463.7634   19910468.0894
        -0.000          -0.000
 -21598209.977 9 -16104327.94348  21256847.145    21256846.4814   21256851.5284
        -0.000          -0.000
   9776617.258 9   7619407.85746  22270680.366    22270679.7594   22270685.4024
        -0.000          -0.000
 -17990540.306 9 -13720580.32348  20595249.807    20595249.5954   20595254.6054
        -0.000          -0.000
   -447734.487 8   -344072.89045  23775009.603    23775008.9244   23775015.3694
        -0.000          -0.000
 97  3 13 23 41 29.9970000  0  8 30  2 24  4  5  7  9 16            -0.002609616
  -6448997.92218  -4746172.27955  23795441.361    23795441.4985   23795446.9345
        -0.000          -0.000
  10632316.309 8   8292167.16145  23493730.887    23493730.4094   23493738.1854
        -0.000          -0.000
 -27393767.465 9 -20078205.81649  19841500.567    19841500.3554   19841505.9594
        -0.000          -0.000
 -16801997.974 9 -13071582.17249  19914193.151    19914193.2814   19914197.5984
        -0.000          -0.000
 -21689762.332 9 -16175667.43148  21239425.230    21239424.6024   21239429.5844
        -0.000          -0.000
   9828208.909 9   7659609.10846  22280497.894    22280497.2824   22280503.0394
        -0.000          -0.000
 -17981322.046 9 -13713397.28548  20597004.046    20597003.8414   20597008.7884
        -0.000          -0.000
   -455448.884 8   -350084.08945  23773541.535    23773540.7904   23773547.4404
        -0.000          -0.000
 97  3 13 23 41 59.9970000  0  8 30  2 24  4  5  7  9 16            -0.002619224
  -6562303.372 8  -4834462.14945  23773879.639    23773880.0354   23773885.5974
        -0.000          -0.000
  10707403.275 8   8350676.40845  23508019.408    23508019.0374   23508026.8174
        -0.000          -0.000
 -27450676.393 9 -20122550.42249  19830671.177    19830670.9524   19830676.5374
        -0.000          -0.000
 -16781885.510 9 -13055910.12049  19918020.436    19918020.5714   19918024.9004
        -0.000          -0.000
 -21781134.731 9 -16246866.68148  21222037.557    21222036.9404   21222041.9104
        -0.000          -0.000
   9879820.748 9   7699826.11346  22290319.270    22290318.6844   22290324.5044
        -0.000          -0.000
 -17971598.232 9 -13705820.30648  20598854.441    20598854.2204   20598859.1574
        -0.000          -0.000
   -462657.983 8   -355701.58345  23772169.784    23772168.9804   23772175.6354
        -0.000          -0.000
 97  3 13 23 42 29.9970000  0  8 30  2 24  4  5  7  9 16            -0.002628829
  -6675638.416 9  -4922775.13045  23752312.725    23752313.2064   23752318.7424
        -0.000          -0.000
  10782706.775 8   8409354.34645  23522349.640    23522348.9764   23522356.5304
        -0.000          -0.000
 -27507071.752 9 -20166494.84549  19819939.466    19819939.2524   19819944.8194
        -0.000          -0.000
 -16761267.045 9 -13039843.77449  19921944.000    19921944.1254   19921948.4474
        -0.000          -0.000
 -21872338.210 9 -16317934.31348  21204682.121    21204681.4954   21204686.4184
        -0.000          -0.000
   9931439.892 9   7740048.79446  22300142.123    22300141.5234   22300147.4314
        -0.000          -0.000
 -17961358.478 9 -13697841.28848  20600803.030    20600802.7814   20600807.7254
        -0.000          -0.000
   -469351.385 8   -360917.19745  23770896.140    23770895.2524   23770901.8224
        -0.000          -0.000
 97  3 13 23 42 59.9970000  0  8 30  2 24  4  5  7  9 16            -0.002638420
  -6788989.746 9  -5011100.82445  23730742.695    23730743.0794   23730748.6904
        -0.000          -0.000
  10858254.102 8   8468222.30445  23536726.177    23536725.4444   23536732.7524
        -0.000          -0.000
 -27562940.510 9 -20210028.93049  19809308.012    19809307.8214   19809313.3754
        -0.000          -0.000
 -16740135.067 9 -13023377.29549  19925965.273    19925965.4214   19925969.7644
        -0.000          -0.000
 -21963372.933 9 -16388870.44148  21187358.757    21187358.1574   21187363.0964
        -0.000          -0.000
   9983076.721 9   7780285.26246  22309968.394    22309967.8204   22309973.5564
        -0.000          -0.000
 -17950588.598 9 -13689449.19248  20602852.426    20602852.2224   20602857.2044
        -0.000          -0.000
   -475525.014 8   -365727.80745  23769721.289    23769720.4054   23769726.8704
        -0.000          -0.000
 97  3 13 23 43 29.9970000  0  8 30  2 24  4  5  7  9 16            -0.002647991
  -6902349.348 9  -5099432.89145  23709171.123    23709171.3224   23709177.0044
        -0.000          -0.000
  10934055.844 8   8527288.49045  23551151.023    23551150.3174   23551157.5334
        -0.000          -0.000
 -27618285.756 9 -20253155.08249  19798776.183    19798775.9834   19798781.5194
        -0.000          -0.000
 -16718483.977 9 -13006506.31649  19930085.338    19930085.4694   19930089.8164
        -0.000          -0.000
 -22054229.867 9 -16459668.03648  21170069.119    21170068.6174   21170073.5614
        -0.000          -0.000
  10034747.772 9   7820548.39746  22319801.138    22319800.5644   22319806.3144
        -0.000          -0.000
 -17939273.102 9 -13680631.94048  20605005.604    20605005.4514   20605010.4104
        -0.000          -0.000
   -481186.565 9   -370139.37645  23768643.925    23768643.2214   23768649.4494
        -0.000          -0.000
 97  3 13 23 43 59.9970000  0  8 30  2 24  4  5  7  9 16            -0.002657550
  -7015720.909 9  -5187774.33745  23687597.097    23687597.3984   23687603.1274
        -0.000          -0.000
  11010093.376 8   8586538.46145  23565620.507    23565619.7514   23565627.0724
        -0.000          -0.000
 -27673136.233 9 -20295895.69549  19788338.493    19788338.2694   19788343.8154
        -0.000          -0.000
 -16696331.269 9 -12989244.46349  19934300.857    19934301.0014   19934305.3084
        -0.000          -0.000
 -22144930.736 9 -16530344.01948  21152809.304    21152808.7754   21152813.7544
        -0.000          -0.000
  10086429.087 9   7860819.53746  22329635.867    22329635.1754   22329640.8084
        -0.000          -0.000
 -17927423.144 9 -13671398.21948  20607260.619    20607260.4304   20607265.4354
        -0.000          -0.000
   -486360.863 9   -374171.28245  23767659.631    23767658.8324   23767664.8174
        -0.000          -0.000
 97  3 13 23 44 29.9970000  0  8 30  2 24  4  5  7  9 16            -0.002667099
  -7129094.003 9  -5276116.92945  23666022.813    23666023.0834   23666028.7374
        -0.000          -0.000
  11086355.805 8   8645963.64545  23580132.446    23580131.7754   23580139.6804
        -0.000          -0.000
 -27727479.260 9 -20338240.89649  19777997.321    19777997.1184   19778002.7144
        -0.000          -0.000
 -16673660.735 9 -12971579.10949  19938614.969    19938615.0744   19938619.3234
        -0.000          -0.000
 -22235472.898 9 -16600896.33748  21135579.719    21135579.2134   21135584.1584
        -0.000          -0.000
  10138151.652 9   7901122.82546  22339478.656    22339477.7914   22339483.2824
        -0.000          -0.000
 -17915011.874 9 -13661727.11448  20609622.436    20609622.2554   20609627.2424
        -0.000          -0.000
   -491037.974 9   -377815.77245  23766769.644    23766768.9084   23766774.7364
        -0.000          -0.000
 97  3 13 23 44 59.9970000  0  8 30  2 24  4  5  7  9 16            -0.002676649
  -7242474.955 8  -5364465.66645  23644446.953    23644447.3404   23644453.0354
        -0.000          -0.000
  11162824.124 8   8705549.24345  23594683.839    23594683.1404   23594691.3254
        -0.000          -0.000
 -27781315.415 9 -20380191.13049  19767752.622    19767752.4304   19767758.0084
        -0.000          -0.000
 -16650452.100 9 -12953494.45649  19943031.404    19943031.5174   19943035.7784
        -0.000          -0.000
 -22325850.695 9 -16671320.58248  21118381.447    21118380.9194   21118385.8484
        -0.000          -0.000
  10189920.004 9   7941461.76246  22349329.908    22349329.1124   22349334.5594
        -0.000          -0.000
 -17902030.444 9 -13651611.73748  20612092.804    20612092.5754   20612097.5774
        -0.000          -0.000
   -495223.562 9   -381077.25545  23765973.028    23765972.4204   23765978.2404
        -0.000          -0.000
 97  3 13 23 45 29.9970000  0  8 30  2 24  4  5  7  9 16            -0.002686212
  -7355874.291 8  -5452828.71145  23622867.796    23622868.1494   23622873.9934
        -0.000          -0.000
  11239473.844 8   8765276.24645  23609270.134    23609269.4624   23609277.4004
        -0.000          -0.000
 -27834652.414 9 -20421752.40949  19757602.940    19757602.7264   19757608.2764
        -0.000          -0.000
 -16626706.914 9 -12934991.71649  19947549.982    19947550.0884   19947554.3544
        -0.000          -0.000
 -22416063.648 9 -16741616.36948  21101214.496    21101213.9734   21101218.9464
        -0.000          -0.000
  10241728.489 9   7981831.98646  22359188.687    22359187.8774   22359193.3774
        -0.000          -0.000
 -17888489.310 9 -13641060.22048  20614669.582    20614669.3524   20614674.3914
        -0.000          -0.000
   -498909.385 9   -383949.29445  23765271.540    23765270.9554   23765277.0134
        -0.000          -0.000
 97  3 13 23 45 59.9970000  0  7 30 24  4  5  7  9 16               -0.002696042
  -7469307.672 8  -5541218.28145  23601282.055    23601282.1524   23601288.4904
        -0.000          -0.000
 -27887487.358 9 -20462922.48049  19747548.805    19747548.6064   19747554.1154
        -0.000          -0.000
 -16602446.164 9 -12916087.23049  19952166.614    19952166.7524   19952170.9664
        -0.000          -0.000
 -22506127.380 9 -16811795.88548  21084075.941    21084075.4184   21084080.4654
        -0.000          -0.000
  10293557.060 9   8022217.87246  22369051.305    22369050.5894   22369056.0774
        -0.000          -0.000
 -17874415.898 9 -13630093.94948  20617347.611    20617347.4174   20617352.4824
        -0.000          -0.000
   -502108.940 9   -386442.44245  23764662.590    23764662.0274   23764668.1794
        -0.000          -0.000
 97  3 13 23 46 29.9970000  0  7 30 24  4  5  7  9 16               -0.002705667
  -7582783.010 8  -5629640.53845  23579688.227    23579688.3334   23579694.8074
        -0.000          -0.000
 -27939808.974 9 -20503692.55249  19737592.396    19737592.1494   19737597.6574
        -0.000          -0.000
 -16577679.572 9 -12896788.58649  19956879.555    19956879.6604   19956883.8694
        -0.000          -0.000
 -22596034.268 9 -16881853.17448  21066967.235    21066966.6624   21066971.7424
        -0.000          -0.000
  10345412.935 9   8062625.01746  22378919.263    22378918.5084   22378923.9724
        -0.000          -0.000
 -17859813.157 9 -13618715.20548  20620126.481    20620126.2934   20620131.3124
        -0.000          -0.000
   -504807.885 9   -388545.44445  23764148.956    23764148.4124   23764154.5744
        -0.000          -0.000
 97  3 13 23 46 59.9970000  0  7 30 24  4  5  7  9 16               -0.002715300
  -7696306.684 9  -5718100.48845  23558085.293    23558085.4364   23558091.7384
        -0.000          -0.000
 -27991610.611 9 -20544057.44949  19727734.798    19727734.5944   19727740.0954
        -0.000          -0.000
 -16552413.887 9 -12877101.03749  19961687.417    19961687.5414   19961691.7844
        -0.000          -0.000
 -22685778.198 9 -16951783.49548  21049889.475    21049888.9354   21049893.9034
        -0.000          -0.000
  10397283.076 9   8103043.26646  22388789.693    22388788.9744   22388794.5984
        -0.000          -0.000
 -17844702.655 9 -13606940.81148  20623001.969    20623001.7434   20623006.7264
        -0.000          -0.000
   -506994.198 9   -390249.04445  23763732.892    23763732.2614   23763738.6784
        -0.000          -0.000
 97  3 13 23 47 29.9970000  0  7 30 24  4  5  7  9 16               -0.002724931
  -7809868.443 9  -5806590.11845  23536475.282    23536475.4074   23536481.6034
        -0.000          -0.000
 -28042888.098 9 -20584013.91349  19717977.040    19717976.8194   19717982.3134
        -0.000          -0.000
 -16526673.913 9 -12857043.91449  19966585.550    19966585.6704   19966589.9534
        -0.000          -0.000
 -22775352.964 9 -17021581.99748  21032844.050    21032843.4764   21032848.3284
        -0.000          -0.000
  10449172.503 9   8143476.56746  22398663.714    22398663.0984   22398668.8124
        -0.000          -0.000
 -17829095.736 9 -13594779.59548  20625971.817    20625971.5774   20625976.6284
        -0.000          -0.000
   -508666.309 8   -391551.98645  23763414.571    23763413.8614   23763420.7284
        -0.000          -0.000
 97  3 13 23 47 59.9970000  0  7 30 24  4  5  7  9 16               -0.002734544
  -7923450.535 9  -5895095.69145  23514861.465    23514861.6104   23514867.3854
        -0.000          -0.000
 -28093631.924 9 -20623554.54249  19708320.795    19708320.5944   19708326.0874
        -0.000          -0.000
 -16500469.527 9 -12836624.91349  19971572.060    19971572.1884   19971576.4724
        -0.000          -0.000
 -22864760.138 9 -17091249.90148  21015830.427    21015829.8444   21015834.7624
        -0.000          -0.000
  10501078.758 9   8183922.96346  22408541.151    22408540.5204   22408546.3274
        -0.000          -0.000
 -17812984.589 9 -13582225.48148  20629037.695    20629037.4454   20629042.4824
        -0.000          -0.000
   -509826.744 9   -392456.22545  23763193.623    23763192.9344   23763199.8564
        -0.000          -0.000
 97  3 13 23 48 29.9970000  0  7 30 24  4  5  7  9 16               -0.002744137
  -8037046.433 9  -5983611.88445  23493244.940    23493245.1054   23493250.6654
        -0.000          -0.000
 -28143861.556 9 -20662694.49749  19698762.404    19698762.1814   19698767.6234
        -0.000          -0.000
 -16473804.073 9 -12815846.63849  19976646.334    19976646.4254   19976650.7304
        -0.000          -0.000
 -22954000.849 9 -17160788.08248  20998848.468    20998847.8804   20998852.8224
        -0.000          -0.000
  10552990.481 9   8224373.63746  22418419.656    22418419.0414   22418424.8654
        -0.000          -0.000
 -17796366.729 9 -13569276.52748  20632200.031    20632199.7454   20632204.8244
        -0.000          -0.000
   -510466.563 9   -392954.79245  23763071.893    23763071.2984   23763078.0814
        -0.000          -0.000
 97  3 13 23 48 59.9970000  0  7 30 24  4  5  7  9 16               -0.002753711
  -8150624.319 9  -6072114.12045  23471631.770    23471631.8774   23471637.5834
        -0.000          -0.000
 -28193556.133 9 -20701417.52749  19689305.831    19689305.5874   19689311.0704
        -0.000          -0.000
 -16446641.635 9 -12794681.09849  19981815.200    19981815.3274   19981819.6084
        -0.000          -0.000
 -23043048.968 9 -17230176.21048  20981903.217    20981902.6114   20981907.4834
        -0.000          -0.000
  10604927.273 9   8264843.84446  22428303.051    22428302.3694   22428308.2124
        -0.000          -0.000
 -17779224.583 9 -13555919.02748  20635462.072    20635461.8174   20635466.9004
        -0.000          -0.000
   -510572.808 8   -393037.55745  23763051.608    23763051.0434   23763057.7564
        -0.000          -0.000
 97  3 13 23 49 29.9970000  0  7 30 24  4  5  7  9 16               -0.002763256
  -8264163.544 9  -6160586.18945  23450026.113    23450026.2544   23450031.7054
        -0.000          -0.000
 -28242707.510 9 -20739717.28849  19679952.623    19679952.4124   19679957.8634
        -0.000          -0.000
 -16418981.353 9 -12773127.62849  19987078.815    19987078.9134   19987083.1674
        -0.000          -0.000
 -23131888.881 9 -17299402.09748  20964997.380    20964996.8654   20965001.7594
        -0.000          -0.000
  10656893.733 9   8305337.16546  22438192.022    22438191.2944   22438197.0594
        -0.000          -0.000
 -17761547.181 9 -13542144.45248  20638825.988    20638825.7484   20638830.7934
        -0.000          -0.000
   -510138.500 8   -392699.12145  23763134.165    23763133.5954   23763140.4154
        -0.000          -0.000
 97  3 13 23 49 59.9970000  0  7 30 24  4  5  7  9 16               -0.002772795
  -8377686.149 9  -6249045.32745  23428423.517    23428423.6404   23428428.9004
        -0.000          -0.000
 -28291332.319 9 -20777606.73349  19670699.655    19670699.4084   19670704.8814
        -0.000          -0.000
 -16390818.590 9 -12751182.61349  19992438.022    19992438.1234   19992442.3894
        -0.000          -0.000
 -23220526.292 9 -17368470.18448  20948130.179    20948129.6524   20948134.5594
        -0.000          -0.000
  10708875.591 9   8345842.47646  22448083.754    22448083.1154   22448088.9234
        -0.000          -0.000
 -17743349.647 9 -13527964.58248  20642288.936    20642288.6914   20642293.6994
        -0.000          -0.000
   -509167.084 8   -391942.14245  23763319.105    23763318.4074   23763325.1254
        -0.000          -0.000
 97  3 13 23 50 29.9970000  0  7 30 24  4  5  7  9 16               -0.002782351
  -8491199.717 8  -6337497.37245  23406822.502    23406822.6654   23406828.0304
        -0.000          -0.000
 -28339441.339 9 -20815094.26649  19661544.796    19661544.5664   19661550.0544
        -0.000          -0.000
 -16362143.939 9 -12728838.72549  19997894.579    19997894.6664   19997898.9994
        -0.000          -0.000
 -23308945.299 9 -17437368.08548  20931304.601    20931304.0304   20931308.9484
        -0.000          -0.000
  10760880.917 9   8386366.08446  22457979.967    22457979.3954   22457985.2724
        -0.000          -0.000
 -17724643.029 9 -13513388.01748  20645848.707    20645848.4474   20645853.4694
        -0.000          -0.000
   -507664.881 9   -390771.59145  23763605.038    23763604.3994   23763610.9004
        -0.000          -0.000
 97  3 13 23 50 59.9970000  0  7 30 24  4  5  7  9 16               -0.002791925
  -8604708.258 9  -6425945.51545  23385222.417    23385222.6474   23385228.0954
        -0.000          -0.000
 -28387037.764 9 -20852182.37249  19652487.463    19652487.2364   19652492.7674
        -0.000          -0.000
 -16332969.840 9 -12706105.65449  20003446.256    20003446.3624   20003450.6524
        -0.000          -0.000
 -23397152.049 9 -17506100.59348  20914519.346    20914518.7904   20914523.7524
        -0.000          -0.000
  10812910.761 9   8426908.79246  22467880.948    22467880.3604   22467886.2454
        -0.000          -0.000
 -17705432.194 9 -13498418.55748  20649504.458    20649504.1964   20649509.2074
        -0.000          -0.000
   -505650.917 8   -389202.24045  23763988.374    23763987.5644   23763994.0414
        -0.000          -0.000
 97  3 13 23 51 29.9970000  0  7 30 24  4  5  7  9 16               -0.002801519
  -8718215.586 9  -6514392.72445  23363622.619    23363622.8914   23363628.2254
        -0.000          -0.000
 -28434136.416 9 -20888882.60649  19643524.879    19643524.6614   19643530.1854
        -0.000          -0.000
 -16303308.761 9 -12682993.12149  20009090.626    20009090.7054   20009094.9834
        -0.000          -0.000
 -23485156.019 9 -17574675.09348  20897772.739    20897772.1634   20897777.1224
        -0.000          -0.000
  10864959.432 9   8467466.18246  22477785.734    22477784.9434   22477790.6394
        -0.000          -0.000
 -17685717.405 9 -13483056.40548  20653256.058    20653255.8084   20653260.8834
        -0.000          -0.000
   -503144.455 9   -387249.13545  23764465.240    23764464.4144   23764470.8654
        -0.000          -0.000
 97  3 13 23 51 59.9970000  0  7 30 24  4  5  7  9 16               -0.002811146
  -8831727.099 9  -6602843.18046  23342021.997    23342022.2454   23342027.7254
        -0.000          -0.000
 -28480745.052 9 -20925201.00749  19634655.547    19634655.3314   19634660.8484
        -0.000          -0.000
 -16273154.377 9 -12659496.19249  20014828.808    20014828.9124   20014833.1654
        -0.000          -0.000
 -23572958.699 9 -17643092.74448  20881064.497    20881063.8804   20881068.8574
        -0.000          -0.000
  10917028.196 9   8508039.23546  22487694.055    22487693.3544   22487698.9824
        -0.000          -0.000
 -17665495.563 9 -13467299.14948  20657104.186    20657103.9354   20657109.0344
        -0.000          -0.000
   -500172.302 9   -384933.16545  23765030.858    23765029.9824   23765036.5164
        -0.000          -0.000
 97  3 13 23 52 29.9970000  0  8 30 24  4  5  7  9 16 10            -0.002820769
  -8945217.228 9  -6691277.01645  23320425.531    23320425.8364   23320431.3384
        -0.000          -0.000
 -28526838.764 9 -20961118.17049  19625884.200    19625883.9834   19625889.4744
        -0.000          -0.000
 -16242501.830 9 -12635611.08549  20020661.775    20020661.8544   20020666.1394
        -0.000          -0.000
 -23660553.661 9 -17711348.53848  20864395.717    20864395.1504   20864400.0874
        -0.000          -0.000
  10969132.521 9   8548639.98446  22497609.256    22497608.4904   22497614.0744
        -0.000          -0.000
 -17644746.177 9 -13451130.81448  20661052.615    20661052.4114   20661057.5484
        -0.000          -0.000
   -496734.894 9   -382254.60645  23765685.062    23765684.1894   23765690.5354
        -0.000          -0.000
  -1860256.33518  -1418007.66055  23787278.790    23787277.9605   23787286.4965
        -0.000          -0.000
 97  3 13 23 52 59.9970000  0  8 30 24  4  5  7  9 16 10            -0.002830369
  -9058691.486 9  -6779698.44845  23298831.923    23298832.2644   23298837.7784
        -0.000          -0.000
 -28572407.932 9 -20996626.59849  19617212.678    19617212.4464   19617217.8894
        -0.000          -0.000
 -16211361.887 9 -12611346.18649  20026587.515    20026587.5924   20026591.8864
        -0.000          -0.000
 -23747962.524 9 -17779459.31948  20847762.470    20847761.8554   20847766.7434
        -0.000          -0.000
  11021255.021 9   8589254.87346  22507527.913    22507527.1434   22507532.8174
        -0.000          -0.000
 -17623479.820 9 -13434559.64748  20665099.484    20665099.2904   20665104.3984
        -0.000          -0.000
   -492831.077 8   -379212.68845  23766427.871    23766426.8454   23766433.4934
        -0.000          -0.000
  -1969055.090 8  -1502785.84045  23766575.251    23766574.4134   23766582.9534
        -0.000          -0.000
 97  3 13 23 53 29.9970000  0  8 30 24  4  5  7  9 16 10            -0.002839993
  -9172167.678 9  -6868121.41245  23277238.115    23277238.3044   23277243.8974
        -0.000          -0.000
 -28617446.398 9 -21031721.49149  19608642.098    19608641.9004   19608647.3194
        -0.000          -0.000
 -16179743.562 9 -12586708.53149  20032604.240    20032604.3274   20032608.6064
        -0.000          -0.000
 -23835185.929 9 -17847425.59048  20831164.453    20831163.8154   20831168.6664
        -0.000          -0.000
  11073389.575 9   8629879.18946  22517448.807    22517448.0854   22517453.7684
        -0.000          -0.000
 -17601719.073 9 -13417603.23848  20669240.415    20669240.2234   20669245.3364
        -0.000          -0.000
   -488456.283 8   -375803.75445  23767260.118    23767259.2194   23767266.0784
        -0.000          -0.000
  -2077989.575 9  -1587669.79745  23745845.769    23745844.9634   23745853.1844
        -0.000          -0.000
 97  3 13 23 53 59.9970000  0  8 30 24  4  5  7  9 16 10            -0.002849631
  -9285635.084 9  -6956537.49045  23255645.998    23255646.1214   23255651.7724
        -0.000          -0.000
 -28661928.756 9 -21066383.05449  19600177.421    19600177.1904   19600182.5884
        -0.000          -0.000
 -16147640.587 9 -12561693.21649  20038713.253    20038713.3374   20038717.5874
        -0.000          -0.000
 -23922214.184 9 -17915239.79548  20814603.453    20814602.8304   20814607.6964
        -0.000          -0.000
  11125555.776 9   8670528.15846  22527375.608    22527374.9334   22527380.5434
        -0.000          -0.000
 -17579467.104 9 -13400264.06448  20673474.841    20673474.6114   20673479.7634
        -0.000          -0.000
   -483578.176 8   -372002.62745  23768188.220    23768187.4564   23768194.2724
        -0.000          -0.000
  -2187039.640 9  -1672643.80645  23725094.224    23725093.5204   23725101.5144
        -0.000          -0.000
 97  3 13 23 54 29.9970000  0  8 30 24  4  5  7  9 16 10            -0.002859275
  -9399093.659 8  -7044946.71445  23234055.470    23234055.6794   23234061.3624
        -0.000          -0.000
 -28705851.938 9 -21100608.89149  19591819.076    19591818.8564   19591824.2714
        -0.000          -0.000
 -16115057.876 9 -12536304.09149  20044913.570    20044913.6254   20044917.9124
        -0.000          -0.000
 -24009057.741 9 -17982910.08248  20798077.540    20798077.0014   20798081.9314
        -0.000          -0.000
  11177757.709 9   8711204.97046  22537309.256    22537308.5964   22537314.1004
        -0.000          -0.000
 -17556730.633 9 -13382547.35448  20677801.500    20677801.2264   20677806.3834
        -0.000          -0.000
   -478168.352 8   -367787.15345  23769217.521    23769216.8344   23769223.7934
        -0.000          -0.000
  -2296184.734 9  -1757691.82345  23704324.617    23704323.8384   23704331.7724
        -0.000          -0.000
 97  3 13 23 54 59.9970000  0  8 30 24  4  5  7  9 16 10            -0.002868925
  -9512553.947 8  -7133357.28045  23212464.584    23212464.8954   23212470.4324
        -0.000          -0.000
 -28749228.695 9 -21134408.94049  19583564.761    19583564.5114   19583569.9214
        -0.000          -0.000
 -16082000.812 9 -12510545.33249  20051204.068    20051204.1604   20051208.4644
        -0.000          -0.000
 -24095708.755 9 -18050430.33748  20781588.407    20781587.8564   20781592.8124
        -0.000          -0.000
  11229994.024 9   8751908.57946  22547249.355    22547248.7654   22547254.3654
        -0.000          -0.000
 -17533509.384 9 -13364452.89448  20682220.286    20682220.0674   20682225.2314
        -0.000          -0.000
   -472217.580 9   -363150.19345  23770349.941    23770349.3794   23770356.4074
        -0.000          -0.000
  -2405428.598 9  -1842816.84245  23683536.289    23683535.3804   23683543.2734
        -0.000          -0.000
 97  3 13 23 55 29.9970000  0  8 30 24  4  5  7  9 16 10            -0.002878564
  -9625989.760 9  -7221748.68945  23190878.031    23190878.5494   23190884.2754
        -0.000          -0.000
 -28792057.392 9 -21167781.93749  19575414.682    19575414.4634   19575419.8794
        -0.000          -0.000
 -16048447.927 9 -12484400.22449  20057588.932    20057589.0304   20057593.3124
        -0.000          -0.000
 -24182134.558 9 -18117775.10448  20765142.141    20765141.5724   20765146.5094
        -0.000          -0.000
  11282294.600 9   8792662.24746  22557201.939    22557201.2744   22557206.9634
        -0.000          -0.000
 -17509773.015 9 -13345957.04148  20686737.223    20686737.0004   20686742.1274
        -0.000          -0.000
   -465718.568 8   -358086.00345  23771586.783    23771586.3234   23771592.9744
        -0.000          -0.000
  -2514738.166 9  -1927993.01145  23662735.107    23662734.3904   23662742.2814
        -0.000          -0.000
 97  3 13 23 55 59.9970000  0  8 30 24  4  5  7  9 16 10            -0.002888184
  -9739392.613 9  -7310114.50246  23169298.495    23169298.7584   23169304.3334
        -0.000          -0.000
 -28834355.523 9 -21200741.50149  19567365.640    19567365.3954   19567370.8214
        -0.000          -0.000
 -16014390.787 9 -12457862.18549  20064069.821    20064069.9044   20064074.1804
        -0.000          -0.000
 -24268340.639 9 -18184948.66148  20748737.620    20748737.0884   20748741.9404
        -0.000          -0.000
  11334649.980 9   8833458.61046  22567164.726    22567164.0484   22567169.9034
        -0.000          -0.000
 -17485510.194 9 -13327050.95848  20691354.325    20691354.0844   20691359.1754
        -0.000          -0.000
   -458674.090 8   -352596.76845  23772927.096    23772926.8464   23772933.4844
        -0.000          -0.000
  -2624094.292 9  -2013205.53245  23641925.237    23641924.6064   23641932.3454
        -0.000          -0.000
 97  3 13 23 56 29.9970000  0  8 30 24  4  5  7  9 16 10            -0.002897787
  -9852772.517 9  -7398462.40246  23147723.023    23147723.2654   23147728.8444
        -0.000          -0.000
 -28876145.743 9 -21233305.29149  19559413.231    19559412.9804   19559418.4204
        -0.000          -0.000
 -15979850.175 9 -12430947.42049  20070642.625    20070642.7434   20070647.0924
        -0.000          -0.000
 -24354324.512 9 -18251949.06048  20732375.444    20732374.8754   20732379.7354
        -0.000          -0.000
  11387043.082 9   8874284.38646  22577134.678    22577134.0554   22577140.0794
        -0.000          -0.000
 -17460718.690 9 -13307732.92148  20696071.999    20696071.7184   20696076.8754
        -0.000          -0.000
   -451103.976 8   -346697.97645  23774367.768    23774367.4174   23774373.8774
        -0.000          -0.000
  -2733494.965 8  -2098452.71445  23621106.759    23621106.2284   23621114.0394
        -0.000          -0.000
 97  3 13 23 56 59.9970000  0  8 30 24  4  5  7  9 16 10            -0.002907381
  -9966130.241 9  -7486793.05946  23126151.833    23126152.0394   23126157.4124
        -0.000          -0.000
 -28917441.674 9 -21265483.92049  19551554.847    19551554.6204   19551560.0864
        -0.000          -0.000
 -15944844.267 9 -12403670.08549  20077304.018    20077304.1524   20077308.4634
        -0.000          -0.000
 -24440087.396 9 -18318777.26748  20716055.356    20716054.7844   20716059.6004
        -0.000          -0.000
  11439458.951 9   8915127.90246  22587109.200    22587108.4114   22587114.4374
        -0.000          -0.000
 -17435414.909 9 -13288015.71448  20700887.179    20700886.9044   20700892.0744
        -0.000          -0.000
   -443033.146 8   -340408.99645  23775903.669    23775903.2944   23775909.8214
        -0.000          -0.000
  -2842953.755 8  -2183745.18645  23600277.432    23600276.8384   23600284.6034
        -0.000          -0.000
 97  3 13 23 57 29.9970000  0  8 30 24  4  5  7  9 16 10            -0.002916959
 -10079450.772 9  -7575094.74246  23104587.606    23104587.8774   23104593.1094
        -0.000          -0.000
 -28958222.383 9 -21297261.07649  19543794.509    19543794.2734   19543799.7414
        -0.000          -0.000
 -15909371.965 9 -12376029.32749  20084054.187    20084054.2794   20084058.5744
        -0.000          -0.000
 -24525620.841 9 -18385426.68548  20699778.845    20699778.2824   20699783.0624
        -0.000          -0.000
  11491896.444 9   8955988.24146  22597087.535    22597086.8624   22597093.0004
        -0.000          -0.000
 -17409598.777 9 -13267899.26548  20705799.815    20705799.5334   20705804.7414
        -0.000          -0.000
   -434449.817 8   -333720.72945  23777537.084    23777536.6544   23777543.3654
        -0.000          -0.000
  -2952452.185 8  -2269068.56445  23579440.487    23579439.9044   23579447.5244
        -0.000          -0.000
 97  3 13 23 57 59.9970000  0  8 30 24  4  5  7  9 16 10            -0.002926528
 -10192743.757 9  -7663374.92245  23083028.508    23083028.8214   23083034.0844
        -0.000          -0.000
 -28998477.988 9 -21328629.06149  19536134.061    19536133.8364   19536139.3424
        -0.000          -0.000
 -15873467.254 9 -12348051.62849  20090886.584    20090886.7094   20090891.0054
        -0.000          -0.000
 -24610928.945 9 -18451900.51348  20683545.239    20683544.6604   20683549.4704
        -0.000          -0.000
  11544331.461 9   8996846.67146  22607065.478    22607064.8754   22607071.1064
        -0.000          -0.000
 -17383287.478 9 -13247396.97448  20710806.725    20710806.4074   20710811.6114
        -0.000          -0.000
   -425357.393 8   -326635.72445  23779267.518    23779267.0754   23779273.6404
        -0.000          -0.000
  -3062005.410 8  -2354434.65045  23558593.222    23558592.3164   23558599.8934
        -0.000          -0.000
 97  3 13 23 58 29.9970000  0  8 30 24  4  5  7  9 16 10            -0.002936100
 -10306009.540 9  -7751633.92346  23061474.914    23061475.0134   23061480.2784
        -0.000          -0.000
 -29038208.025 9 -21359587.51449  19528573.701    19528573.4704   19528578.9334
        -0.000          -0.000
 -15837145.163 9 -12319748.70049  20097798.460    20097798.5344   20097802.8474
        -0.000          -0.000
 -24696004.786 9 -18518193.35348  20667355.830    20667355.2684   20667360.0774
        -0.000          -0.000
  11596754.672 9   9037695.92746  22617041.458    22617040.8784   22617046.9564
        -0.000          -0.000
 -17356492.858 9 -13226518.06748  20715905.492    20715905.2474   20715910.4194
        -0.000          -0.000
   -415774.784 8   -319168.77045  23781091.185    23781090.5754   23781097.0254
        -0.000          -0.000
  -3171637.299 8  -2439862.01645  23537730.946    23537730.0394   23537737.7504
        -0.000          -0.000
 97  3 13 23 58 59.9970000  0  8 30 24  4  5  7  9 16 10            -0.002945678
 -10419238.246 9  -7839864.03146  23039928.207    23039928.2804   23039933.4934
        -0.000          -0.000
 -29077391.959 9 -21390120.43349  19521117.220    19521116.9924   19521122.4654
        -0.000          -0.000
 -15800377.691 9 -12291098.72549  20104795.033    20104795.1604   20104799.4754
        -0.000          -0.000
 -24780840.393 9 -18584299.00348  20651212.166    20651211.5544   20651216.3764
        -0.000          -0.000
  11649168.406 9   9078537.73046  22627015.381    22627014.7544   22627021.1024
        -0.000          -0.000
 -17329211.536 9 -13205259.91448  20721097.004    20721096.7434   20721101.9084
        -0.000          -0.000
   -405683.155 8   -311305.14645  23783011.392    23783010.7444   23783017.3754
        -0.000          -0.000
  -3281348.043 8  -2525350.82445  23516853.706    23516852.8614   23516860.2074
        -0.000          -0.000
